GFSSGP_sfc_dewp_000.txt.gz
Dewpoint
59 51 40 41 37 39 37 39 39 41 35 30 31 30 30 34 30 23 54 59 64 65 67 69 71 70 68 67 65 65 63 62 61 63 61 64 63 61 60 60 60 60 61 58 59 59 59 62 63
58 46 38 40 35 35 35 38 41 41 39 30 30 33 30 32 49 55 55 64 65 66 68 68 72 69 68 67 65 64 63 62 61 62 64 64 63 63 61 60 58 59 59 59 59 57 57 58 58
46 41 34 35 35 33 35 39 41 40 32 29 29 31 32 33 49 55 57 63 65 67 68 69 72 70 68 66 66 64 63 62 62 63 65 65 63 63 61 60 58 58 58 58 59 57 58 57 56
39 33 31 32 31 33 35 35 37 40 33 28 29 32 38 48 49 54 57 62 65 66 68 71 72 70 69 67 66 64 62 62 62 65 66 65 64 63 60 59 59 59 58 57 57 59 58 58 57
37 30 26 26 26 29 29 32 38 38 36 30 27 33 38 51 56 57 57 61 62 64 67 70 72 71 70 67 66 65 63 63 62 62 65 64 65 62 61 59 59 59 59 59 57 58 59 59 59
35 30 23 23 24 25 25 27 32 38 37 29 29 37 40 52 55 56 56 57 62 64 67 70 71 71 70 68 67 65 64 64 63 64 64 63 62 62 62 61 60 60 62 61 59 58 58 60 60
36 33 28 25 25 24 25 30 35 37 35 28 30 39 47 51 54 55 55 56 63 66 68 69 69 70 69 68 68 67 65 66 65 62 64 64 64 62 63 61 62 62 62 61 59 57 58 59 60
39 34 29 25 24 25 29 35 35 33 32 30 34 36 39 47 53 55 55 54 61 65 67 67 66 66 66 66 68 67 67 66 65 65 65 64 64 65 63 64 63 62 63 61 59 58 56 57 59
40 34 29 26 27 28 31 32 35 36 32 32 42 40 45 49 55 54 54 55 57 64 65 66 65 64 64 64 66 67 67 66 65 65 64 63 61 61 62 64 64 64 62 61 60 58 56 58 60
37 35 34 32 30 33 32 34 34 35 34 33 43 52 53 53 54 53 53 54 54 58 62 64 64 64 62 61 62 64 62 62 62 63 62 61 60 59 61 63 64 63 63 63 61 60 58 59 55
38 35 37 36 37 37 34 33 34 33 33 33 33 48 52 52 53 53 53 54 55 55 55 62 63 63 62 60 60 61 61 61 61 61 61 60 59 59 59 60 61 62 62 60 60 58 55 53 53
39 39 37 39 39 36 33 34 33 32 33 35 35 40 53 52 53 53 53 53 54 55 55 55 60 62 61 59 60 60 60 60 60 60 60 59 59 57 57 59 60 59 59 58 57 56 55 53 52
40 40 40 40 39 34 33 33 34 32 32 34 35 48 52 53 52 53 54 55 54 55 55 56 56 59 59 56 60 59 58 59 59 59 59 59 58 57 56 58 59 59 58 57 56 56 55 54 52
40 37 35 34 34 34 33 33 33 32 32 31 35 43 50 52 53 53 53 53 53 53 55 56 57 57 57 56 57 58 57 57 58 58 58 58 58 57 56 56 57 57 57 57 57 56 55 54 52
37 35 35 33 33 33 33 29 28 30 30 30 32 33 38 46 49 52 51 52 53 52 52 55 57 57 58 57 55 54 56 56 57 57 56 57 56 56 56 55 54 54 54 54 54 54 53 52 50
32 32 30 32 34 34 30 29 31 31 30 30 30 30 30 32 33 34 35 41 49 51 48 52 55 57 58 58 58 54 52 53 54 55 55 55 55 55 55 55 54 53 53 53 52 51 51 51 50
32 29 28 29 31 31 29 28 30 31 28 29 29 27 31 34 37 39 42 42 41 41 49 49 53 56 57 59 59 59 55 53 53 54 54 54 55 55 55 55 55 54 53 53 53 52 52 51 52
29 29 28 26 26 31 28 28 29 30 25 26 26 30 33 35 37 41 44 45 45 45 44 45 50 53 57 58 59 60 60 58 57 55 55 54 54 54 55 55 55 55 54 53 53 53 53 53 52
30 27 26 26 28 29 28 28 28 28 26 27 29 32 34 36 38 41 43 45 46 46 45 44 45 46 55 58 58 58 59 59 59 58 57 57 56 55 55 55 55 56 55 55 54 53 53 53 53
29 27 26 27 30 27 26 25 28 22 27 31 32 34 36 38 39 41 42 43 43 44 46 45 44 45 51 55 57 58 59 59 60 60 60 59 59 58 56 56 56 55 56 56 55 54 53 53 53
30 27 27 29 30 29 29 28 22 27 30 33 34 35 36 38 39 40 42 43 43 43 42 43 44 47 48 54 57 57 58 58 58 59 59 60 60 60 59 59 57 57 56 56 56 56 54 54 55
27 29 30 30 28 25 28 23 22 26 29 32 33 34 35 37 39 41 42 43 43 43 42 42 43 43 43 48 49 50 52 52 54 56 57 56 57 59 60 60 60 59 58 57 58 58 57 57 55
28 32 30 29 27 27 25 24 23 27 28 31 33 33 34 36 39 41 42 43 43 43 43 43 43 43 43 42 44 45 44 49 51 51 48 49 52 53 55 58 59 59 60 60 59 59 59 59 58
32 28 29 28 26 24 25 25 23 26 27 30 33 33 34 37 40 41 42 42 42 43 43 43 43 43 43 42 42 41 41 42 43 43 45 45 48 51 48 47 52 58 59 60 61 61 61 61 60
27 27 25 24 24 24 25 23 24 25 29 30 32 33 34 37 39 40 40 41 42 41 41 42 42 42 42 42 42 42 42 42 42 42 43 43 43 44 43 43 43 44 45 49 55 59 60 61 60
25 27 26 23 24 25 23 21 21 25 30 32 34 35 34 37 39 40 40 41 41 41 41 41 41 42 42 42 42 43 44 44 44 43 43 44 43 44 43 44 43 43 43 43 45 48 51 55 57
25 26 29 27 28 24 25 26 24 31 33 34 35 34 34 36 38 39 40 40 40 40 40 40 41 42 43 43 43 43 44 44 44 44 44 44 43 42 42 43 44 43 43 43 43 44 45 46 48
27 27 25 26 23 21 22 22 23 28 32 34 34 34 35 35 38 39 40 40 40 40 40 41 43 43 43 43 43 43 44 43 43 42 41 40 40 40 41 41 41 42 43 43 43 43 43 44 45
25 23 22 25 25 21 20 21 25 25 29 33 34 35 35 35 37 38 39 39 40 41 42 43 43 41 40 41 41 41 43 42 40 39 38 37 37 37 38 38 39 40 41 40 40 40 40 41 42
28 26 24 22 21 23 21 21 25 27 26 29 33 35 36 37 38 38 38 40 41 41 42 41 39 37 37 38 38 38 40 37 35 33 33 34 33 34 34 36 36 36 35 37 39 39 39 41 38

GFSSGP_sfc_dewp_003.txt.gz
Dewpoint
63 52 38 42 35 38 36 37 39 38 38 31 30 29 29 33 28 23 53 61 64 64 67 68 71 70 69 68 67 65 64 62 61 61 60 64 62 61 61 61 61 60 58 57 59 60 57 62 63
58 44 39 40 34 33 33 37 38 40 41 33 30 32 29 29 48 54 55 60 64 66 67 68 71 71 70 68 67 66 64 63 61 62 64 65 63 61 60 59 59 58 58 58 59 58 57 58 62
42 35 34 36 34 33 33 36 39 38 39 30 28 32 32 32 46 53 57 64 65 66 68 68 71 70 69 68 66 65 64 63 62 63 65 66 64 61 62 60 59 58 59 58 60 58 57 58 59
37 32 30 29 29 32 34 33 30 31 37 29 29 30 37 46 47 55 59 64 65 66 67 69 72 70 69 67 67 65 64 63 63 64 64 67 64 62 62 60 59 59 59 58 58 60 59 59 59
36 29 24 26 25 27 29 28 28 32 37 31 28 30 38 47 56 57 60 64 64 65 67 70 72 70 69 67 66 65 63 63 63 64 65 66 65 62 61 60 59 60 60 60 58 58 60 60 59
36 29 22 20 22 24 25 24 29 30 37 33 28 35 38 51 56 56 58 62 64 65 67 70 71 71 70 68 67 66 64 63 62 62 63 64 65 64 61 62 61 60 61 61 60 59 59 60 61
36 32 27 24 24 23 24 30 33 35 36 34 34 34 44 51 55 56 56 60 62 64 67 68 70 70 70 69 68 68 65 66 65 65 63 64 64 63 62 63 62 62 62 63 62 60 59 59 60
38 35 30 27 23 23 27 31 33 33 31 30 38 34 36 46 53 55 55 56 62 65 67 67 68 68 68 67 69 68 67 66 67 66 64 65 64 65 64 65 64 62 63 63 62 61 59 58 58
39 34 31 29 26 25 31 33 34 35 33 33 42 43 47 49 55 54 54 54 59 63 65 66 66 65 65 65 66 68 67 67 66 65 65 64 62 61 62 64 64 64 63 63 63 61 60 60 60
38 35 35 33 28 30 35 35 33 34 33 33 36 51 53 54 54 53 53 53 54 61 63 64 64 63 63 64 63 64 64 64 62 61 62 62 60 60 61 62 65 63 63 64 62 62 61 61 56
38 35 37 36 33 37 37 34 34 33 32 33 33 35 52 53 54 53 53 53 54 57 61 64 63 63 62 61 60 62 62 61 60 60 60 60 60 59 59 59 60 61 62 61 61 59 58 55 54
38 39 38 39 40 39 36 34 33 32 33 34 35 36 52 52 53 53 52 53 54 55 55 61 63 62 61 61 59 60 61 60 59 59 60 59 58 57 57 57 58 58 59 58 57 57 56 55 53
40 41 41 41 41 39 37 34 33 33 33 34 33 38 49 52 52 53 53 53 54 54 55 55 60 62 62 60 59 59 59 60 59 59 59 59 58 58 56 56 56 57 57 57 56 56 56 55 54
42 41 40 36 35 34 34 34 33 33 33 32 31 33 43 52 52 52 53 53 54 54 54 55 55 59 60 60 58 59 58 59 59 59 59 59 59 58 57 56 56 57 57 57 57 56 56 55 54
39 36 35 35 36 34 33 32 30 31 30 30 29 30 34 40 47 49 52 51 53 53 53 54 56 56 57 58 57 58 58 58 58 58 58 58 58 58 57 56 55 55 56 56 56 55 54 54 53
32 33 31 33 33 33 32 30 32 33 33 29 30 28 31 35 36 38 41 40 40 46 51 51 54 56 56 57 56 55 56 57 57 57 57 57 57 57 56 56 56 55 53 53 53 53 52 52 52
33 29 29 29 31 31 30 29 31 31 28 27 28 31 35 37 39 42 45 45 45 45 43 48 52 55 57 57 58 56 54 53 54 55 55 55 55 55 55 55 55 55 54 53 53 52 52 51 51
31 30 29 28 28 31 29 29 30 30 25 25 28 33 35 37 39 41 43 44 46 46 45 45 48 53 56 58 59 59 59 56 55 54 54 54 54 54 55 55 55 55 55 54 53 53 53 52 52
33 29 27 27 27 27 28 28 29 29 26 26 30 33 35 37 39 41 42 42 42 43 45 45 46 47 54 57 57 57 58 59 58 59 58 56 56 55 54 54 54 55 55 54 55 54 53 53 53
31 29 29 28 30 27 27 27 28 24 25 28 31 34 36 37 39 40 42 42 42 41 42 42 44 47 51 56 57 58 58 58 59 60 60 60 59 58 57 56 56 56 56 55 55 55 54 54 54
31 29 29 27 30 29 28 28 28 26 30 32 33 35 37 38 39 40 41 42 42 41 42 42 42 42 46 52 57 57 56 56 55 55 56 56 56 58 59 59 59 59 57 57 57 56 55 55 56
38 31 31 29 28 26 30 24 25 24 29 31 33 34 36 38 40 41 41 42 42 42 42 42 42 42 42 44 45 48 49 48 50 52 50 48 49 51 51 53 55 57 59 58 58 58 58 57 56
36 30 29 30 27 26 25 24 25 25 27 30 31 32 35 38 39 40 41 41 42 42 42 42 42 42 42 42 42 42 42 43 45 44 43 44 44 47 44 44 45 47 50 53 57 58 59 60 59
32 28 28 29 26 24 25 24 24 24 25 29 31 31 35 38 39 40 41 41 41 41 42 42 42 42 42 42 42 42 41 42 42 42 42 43 43 44 42 42 42 43 44 45 46 48 51 55 57
28 27 26 24 24 24 25 25 25 25 26 29 31 31 34 38 39 39 40 40 40 40 40 41 42 42 42 42 42 42 42 42 42 42 42 41 41 41 41 42 41 41 42 43 44 46 47 48 49
27 28 26 22 23 23 24 22 23 27 28 30 32 32 34 37 38 39 40 40 39 39 40 41 41 42 42 42 42 41 41 42 41 41 41 40 40 40 39 40 40 40 41 42 43 44 46 46 46
24 26 29 27 26 25 25 25 25 31 31 32 32 32 33 36 38 38 39 39 38 39 40 41 41 41 41 41 41 41 39 39 39 39 38 38 37 36 36 38 37 38 39 40 41 39 41 42 43
26 27 25 27 24 21 22 22 24 28 30 32 32 32 33 36 38 38 39 38 39 41 41 41 39 38 38 39 39 39 38 37 37 35 34 33 33 33 33 33 35 36 37 35 35 38 39 39 40
22 21 23 26 25 21 20 21 24 25 31 32 33 32 33 35 38 38 38 39 40 41 39 38 36 35 35 36 36 36 35 33 31 28 28 28 29 29 29 28 30 29 29 30 35 34 35 38 36
27 23 22 22 21 22 21 21 25 27 31 33 33 34 35 36 37 38 38 40 40 39 36 34 33 32 33 33 32 32 28 25 24 24 24 23 23 24 25 24 24 22 25 28 30 29 35 32 32

GFSSGP_sfc_dewp_006.txt.gz
Dewpoint
63 46 38 42 34 36 34 36 42 38 38 33 30 29 29 31 26 25 50 60 62 63 65 69 71 70 70 68 67 66 65 62 61 60 58 62 61 61 60 61 60 57 57 57 60 58 59 58 62
50 39 39 39 34 32 32 36 37 37 40 41 30 31 29 28 46 52 54 60 64 64 66 68 71 70 70 69 68 66 65 63 61 61 61 65 63 60 60 59 58 59 58 58 60 61 58 58 60
38 34 33 36 34 31 32 35 38 36 33 35 28 31 30 31 42 51 56 61 64 65 67 68 70 70 70 69 68 66 65 64 63 62 62 66 64 63 61 60 59 59 59 59 60 60 58 58 59
36 30 28 26 28 32 34 33 29 28 32 34 28 28 36 40 46 54 59 64 64 65 66 68 71 71 70 68 67 66 65 64 63 63 64 67 65 62 63 60 60 59 59 59 59 60 60 59 60
35 28 23 23 24 26 28 27 25 30 33 35 29 27 35 44 56 56 62 64 64 65 66 68 71 71 69 68 67 66 65 64 63 63 64 65 67 63 63 61 60 60 60 60 60 59 59 60 60
37 29 25 22 20 23 24 25 29 33 33 36 28 33 35 49 55 56 62 63 64 65 66 68 71 71 70 68 67 67 64 64 63 63 62 65 66 65 62 61 61 61 60 61 61 60 59 59 60
36 32 29 26 25 24 23 31 30 33 34 35 31 31 39 49 54 56 59 61 63 64 66 68 69 70 70 69 68 68 66 66 64 64 65 62 65 64 62 63 63 62 61 61 63 63 61 60 60
37 35 31 30 26 23 25 34 33 33 33 32 37 32 34 48 55 55 56 59 60 63 65 66 67 68 68 67 69 68 68 67 67 66 66 64 64 65 64 65 65 62 62 62 62 63 62 61 59
38 34 32 31 26 26 30 34 36 35 34 34 36 41 44 51 54 54 53 54 58 62 64 65 66 67 67 66 66 68 68 67 66 66 65 63 61 61 62 63 64 64 63 62 61 62 62 62 62
37 35 35 34 28 28 34 36 36 33 32 32 33 44 51 53 53 53 53 53 54 59 62 64 64 65 65 66 64 65 64 64 63 62 60 61 60 59 60 61 63 64 64 63 63 62 63 63 57
38 36 37 36 34 34 38 38 37 33 32 32 32 33 44 52 53 53 52 53 53 55 61 63 63 63 63 63 62 62 62 62 61 60 60 60 60 58 58 58 58 58 61 60 61 60 59 57 56
38 38 37 39 40 39 39 37 35 34 33 34 34 35 39 49 51 53 53 52 53 54 56 62 63 63 62 62 60 60 61 60 59 59 59 58 58 57 56 56 56 56 57 57 58 57 57 56 55
41 41 41 41 41 41 40 36 34 33 34 34 34 33 35 46 50 53 53 53 53 53 54 56 61 62 62 61 60 59 59 60 59 59 59 59 58 57 57 56 56 56 57 57 57 56 57 56 55
42 42 41 41 39 36 34 35 34 33 34 32 31 31 31 40 50 52 52 52 53 54 54 55 55 61 62 61 59 59 58 58 59 58 58 58 58 57 57 56 56 56 56 57 57 57 57 56 55
42 40 38 36 36 36 35 33 32 33 32 31 30 30 31 33 39 42 45 44 44 46 52 54 55 56 60 60 59 59 59 58 58 58 58 58 58 57 57 57 56 56 56 56 56 56 56 55 55
35 33 33 35 33 33 32 26 30 33 34 31 29 30 35 39 41 43 45 44 45 44 44 45 53 56 56 58 58 58 58 58 58 57 57 57 57 57 57 57 57 57 55 55 55 54 53 53 53
32 31 30 31 31 32 31 29 28 31 28 28 27 34 36 38 40 42 43 45 46 45 44 46 49 53 56 56 57 56 55 56 56 56 56 56 56 56 56 56 56 56 55 54 54 53 52 53 53
34 31 30 29 30 30 29 29 30 30 29 27 27 34 37 38 40 41 42 42 43 44 45 46 48 49 55 57 57 57 57 55 54 54 53 54 54 54 55 55 55 55 55 55 54 53 54 53 53
36 31 32 29 28 27 27 28 28 29 28 26 29 34 36 38 40 41 42 41 41 41 42 43 46 50 55 56 56 56 56 57 58 58 59 58 57 56 55 54 54 55 54 55 55 54 53 54 54
32 30 29 31 31 27 28 27 28 29 26 26 30 34 36 38 39 41 41 41 41 41 41 41 42 44 51 56 57 57 57 58 58 56 54 54 56 56 56 57 57 57 56 56 55 55 56 56 56
33 32 33 32 30 30 28 27 28 26 29 31 33 35 37 38 39 40 41 41 41 41 41 41 42 42 43 47 52 51 51 50 49 49 46 47 47 45 45 47 49 52 55 56 56 57 57 56 56
39 34 33 30 29 26 28 24 27 24 28 31 33 36 37 39 40 40 41 41 41 41 42 42 42 42 42 43 43 44 44 44 45 46 44 44 44 44 43 43 43 44 47 46 48 47 54 55 54
40 35 33 32 28 25 28 24 25 24 27 30 32 34 36 39 40 40 41 41 41 42 42 42 42 42 43 42 42 43 42 43 43 43 41 42 41 43 41 41 41 41 42 43 45 45 45 48 50
37 32 30 29 26 24 26 25 24 24 25 29 31 32 36 39 40 40 40 40 40 41 41 42 42 42 42 42 42 42 41 40 39 39 39 39 40 41 40 40 40 40 41 42 43 44 45 45 46
34 30 29 25 25 24 26 24 25 26 25 28 31 32 35 39 39 40 39 40 40 40 41 41 42 41 42 41 40 40 40 39 38 38 38 36 35 36 36 36 37 38 39 40 42 43 43 44 45
33 31 26 23 23 23 25 23 23 27 31 29 32 32 36 38 39 39 39 39 39 40 41 41 40 40 40 40 39 38 37 38 36 36 36 34 35 35 33 34 34 35 36 37 36 38 41 41 43
27 28 29 27 25 25 26 24 26 30 30 31 31 32 35 37 38 39 39 38 40 40 40 39 38 38 38 38 37 36 34 33 32 33 32 30 30 28 29 31 30 30 30 29 30 34 35 36 39
27 29 26 27 24 22 23 22 24 24 29 31 31 32 34 37 38 39 38 39 40 40 38 36 36 35 35 35 34 32 30 29 28 27 25 25 25 25 25 25 24 24 22 24 25 34 27 31 38
23 24 25 27 26 22 20 21 24 24 27 31 31 32 34 37 38 38 38 40 40 38 35 34 33 33 32 32 30 26 24 24 22 22 22 21 22 22 22 21 22 20 20 21 23 28 23 28 29
24 23 24 25 22 22 21 22 25 27 28 32 32 34 34 36 38 38 39 40 38 35 32 30 30 29 29 29 25 22 21 20 19 19 20 19 18 19 19 18 19 18 18 19 23 20 20 27 24

GFSSGP_sfc_dewp_009.txt.gz
Dewpoint
58 41 42 47 39 39 35 37 39 37 38 37 35 30 30 31 28 31 53 60 62 63 64 69 72 71 71 69 68 66 65 63 62 60 60 58 60 60 59 60 60 57 57 58 58 58 59 57 60
46 36 44 42 36 33 33 36 37 37 35 39 34 32 31 29 43 48 54 59 62 63 64 68 72 70 70 69 68 67 65 63 62 61 59 61 63 61 59 58 58 59 59 58 59 62 61 59 61
37 36 39 39 35 32 33 36 35 32 30 33 30 30 30 32 38 48 55 61 64 63 65 68 70 70 70 70 69 67 65 65 63 62 62 64 65 60 61 60 59 59 59 60 59 61 60 59 60
37 36 31 27 27 33 35 35 31 28 34 36 29 28 34 39 44 52 58 62 63 64 66 69 71 70 71 70 68 66 66 64 63 62 62 64 66 63 62 61 60 59 59 59 59 59 60 60 60
38 33 29 25 24 27 28 29 27 31 33 34 29 29 34 43 55 55 62 62 63 65 66 67 70 71 70 69 68 66 66 64 63 63 64 64 67 65 62 62 60 60 60 60 60 60 59 59 60
42 34 31 30 25 24 26 26 29 32 34 35 30 30 34 48 54 56 63 63 64 65 67 67 69 71 71 69 68 67 66 64 63 63 63 64 66 66 65 62 61 61 60 60 61 61 61 60 60
41 37 34 29 29 29 24 32 31 33 33 34 31 32 34 45 54 57 62 63 64 65 66 67 67 70 70 70 69 68 67 66 66 65 64 66 65 65 62 62 63 63 62 61 61 64 63 62 61
39 38 32 31 30 29 26 33 35 34 34 35 35 33 35 44 53 56 58 61 63 65 66 67 68 69 69 68 69 69 68 68 67 66 66 65 64 65 64 65 64 63 63 62 61 63 64 62 62
39 36 34 33 29 32 29 35 37 36 35 34 34 40 43 52 55 55 55 56 60 63 64 66 67 68 68 68 67 68 68 67 66 66 65 63 62 61 62 63 64 64 64 63 62 62 63 64 63
39 38 36 36 32 30 31 37 37 36 35 34 34 38 49 52 53 53 53 53 55 59 63 65 66 67 68 67 67 67 66 66 64 63 63 62 62 61 60 61 62 63 63 64 64 63 63 63 60
39 37 38 37 36 33 35 39 39 35 37 34 34 35 36 47 50 53 53 53 53 55 60 63 65 66 67 67 67 66 66 65 64 63 61 61 61 61 61 61 60 61 60 59 59 60 59 59 59
38 38 38 39 40 40 39 39 39 36 37 37 37 36 36 36 41 48 52 53 53 54 55 60 64 65 66 66 65 64 64 64 63 62 61 60 60 60 60 59 60 60 59 59 59 58 58 59 59
39 40 41 40 41 41 41 40 39 36 36 36 35 36 34 34 38 49 53 53 54 53 54 56 61 64 65 65 64 63 62 62 62 62 61 60 60 59 60 59 59 59 59 58 58 58 57 57 57
43 42 41 42 41 39 37 39 36 39 36 34 33 33 32 33 40 51 51 52 52 52 53 54 56 60 63 64 64 63 62 61 60 60 60 60 60 59 59 59 58 58 58 58 57 57 57 57 57
43 41 40 39 39 38 38 35 34 37 34 33 32 30 36 40 42 43 44 43 43 44 45 46 52 56 60 62 63 62 62 60 60 60 59 59 59 60 59 59 58 58 58 57 57 57 57 56 56
40 37 39 39 34 34 34 33 32 32 33 33 29 34 39 41 42 43 44 45 46 46 46 48 48 55 57 59 60 60 60 60 60 59 59 59 58 59 58 58 57 57 57 57 56 56 55 55 54
35 37 35 37 35 36 33 31 32 31 31 30 28 35 38 39 41 41 42 43 45 46 47 50 51 52 56 56 57 58 58 58 58 58 57 57 57 57 57 56 56 56 56 56 56 56 55 55 56
32 34 32 32 32 32 30 30 30 30 31 31 28 35 38 39 40 41 41 42 42 43 45 49 52 53 57 58 58 59 58 58 58 58 58 58 57 57 56 57 57 57 57 57 57 56 56 55 55
34 33 33 34 31 29 29 28 30 31 30 31 30 36 37 39 40 41 41 41 42 42 43 44 50 54 57 58 58 58 57 55 52 50 49 49 50 51 52 51 51 52 53 53 54 55 55 55 56
34 33 32 33 31 29 31 30 30 31 31 29 30 36 37 39 39 41 41 41 41 41 42 42 44 46 54 58 59 58 53 49 47 47 45 45 42 42 41 43 43 44 45 44 46 48 48 49 51
36 35 33 34 33 31 29 29 29 29 29 31 33 37 37 38 39 40 40 41 42 42 43 43 43 44 45 47 47 47 47 46 45 44 42 43 42 40 40 41 40 41 42 42 43 44 44 43 44
39 35 36 33 34 32 29 26 28 28 27 31 34 37 38 39 40 41 41 41 42 42 44 44 44 44 44 45 44 44 43 41 42 41 41 39 40 40 37 39 39 39 40 40 41 40 43 42 42
40 40 38 35 31 26 26 26 26 25 25 30 33 37 38 40 41 40 41 42 42 43 44 44 43 43 43 42 43 41 40 40 39 38 36 37 36 38 34 35 36 36 37 39 40 40 41 42 42
34 35 35 31 27 25 26 26 26 25 24 29 32 35 38 39 40 40 41 41 42 44 44 44 42 41 41 40 40 39 38 35 34 34 32 32 31 33 30 31 31 32 32 34 35 37 40 40 41
35 38 34 30 26 26 26 25 26 27 26 30 32 33 38 40 40 40 40 40 41 43 43 42 41 40 38 37 36 36 35 33 31 29 27 25 24 28 27 28 26 27 28 29 30 32 37 37 38
39 38 32 25 24 24 26 25 24 27 31 30 33 34 38 39 40 40 40 41 41 41 41 40 39 38 37 34 32 30 30 28 26 25 24 22 22 23 23 24 23 23 22 22 24 26 35 30 34
35 37 32 27 26 26 27 27 28 30 30 30 32 35 38 39 40 40 39 40 41 40 38 38 36 36 35 32 26 24 22 22 22 21 20 20 19 16 19 21 20 21 20 20 21 21 26 25 27
35 33 33 28 25 23 25 23 26 25 27 31 31 34 37 39 39 39 38 40 40 37 36 36 34 33 31 26 22 19 18 18 18 18 17 18 17 18 18 18 18 18 17 17 18 20 22 21 21
29 33 29 29 27 24 20 22 25 25 26 31 31 34 36 38 39 39 39 40 38 35 34 32 30 29 27 22 18 16 16 15 14 14 15 16 16 16 16 15 15 15 14 14 16 16 17 18 23
27 28 28 26 23 23 22 24 25 27 29 31 32 33 36 38 39 38 40 38 35 32 30 29 27 26 24 19 14 14 14 13 12 12 14 14 14 14 14 13 13 12 13 14 14 14 16 19 21

GFSSGP_sfc_dewp_012.txt.gz
Dewpoint
56 40 42 43 35 35 28 31 39 35 36 33 33 33 32 31 30 33 55 59 59 59 60 69 72 71 70 70 68 67 66 63 62 60 59 57 59 59 58 59 59 59 58 58 60 61 63 60 59
47 35 43 41 27 25 23 35 37 37 32 32 33 34 32 30 35 43 50 58 60 59 60 63 71 71 71 70 69 67 66 64 62 61 58 60 62 61 59 58 58 59 60 59 59 61 62 61 61
42 34 34 34 32 24 28 36 32 31 32 33 33 30 30 32 35 42 54 59 60 59 61 64 72 71 71 69 69 68 66 65 63 61 62 62 65 60 60 59 59 59 59 59 59 59 61 61 60
41 38 32 24 19 28 33 34 28 32 34 35 33 32 32 39 41 50 56 58 59 59 61 68 72 71 71 70 69 68 66 65 64 63 62 63 65 64 63 61 59 58 59 59 59 59 59 60 60
42 36 32 30 28 21 23 27 27 31 33 34 35 34 33 44 52 53 57 59 57 59 61 62 70 70 70 70 68 67 66 64 64 63 63 64 65 66 63 63 61 59 59 60 60 60 60 60 59
40 37 31 31 31 31 31 28 31 32 33 34 33 32 36 47 51 55 59 58 59 60 62 61 68 71 71 70 69 66 66 65 64 62 63 63 65 66 66 63 61 60 61 61 60 62 62 62 61
41 37 33 33 31 33 28 28 29 32 32 33 33 32 34 43 53 57 59 59 60 61 62 61 62 67 71 71 70 69 67 66 65 64 63 65 64 64 64 62 61 63 63 62 60 62 63 63 63
42 38 34 33 30 33 31 27 36 34 32 35 33 33 35 44 50 56 58 59 60 62 62 62 62 64 65 66 69 69 69 68 67 67 66 66 64 63 62 63 63 63 64 63 62 62 63 63 63
41 36 33 34 33 33 30 34 38 38 37 33 34 36 39 47 52 54 55 57 59 61 62 63 62 63 64 64 65 68 68 67 66 65 66 63 57 59 59 62 63 63 63 63 63 62 63 65 64
41 38 35 36 35 34 34 37 39 39 36 34 32 35 36 38 44 48 50 50 54 56 59 61 63 63 64 63 64 64 62 63 61 60 59 57 56 57 59 61 62 63 63 63 63 63 63 64 57
42 38 37 37 37 36 37 38 40 39 38 35 33 32 35 36 37 41 44 49 51 52 55 60 62 63 63 64 64 63 63 62 61 61 60 58 57 57 58 58 58 58 60 57 58 57 56 56 56
40 40 39 39 39 40 39 39 39 41 41 41 39 39 37 35 34 35 40 47 51 53 54 55 59 62 63 63 63 62 62 62 62 61 60 59 58 57 57 56 57 57 57 56 57 56 56 57 57
42 39 40 40 40 40 41 41 40 41 41 41 40 39 36 34 34 36 46 50 51 53 54 55 56 60 62 64 63 63 61 61 61 61 61 60 59 58 57 57 57 57 57 57 57 57 57 57 57
42 42 41 40 41 41 41 40 40 39 40 39 38 37 35 35 37 41 46 49 50 50 51 52 54 56 59 62 63 62 62 61 61 61 61 60 60 59 59 59 58 58 58 57 57 57 57 57 57
43 41 42 41 41 41 41 39 38 39 34 32 32 33 36 40 41 42 44 43 44 44 46 46 47 52 57 60 61 61 62 61 61 61 60 60 60 60 60 59 59 58 58 58 58 58 58 58 57
43 43 39 39 40 41 38 35 35 34 31 31 30 32 38 40 40 42 43 44 45 46 48 50 48 50 55 58 60 60 60 60 61 60 60 59 59 59 59 58 58 58 59 59 58 58 57 57 56
42 37 38 37 40 39 36 34 32 31 31 30 30 33 36 39 40 42 43 44 45 47 50 52 52 53 56 57 58 58 58 58 58 58 58 59 58 58 59 59 59 58 57 56 56 56 56 56 55
36 36 35 36 35 34 34 34 32 32 32 31 30 33 36 37 39 42 42 44 45 47 51 53 55 55 56 57 58 58 59 59 58 56 55 56 53 53 54 50 48 49 49 48 47 48 49 50 50
33 33 35 35 35 33 35 35 32 34 34 32 31 33 36 37 40 41 42 42 43 45 48 52 55 56 56 57 57 55 52 49 46 45 43 42 41 41 42 42 41 41 42 41 41 41 41 41 42
37 35 34 34 33 32 35 36 36 34 32 32 31 33 36 38 38 40 41 41 41 42 43 47 52 56 57 58 55 50 47 45 44 44 42 41 39 39 38 39 39 40 40 40 40 41 41 39 39
37 34 32 33 35 36 33 33 33 29 29 30 29 35 36 37 37 38 40 41 42 43 44 44 47 48 48 47 46 46 46 45 43 41 40 39 38 36 36 37 37 37 38 37 38 37 38 37 36
37 37 37 37 38 34 34 30 31 29 29 30 32 35 36 38 38 39 40 42 43 45 47 45 45 45 45 46 45 43 42 40 39 38 38 36 35 33 29 31 31 32 31 32 32 30 34 35 33
36 40 38 39 37 35 35 30 29 27 26 29 33 35 37 39 39 40 41 43 44 46 46 45 43 42 42 42 41 39 38 38 36 34 33 32 30 29 25 25 26 26 26 28 29 29 30 32 30
39 37 37 35 33 31 31 29 27 26 24 27 33 36 38 39 39 40 42 43 44 46 45 44 41 40 40 39 38 38 36 33 31 30 26 24 22 24 22 22 22 22 24 24 25 26 29 31 28
38 38 36 34 33 29 26 27 27 27 26 29 32 36 37 39 40 40 41 42 43 44 44 41 39 37 36 35 33 32 32 29 26 23 20 18 16 19 19 20 18 18 21 21 22 23 26 28 26
38 36 30 26 27 26 26 26 25 27 29 28 31 36 38 39 39 40 41 42 43 42 41 39 37 36 33 31 28 26 25 23 19 18 16 14 14 14 17 17 16 16 16 17 18 19 21 23 24
40 38 33 27 27 25 26 27 28 28 29 30 31 36 39 39 40 40 41 42 41 40 39 38 37 34 30 26 23 20 17 18 17 15 14 14 13 11 13 15 14 15 15 15 16 14 16 17 20
40 39 33 30 26 23 24 26 25 25 26 29 31 35 38 39 39 40 40 41 39 38 37 36 34 30 26 22 19 16 13 12 13 12 13 13 11 12 13 12 12 12 12 12 13 14 14 15 17
38 39 38 32 28 24 21 23 25 26 27 28 30 34 38 39 39 39 40 40 38 36 35 32 31 28 23 19 15 14 12 11 9 9 10 11 11 11 11 10 10 9 9 10 10 11 12 14 17
37 35 35 32 27 26 24 23 25 27 29 29 31 35 37 39 40 39 40 39 36 34 32 30 29 25 21 16 12 11 11 10 8 8 10 9 9 10 10 10 9 8 9 10 10 11 12 15 16

GFSSGP_sfc_dewp_015.txt.gz
Dewpoint
57 45 40 41 33 29 27 26 36 37 37 34 33 33 34 33 31 35 54 55 55 56 60 67 72 71 70 70 69 67 65 64 62 59 58 57 58 59 59 60 59 60 59 59 61 63 63 63 61
51 42 40 36 25 25 20 26 31 36 34 33 33 33 34 32 34 45 51 55 55 55 60 64 72 71 70 71 69 67 66 64 62 60 58 58 59 59 59 58 58 59 60 60 60 61 62 62 62
47 39 35 33 25 21 27 30 33 32 34 33 34 32 32 33 37 43 52 56 55 56 58 66 72 71 71 70 69 67 66 65 62 60 60 63 63 63 61 59 59 59 59 59 59 59 60 61 61
44 39 34 31 28 23 28 33 29 31 34 34 34 34 33 42 43 50 54 55 55 56 58 70 72 71 71 69 69 68 66 65 64 62 62 62 63 66 62 62 61 59 59 60 60 59 59 59 59
44 37 32 32 31 26 19 25 27 30 33 33 35 35 35 44 49 51 54 54 54 56 59 64 71 70 69 70 69 68 66 64 63 62 61 63 65 65 65 63 62 60 59 60 59 60 60 61 60
41 37 31 29 31 32 27 26 27 30 33 33 33 34 39 46 50 53 55 54 55 57 59 61 69 70 70 70 69 67 66 64 63 61 62 63 64 65 65 65 63 61 61 61 59 60 61 64 63
41 37 34 30 30 32 32 24 27 30 31 33 34 33 38 42 49 54 55 54 56 58 59 59 62 66 71 71 70 68 67 66 64 63 62 64 64 63 64 63 62 62 63 63 62 62 63 63 63
43 39 35 33 31 31 34 29 26 32 32 34 34 33 36 43 47 53 55 55 56 59 59 59 60 63 66 65 69 69 69 68 67 67 66 65 65 63 62 63 63 63 63 63 63 62 62 63 63
44 37 34 33 32 32 33 32 33 37 36 34 33 34 37 40 47 51 53 55 55 58 59 59 59 61 62 62 66 68 68 67 66 65 65 64 56 57 59 62 63 62 62 62 63 63 63 64 65
42 37 34 33 33 33 33 35 37 38 36 35 34 33 36 36 36 40 44 48 52 54 56 58 59 60 62 61 63 63 62 62 62 61 59 58 54 54 57 61 62 63 63 63 63 63 64 63 58
43 38 36 35 35 36 35 36 37 38 38 37 34 35 36 37 36 35 38 42 47 51 53 57 59 60 61 61 61 61 60 60 59 58 58 57 55 54 55 56 57 58 60 59 58 59 59 56 56
41 39 38 38 37 38 37 37 37 38 39 39 41 41 40 38 33 34 34 37 46 50 52 54 56 60 60 61 61 60 60 60 59 59 58 57 56 56 55 55 56 57 56 56 57 57 57 57 57
42 39 38 39 38 38 39 38 37 38 40 40 40 40 40 39 36 34 35 43 46 49 52 54 55 58 60 61 60 60 59 60 59 60 59 58 58 57 57 56 57 57 57 57 57 57 57 57 57
43 41 40 38 39 39 38 38 38 38 40 38 38 38 37 38 37 37 41 44 47 49 51 53 54 55 57 60 61 60 60 59 60 60 60 60 59 59 59 59 58 58 58 58 58 58 58 57 57
42 40 40 39 39 38 39 38 37 38 38 36 29 29 32 36 39 39 42 43 43 44 45 45 47 50 55 58 60 60 60 60 60 60 59 59 59 60 60 59 59 59 59 58 58 58 58 56 55
40 43 40 39 38 38 39 36 35 35 34 30 29 29 35 38 38 41 42 43 45 45 47 50 49 46 52 57 60 59 59 59 60 59 59 59 58 59 59 59 59 59 59 59 56 54 53 53 52
41 38 38 40 37 36 38 36 34 34 31 30 29 29 34 37 39 41 42 43 44 47 49 51 52 52 54 57 58 58 58 58 58 58 59 59 58 58 59 56 51 50 51 48 46 45 46 46 45
37 37 35 37 35 38 36 35 35 35 32 32 30 28 33 36 38 41 42 44 46 49 51 54 54 55 56 57 57 58 58 54 50 48 46 45 44 44 46 44 42 42 43 42 42 40 42 42 41
35 36 34 34 34 35 35 34 34 33 33 33 32 29 33 36 39 41 42 43 45 49 52 54 54 56 56 57 56 53 50 47 45 44 42 41 40 40 41 40 39 40 40 40 39 39 40 41 40
42 35 33 33 34 34 33 33 33 34 35 35 31 30 33 37 37 40 41 41 41 44 49 53 55 57 56 53 52 49 47 45 44 43 41 38 36 36 36 37 37 37 38 37 36 37 36 36 36
39 36 31 31 34 34 34 34 35 36 36 33 31 31 34 36 36 38 40 41 42 43 46 47 48 48 49 49 48 47 47 46 42 40 39 37 34 30 30 31 30 32 33 34 34 33 35 33 34
40 37 33 33 35 32 35 27 29 30 29 30 29 31 35 36 36 38 40 42 44 46 47 46 46 46 46 46 45 44 41 38 38 37 36 34 33 28 25 25 26 27 28 29 30 26 30 33 32
41 37 35 37 36 37 36 33 29 30 28 29 30 33 36 37 38 39 41 43 45 47 46 44 43 42 42 42 41 39 37 36 35 34 31 29 27 26 23 22 23 23 24 26 26 28 27 31 29
44 37 38 37 35 31 31 31 26 28 27 27 30 34 36 37 38 40 42 44 45 46 45 44 40 39 39 39 37 37 36 34 32 30 26 24 22 23 21 20 20 20 22 23 25 27 29 28 29
45 39 35 33 34 26 29 29 28 25 26 27 31 34 36 38 39 40 41 42 44 44 43 40 38 36 35 35 34 33 33 30 27 24 22 19 18 18 18 19 17 17 21 22 23 24 26 24 26
41 38 28 24 25 25 27 26 26 27 28 29 32 35 37 38 39 40 41 43 43 43 40 38 36 34 32 31 29 27 27 25 22 20 18 16 15 14 15 16 15 14 15 16 18 21 22 22 24
39 36 33 29 27 25 27 28 27 27 29 28 31 35 37 38 39 40 41 42 42 41 39 38 35 32 30 28 25 23 21 20 19 17 16 16 13 9 12 14 13 13 13 13 15 15 17 18 20
40 39 32 30 25 23 24 24 25 26 27 28 29 35 37 38 39 40 41 41 40 39 38 37 33 30 27 25 22 20 17 15 15 15 13 12 11 11 12 11 10 11 10 11 13 15 16 15 17
41 39 36 31 28 24 22 23 27 25 26 28 30 34 37 38 39 39 40 40 39 38 37 34 31 28 25 23 20 18 15 14 12 11 10 9 9 9 9 9 9 9 9 10 11 12 13 13 16
39 39 35 30 27 27 25 23 25 27 29 29 30 34 37 39 39 39 40 40 38 37 35 33 31 27 25 21 17 16 15 14 12 10 9 8 8 8 9 9 9 9 10 11 10 11 11 12 15

GFSSGP_sfc_dewp_018.txt.gz
Dewpoint
61 50 44 47 40 36 32 28 29 38 38 34 34 33 33 34 34 41 54 54 56 60 67 70 73 72 71 71 70 67 66 63 62 59 59 58 59 61 61 61 61 61 61 61 61 62 63 64 63
58 52 46 44 32 28 26 24 33 36 34 34 34 34 34 34 44 50 54 55 56 60 65 66 73 71 71 71 69 68 66 64 62 59 59 58 60 60 59 59 60 60 60 60 60 60 61 62 62
55 45 42 41 34 24 26 33 32 30 32 35 34 35 33 38 46 50 55 55 55 56 62 70 73 72 71 70 69 67 67 64 62 60 60 62 62 63 61 60 61 60 60 59 59 59 59 60 60
48 45 39 33 31 32 25 28 30 29 33 35 35 34 40 47 48 52 54 54 55 56 68 72 72 72 72 71 69 68 67 66 65 62 62 61 63 65 63 62 61 60 60 60 59 59 59 60 59
47 44 36 34 33 32 23 22 28 29 32 34 34 35 41 47 50 53 53 54 55 57 67 71 73 71 71 71 70 68 67 65 65 62 61 62 64 65 66 64 62 61 60 60 57 58 58 60 61
44 42 35 32 31 31 30 25 29 27 31 34 34 33 43 49 52 54 54 53 55 58 62 68 71 71 71 71 69 68 67 65 64 62 61 62 64 65 65 65 63 62 61 61 60 59 61 62 63
44 41 36 34 31 30 35 25 25 28 31 32 35 33 42 44 52 55 54 54 56 58 59 62 66 70 72 71 70 69 68 67 66 64 62 64 63 62 64 66 64 63 63 62 63 62 62 63 63
46 42 36 35 34 34 33 32 30 29 32 36 34 33 38 44 50 54 56 54 56 58 59 60 62 65 68 68 70 69 69 68 67 67 66 65 64 64 65 66 65 63 63 63 62 62 62 62 63
48 41 37 36 35 34 34 33 34 36 36 36 35 33 39 43 49 51 53 55 55 58 59 59 60 63 66 64 67 69 68 68 67 66 65 64 60 58 61 63 64 63 62 62 62 63 63 64 65
45 41 38 36 35 33 34 35 36 37 37 35 36 36 36 37 38 40 48 52 54 56 57 59 59 60 61 62 66 65 64 65 63 62 62 62 59 57 58 61 62 63 64 64 63 63 65 64 61
45 42 40 36 35 35 36 36 36 36 37 38 37 39 41 40 39 36 37 41 50 53 56 57 59 59 61 61 65 63 63 63 62 61 58 58 54 55 57 58 59 60 62 61 61 62 62 60 59
43 43 41 41 39 38 37 38 37 37 38 40 40 41 41 40 39 36 35 35 44 51 53 56 57 60 60 62 61 61 60 60 60 59 58 57 57 56 55 55 56 56 57 57 57 57 57 57 57
44 44 41 39 39 38 38 38 38 38 38 39 40 40 41 40 40 38 36 43 44 50 52 53 56 59 60 61 61 61 60 60 60 60 59 58 58 57 58 57 58 58 58 58 58 58 58 58 58
43 44 44 42 38 38 38 38 38 38 38 38 39 39 38 39 39 38 38 42 48 50 52 53 54 56 60 61 60 60 60 60 60 60 60 59 59 59 60 59 60 59 59 59 58 58 58 58 57
40 40 42 42 40 38 38 37 37 39 39 37 37 36 32 36 39 39 42 43 43 45 45 46 47 53 56 59 61 61 60 60 60 60 59 59 59 59 59 60 60 59 59 59 59 57 56 55 54
43 40 39 41 41 39 38 35 38 38 37 36 35 29 35 38 39 40 42 43 44 46 47 50 49 46 52 58 60 60 60 60 60 59 59 59 59 59 59 58 53 53 55 52 47 47 46 47 46
41 37 37 39 41 39 37 35 38 38 36 34 32 29 34 38 38 41 42 48 45 48 50 51 50 47 54 58 59 58 58 58 55 54 49 45 46 47 48 46 44 44 46 44 43 42 43 42 42
35 38 37 39 40 39 38 35 37 37 34 31 31 30 34 38 38 41 42 47 48 50 53 54 55 56 57 57 57 53 49 47 46 45 43 42 42 42 44 43 41 42 43 42 40 39 40 41 40
35 35 37 36 38 37 36 35 36 36 35 35 34 32 33 37 40 41 43 45 49 53 53 55 55 56 57 58 54 50 48 46 44 43 40 38 38 39 39 40 39 39 39 38 35 36 35 35 36
37 37 37 38 37 36 35 35 35 34 34 34 34 33 33 38 39 41 42 43 47 51 53 55 55 53 52 52 50 49 46 45 44 42 39 35 33 32 31 33 33 32 35 33 32 32 34 34 34
33 38 38 39 38 35 34 33 33 33 33 34 36 35 35 37 38 39 41 42 44 47 48 48 49 49 49 48 46 45 46 45 42 41 38 35 30 28 28 28 28 29 31 32 30 30 30 32 32
32 36 39 40 40 35 33 28 31 32 34 35 35 31 36 37 38 39 41 43 45 46 47 47 47 47 48 47 46 44 41 39 39 37 36 33 29 25 25 25 25 26 29 27 27 26 28 30 31
35 39 40 41 41 39 37 32 32 31 33 33 30 30 36 37 38 40 43 45 46 46 45 44 43 42 42 41 40 40 38 37 36 34 30 27 27 24 23 23 23 23 27 25 25 25 26 29 28
37 38 42 42 40 35 34 33 30 29 29 29 30 33 36 36 38 41 44 45 46 46 44 41 39 39 39 38 37 36 34 33 31 27 26 25 25 26 22 21 20 21 22 23 25 23 24 25 25
37 37 33 34 34 29 30 30 30 25 27 29 30 34 36 38 39 42 43 44 44 43 42 39 38 36 35 34 33 32 30 27 24 23 22 20 20 21 18 19 17 19 19 21 21 22 22 23 23
37 36 33 28 28 26 28 28 29 28 28 31 33 35 37 38 40 41 42 44 44 42 39 37 35 33 31 29 27 26 26 25 23 20 20 17 17 16 16 16 16 15 16 17 17 20 21 18 22
38 33 39 33 24 26 27 28 26 28 28 30 33 36 37 38 40 40 42 43 43 40 38 36 33 31 29 27 23 21 20 19 19 17 17 17 14 11 13 14 13 13 14 14 15 16 16 16 17
43 41 37 34 25 25 27 26 26 27 28 28 33 35 37 38 39 40 42 42 41 40 38 35 31 29 26 24 21 18 16 15 15 14 12 12 11 12 12 12 12 12 12 13 13 16 17 14 16
39 40 40 35 30 27 24 24 28 27 29 29 31 35 37 38 39 40 41 41 39 38 37 32 29 26 25 23 20 17 15 15 13 11 10 9 10 10 10 11 11 11 12 12 12 13 13 12 14
40 39 37 30 29 30 27 24 27 28 29 30 30 36 38 38 39 40 40 39 38 37 35 31 29 26 24 20 17 17 16 14 11 10 10 10 9 10 10 12 12 12 13 13 12 12 13 13 15

GFSSGP_sfc_dewp_021.txt.gz
Dewpoint
65 57 52 42 33 33 31 31 27 34 34 34 34 33 32 34 35 41 53 60 67 68 71 72 73 72 71 71 69 68 66 64 62 61 59 60 61 62 61 61 61 61 61 60 60 61 63 63 62
64 57 44 39 27 24 27 28 30 30 33 34 34 34 33 37 48 52 53 57 66 69 70 71 73 72 71 71 69 67 66 64 62 60 59 60 60 62 61 60 61 60 60 60 59 59 60 61 61
59 53 39 36 32 25 24 32 29 29 31 35 34 35 37 43 50 52 54 56 65 67 67 70 73 72 71 71 69 68 66 64 63 62 61 63 63 63 60 60 61 60 60 59 59 59 58 58 58
48 43 38 31 30 31 29 23 31 29 31 34 35 34 45 48 50 54 54 55 58 65 66 72 73 73 73 71 69 68 67 65 64 63 62 61 63 64 64 63 62 61 61 60 59 59 59 59 60
46 42 35 34 32 33 31 21 28 27 31 34 35 35 43 49 53 54 54 55 63 67 70 71 73 72 72 70 69 68 67 66 66 63 62 62 64 66 66 64 63 62 61 60 58 57 58 59 62
44 41 35 32 33 33 32 27 27 28 28 32 34 34 44 52 53 54 53 54 66 67 69 70 72 72 72 71 70 68 67 66 65 63 62 62 63 64 67 65 64 62 62 62 61 60 60 62 63
44 41 36 34 33 34 34 25 24 28 32 33 34 34 42 49 52 54 53 55 60 64 68 69 70 70 71 71 70 70 68 67 66 64 63 65 63 63 64 67 65 63 63 63 63 63 62 61 62
46 42 39 37 35 35 36 31 29 28 31 36 35 34 39 45 52 55 54 55 58 61 63 67 68 69 70 69 70 69 69 68 67 66 65 64 64 64 65 67 67 64 63 63 63 62 62 63 63
51 42 40 39 36 35 37 32 35 35 36 37 36 34 40 47 52 53 53 54 57 58 60 62 64 66 69 68 69 69 68 68 67 66 65 64 61 59 62 64 64 66 63 62 63 63 63 65 65
48 43 41 40 38 36 36 34 35 36 38 37 37 39 39 47 49 51 52 53 54 57 58 60 63 63 67 66 67 67 66 66 65 64 63 63 61 57 58 61 64 64 64 65 63 64 66 65 62
48 45 43 41 40 38 36 36 37 37 36 38 38 38 41 40 39 38 41 52 54 56 58 59 59 62 64 64 66 65 64 64 63 62 61 62 60 57 57 58 59 58 60 60 60 60 62 61 61
46 47 46 45 44 42 38 37 37 37 37 39 39 40 41 40 41 39 37 36 47 53 56 58 59 59 61 64 64 64 63 63 62 61 59 58 56 55 55 55 56 57 57 58 58 57 57 57 58
44 44 45 45 43 42 40 38 37 38 39 39 39 39 40 41 41 40 37 41 44 51 54 56 58 59 60 61 61 61 61 60 59 59 58 58 58 57 58 58 58 58 58 58 58 58 58 58 58
41 42 43 45 45 43 39 38 39 39 39 39 39 39 40 40 40 38 39 39 44 49 52 55 56 59 60 61 61 60 60 60 60 60 59 59 59 59 59 59 60 59 59 59 58 55 55 54 53
44 41 40 40 44 44 43 38 37 38 39 38 38 38 38 36 39 39 42 43 43 46 46 51 54 57 60 60 60 60 60 60 60 60 59 59 59 59 59 58 54 55 51 45 45 43 45 43 43
41 42 37 39 41 43 41 38 39 39 38 38 38 37 35 38 39 41 42 43 44 45 48 49 48 47 58 60 60 60 60 59 59 57 49 45 48 55 50 44 43 45 44 43 42 42 42 41 41
40 35 37 38 41 41 40 38 39 39 38 37 36 36 35 38 40 41 42 44 45 48 50 51 49 45 56 59 56 51 48 46 45 44 43 41 42 43 43 42 41 42 43 41 39 39 39 38 38
30 35 37 37 38 40 40 39 39 38 38 37 36 32 35 38 40 41 43 45 48 52 52 53 53 56 57 51 48 45 44 43 42 40 38 39 39 38 40 39 37 38 39 36 34 34 33 35 35
35 35 35 37 39 39 38 39 39 39 37 36 33 32 35 38 41 42 44 48 51 53 54 55 56 56 56 51 47 44 44 41 39 37 34 33 34 33 33 35 33 34 35 31 30 33 32 33 33
36 35 35 36 38 39 38 38 38 38 37 36 36 35 37 39 40 42 44 48 51 52 52 53 52 52 52 50 48 47 43 42 40 38 32 29 28 29 27 29 30 29 32 28 28 29 30 32 32
35 35 34 33 37 39 39 37 36 36 37 36 36 36 38 39 40 40 43 46 47 47 48 49 49 48 47 45 44 43 44 42 40 37 34 28 25 26 26 25 26 27 30 28 26 27 27 29 31
30 33 33 32 36 34 40 34 35 35 33 33 33 35 38 39 40 41 43 45 45 46 47 47 48 47 46 45 44 42 40 38 37 37 33 28 23 23 24 24 24 25 27 24 25 24 26 27 27
30 34 33 33 34 36 38 37 34 33 32 33 33 34 37 39 39 41 44 45 46 44 42 41 41 42 42 41 40 39 37 36 35 31 27 25 23 22 22 21 21 21 25 22 22 22 23 26 25
35 34 33 36 36 32 34 38 31 31 31 32 33 36 37 38 40 43 45 45 44 42 40 39 38 37 37 37 37 35 32 29 26 24 24 24 24 23 20 19 19 19 20 21 22 21 20 21 23
36 32 25 26 28 27 34 35 36 30 30 33 30 36 37 39 42 44 44 43 43 40 39 37 36 34 33 31 30 27 24 22 21 22 20 18 18 19 16 17 16 17 17 19 19 19 19 19 19
34 30 25 19 24 27 37 35 32 34 30 32 34 36 37 41 43 44 44 43 41 39 37 34 32 31 28 27 26 24 23 23 21 19 18 16 16 15 14 14 14 13 14 15 16 19 19 16 19
33 30 30 33 35 31 34 29 26 29 31 34 35 36 38 40 42 43 43 43 41 38 35 33 31 29 26 24 21 19 19 18 17 15 15 16 13 11 12 12 12 12 13 14 14 16 15 16 17
35 34 30 32 28 27 28 25 25 27 30 34 35 36 38 40 41 43 43 42 40 37 34 32 29 27 24 21 17 16 15 15 14 13 10 10 11 11 11 11 11 12 13 13 13 15 17 15 16
36 35 34 35 32 29 25 26 27 27 29 33 35 36 38 39 40 42 42 41 39 36 33 30 27 24 22 20 16 15 15 13 11 10 9 9 10 10 11 11 12 13 13 13 13 13 13 14 16
35 35 34 30 33 33 25 23 28 29 29 33 35 37 38 39 40 42 41 39 37 35 31 27 26 24 21 18 17 16 15 12 10 10 10 11 10 11 12 13 14 14 15 15 14 13 14 15 17

GFSSGP_sfc_dewp_024.txt.gz
Dewpoint
66 60 53 41 30 33 30 31 27 29 33 34 34 33 33 36 34 37 55 63 67 70 72 72 73 73 71 71 68 67 65 63 62 61 61 63 63 63 62 61 61 60 60 59 60 61 62 63 61
67 58 44 39 26 23 26 27 31 30 31 33 34 33 34 42 50 52 56 66 68 70 71 71 73 72 71 71 69 67 66 64 62 61 60 61 62 62 61 62 60 59 59 59 59 58 60 61 61
56 54 40 35 31 26 23 29 29 31 31 34 35 37 41 44 52 52 56 66 68 69 71 71 73 73 72 71 69 67 66 65 62 62 62 62 62 63 63 62 61 60 60 59 59 58 58 58 58
50 44 38 32 30 31 28 31 29 28 29 34 35 38 45 48 49 54 58 65 67 68 68 72 73 73 73 71 68 67 66 65 63 63 63 63 64 65 61 63 62 62 61 60 59 59 59 60 60
46 41 36 33 32 32 33 32 27 27 31 33 34 36 44 50 54 54 56 63 64 65 67 71 73 73 72 70 69 68 67 66 65 63 63 63 64 66 67 64 63 62 61 60 58 57 58 59 61
46 40 35 32 31 32 34 33 26 27 30 32 33 40 44 51 53 53 54 61 65 67 69 71 72 73 72 70 69 68 68 67 66 63 63 64 63 64 67 65 64 63 62 62 62 61 61 61 63
46 40 36 35 33 34 34 36 25 27 31 33 35 39 44 50 52 54 54 63 67 68 69 69 70 71 71 71 70 70 68 67 66 64 64 65 64 63 66 66 65 63 63 63 63 63 62 62 62
47 43 39 37 36 36 37 35 27 27 28 36 34 39 42 44 52 54 55 62 65 67 68 68 68 69 70 70 70 70 69 68 68 67 66 66 65 64 66 68 68 65 64 64 64 62 62 63 63
50 43 40 39 37 36 37 36 35 34 34 37 36 35 38 46 53 53 54 56 60 63 66 68 68 68 69 69 68 69 69 68 67 66 65 63 61 59 61 65 65 67 65 64 63 63 63 65 65
49 45 43 42 40 38 39 36 35 36 37 37 38 39 45 49 52 53 53 54 56 59 61 65 66 67 68 68 68 67 67 66 65 64 63 63 61 59 57 61 64 65 66 65 64 64 66 65 63
49 46 44 43 42 41 39 37 36 35 35 36 37 38 40 44 48 51 52 53 54 57 59 61 63 64 66 66 66 66 65 65 64 63 62 61 61 60 59 59 60 60 60 59 60 59 58 60 60
44 47 47 47 46 45 43 39 39 36 36 38 39 40 40 40 41 41 41 44 52 54 58 59 61 63 65 65 65 65 64 63 63 62 61 61 59 55 55 56 56 57 58 57 57 57 57 58 58
42 44 45 47 47 46 45 43 40 38 38 39 39 40 39 39 40 41 41 37 39 52 56 58 59 61 63 65 65 64 63 63 62 61 60 58 57 57 57 58 58 58 58 58 58 56 52 48 49
40 41 42 43 43 45 44 44 39 39 39 39 39 39 39 39 40 40 40 37 44 51 54 57 59 59 61 63 62 62 62 62 60 59 59 59 59 59 59 58 57 55 51 46 43 44 44 43 43
42 41 42 40 40 42 44 43 43 41 39 38 38 38 39 39 39 39 39 41 45 48 52 56 57 59 60 61 61 61 60 60 60 59 59 59 59 59 51 45 46 46 43 42 41 41 40 39 39
40 39 36 37 39 41 43 40 42 41 38 38 38 38 39 39 38 40 43 43 44 46 47 49 52 58 59 60 60 60 59 58 51 46 45 45 45 45 43 42 43 42 40 39 38 38 36 36 36
37 32 34 37 39 40 41 38 41 41 39 38 38 38 37 37 38 41 42 44 44 46 50 49 47 54 59 55 51 48 46 45 43 42 41 40 41 41 39 39 39 39 36 35 35 33 34 34 32
30 31 33 34 38 39 38 39 41 41 38 38 38 38 35 37 40 41 43 44 49 50 51 51 48 57 50 47 45 43 41 40 39 38 37 36 35 36 36 33 34 35 33 31 31 30 30 33 31
33 32 33 35 37 38 38 37 38 40 40 39 38 36 33 37 40 41 44 48 52 53 54 55 56 51 48 47 44 43 41 37 34 32 31 31 30 30 31 32 31 33 30 28 27 29 30 30 31
36 34 32 34 34 36 37 38 39 39 39 39 39 38 33 39 40 43 47 51 53 54 54 55 56 52 50 47 45 42 40 38 35 31 27 27 27 27 26 28 28 29 28 25 25 27 28 30 31
35 35 32 32 34 33 32 31 36 38 40 39 39 38 36 39 40 43 48 49 50 51 51 51 50 48 46 43 41 40 38 38 35 31 28 25 24 26 25 25 25 26 27 26 25 25 25 27 28
31 35 35 34 32 28 36 28 32 36 37 38 38 37 37 40 41 43 47 47 48 48 48 48 47 45 44 43 40 37 36 35 36 33 27 23 22 23 23 23 23 23 25 22 23 23 24 24 23
31 33 31 33 33 32 30 31 31 35 35 37 37 36 36 40 41 44 46 46 46 45 45 45 45 45 44 43 40 39 36 36 34 29 24 20 20 21 21 20 20 20 23 21 20 20 19 23 23
35 33 32 32 32 27 25 30 29 34 35 35 37 34 36 39 41 44 45 44 42 41 40 41 41 40 40 39 37 35 32 29 27 25 25 23 22 22 18 18 17 17 18 19 20 19 18 19 19
32 31 24 24 23 20 23 27 27 34 36 34 34 34 37 39 42 44 43 41 39 38 37 37 37 35 34 33 31 28 25 22 21 21 20 18 17 18 15 16 14 15 16 18 18 18 17 18 17
32 30 23 15 18 16 31 28 30 35 34 34 35 35 38 40 43 43 42 41 38 36 35 34 32 30 29 27 24 22 22 23 21 18 17 16 15 15 14 13 12 12 14 15 15 18 18 16 18
32 30 29 24 27 27 30 33 35 37 31 33 34 36 38 41 43 43 42 40 37 35 33 31 29 27 25 23 21 20 19 19 17 15 15 15 13 11 11 11 12 12 13 14 14 15 15 15 16
32 32 28 29 19 18 28 30 29 31 31 34 35 36 40 42 43 42 41 39 37 34 32 29 27 24 22 19 18 17 16 14 13 12 10 10 10 11 11 12 12 13 14 14 14 16 16 15 16
34 32 32 27 27 23 22 29 31 29 31 34 37 38 40 42 43 42 41 39 36 33 30 28 25 22 18 17 15 15 14 12 11 10 9 9 10 11 11 13 13 14 14 14 14 14 14 14 15
36 32 32 25 22 32 31 27 29 29 33 35 37 38 40 42 43 42 41 38 34 31 29 26 24 21 18 16 15 15 13 11 10 10 10 11 10 11 12 14 14 15 16 16 15 15 15 14 16

GFSSGP_sfc_dewp_027.txt.gz
Dewpoint
67 64 48 39 31 32 29 30 29 29 32 34 34 33 34 38 34 35 55 63 67 68 72 72 74 73 71 70 68 67 65 63 62 62 64 65 62 62 62 62 60 60 59 58 60 62 63 63 62
63 56 43 38 29 21 24 28 31 30 31 32 35 34 36 43 50 53 58 65 69 71 72 71 74 73 71 70 69 67 65 63 62 61 62 63 63 62 62 61 60 59 58 58 59 59 60 61 62
56 49 38 34 30 27 23 27 29 30 30 35 35 41 42 46 52 53 56 67 70 70 71 71 74 73 72 71 69 67 66 63 62 61 61 61 62 63 62 62 60 60 59 59 59 58 58 57 58
49 44 38 33 30 32 25 29 33 29 28 34 35 39 45 48 50 53 64 67 68 69 70 72 73 73 73 71 69 67 66 65 63 62 63 63 61 64 63 63 62 62 61 60 59 59 59 59 60
46 41 36 33 33 32 32 33 31 27 28 33 33 37 45 49 53 58 65 67 67 67 68 71 73 73 72 70 69 68 66 65 63 63 63 63 64 66 64 64 63 63 62 60 59 58 58 59 60
46 40 35 32 31 33 33 34 31 27 27 33 33 42 44 50 53 56 63 64 65 67 68 71 72 72 73 71 69 68 67 66 65 63 63 64 64 64 67 65 64 63 62 61 61 61 61 61 62
45 39 36 34 32 33 34 35 34 30 29 33 34 40 44 47 52 54 58 64 65 66 68 70 71 72 71 70 70 70 68 67 67 64 64 65 65 64 67 66 65 64 63 63 63 63 62 62 62
47 43 38 37 34 34 37 37 32 28 26 35 37 39 41 44 51 53 56 65 66 68 68 69 69 71 69 69 70 70 69 68 68 66 66 66 65 64 65 68 67 65 64 64 64 64 62 62 63
48 42 40 38 37 36 38 36 37 36 33 36 36 39 39 47 54 53 57 61 63 66 67 68 68 69 69 69 69 69 69 68 67 66 65 64 61 60 61 65 67 68 65 65 64 63 64 66 65
48 44 41 42 40 38 38 37 36 35 36 37 37 40 48 52 53 53 54 58 60 63 64 67 67 67 68 69 67 67 67 66 65 64 62 62 60 59 57 61 65 65 65 66 64 64 65 65 62
48 44 44 44 43 42 41 39 39 37 35 36 36 38 43 48 51 53 53 54 58 60 62 65 66 66 67 67 66 66 65 65 64 62 62 61 61 60 59 58 58 60 60 58 59 58 58 57 58
42 45 47 48 47 46 44 42 40 38 37 38 38 40 40 41 47 49 51 52 53 56 59 61 63 64 66 66 66 66 65 64 63 63 62 61 60 57 56 57 56 57 57 57 57 57 57 50 47
42 43 44 45 47 47 47 45 43 42 41 40 39 40 39 39 40 41 42 42 44 52 56 59 61 62 64 65 65 64 64 63 63 62 62 61 59 55 56 57 58 58 58 55 47 46 44 42 42
40 40 41 42 43 44 44 44 44 42 41 39 39 39 39 39 39 40 40 41 40 39 52 58 60 62 63 65 64 64 63 63 62 61 60 58 58 59 58 53 48 45 44 43 42 41 39 38 38
41 39 40 41 40 40 43 40 41 44 45 41 40 39 39 39 40 39 39 39 39 44 50 57 59 60 62 64 64 63 62 61 60 59 59 60 58 48 45 45 44 42 41 39 37 35 35 34 32
39 37 34 36 40 40 40 35 41 43 43 41 39 38 39 39 40 39 39 41 42 46 50 55 58 59 61 62 61 60 60 55 49 48 47 46 44 43 43 42 41 38 36 35 33 32 32 30 30
37 31 32 35 39 39 40 36 38 42 42 41 40 39 39 39 38 38 41 43 44 46 48 52 56 59 60 56 52 50 47 45 43 42 42 40 39 38 38 38 37 33 32 31 31 30 32 29 28
30 32 31 33 36 38 37 36 38 40 41 40 39 39 39 38 38 39 42 43 45 47 49 48 54 57 51 47 44 43 41 39 39 38 36 35 34 33 33 33 32 30 29 29 27 27 28 32 29
35 32 31 34 36 35 35 36 38 39 39 39 40 40 40 38 37 41 42 45 50 51 51 49 54 49 48 46 44 42 39 35 33 31 30 29 29 29 29 31 30 29 26 25 25 27 27 28 30
35 34 32 33 34 33 33 32 33 33 34 39 39 40 40 37 39 41 43 49 52 52 54 55 51 49 48 46 43 40 37 33 30 29 26 26 26 26 26 28 27 26 25 24 24 25 25 26 29
33 32 29 30 31 33 32 29 26 28 33 38 40 40 39 38 38 41 45 50 51 52 53 53 50 48 45 42 38 35 32 30 28 26 25 24 24 25 25 24 25 24 25 24 23 24 22 23 24
29 33 34 33 33 27 32 23 25 28 30 33 37 40 39 37 38 41 48 49 51 51 51 49 48 44 42 41 38 36 33 30 32 28 24 22 22 22 23 22 22 23 24 21 21 21 22 22 22
30 33 34 34 31 29 28 27 25 29 28 32 38 39 39 38 40 43 48 49 50 49 48 47 45 44 42 40 38 36 35 33 30 24 20 19 20 20 20 20 19 20 22 19 18 18 18 22 21
34 32 33 33 31 24 24 26 21 19 24 34 37 38 38 38 40 44 47 46 45 45 45 45 44 43 41 39 37 35 32 28 25 24 23 21 20 21 18 17 17 16 18 18 19 17 16 17 17
33 32 25 23 23 19 22 23 23 23 31 35 35 36 37 38 42 45 45 44 43 43 42 42 42 39 37 36 34 32 29 26 24 23 22 18 17 17 15 14 13 15 15 17 17 17 16 17 16
32 31 25 16 16 17 21 22 21 26 26 25 26 32 36 39 43 45 45 43 42 40 40 40 38 34 32 30 27 24 23 24 22 20 18 16 15 15 13 13 12 12 14 15 15 18 17 16 17
34 30 31 26 23 23 26 26 30 25 34 35 34 35 37 39 43 45 43 40 39 37 36 36 33 29 27 24 22 21 20 19 18 15 15 15 14 12 11 11 12 13 14 14 14 15 15 15 16
33 31 28 30 18 14 15 21 28 27 25 24 28 35 37 40 43 43 41 38 36 34 31 30 29 26 23 20 19 18 16 15 14 13 11 11 10 11 11 12 13 14 14 15 15 16 17 15 16
33 31 31 28 24 15 15 13 16 27 28 28 34 37 39 42 42 41 39 37 34 31 29 26 24 21 19 18 16 15 14 12 10 10 10 10 11 11 12 13 14 14 15 15 15 15 15 15 16
31 29 30 24 21 23 22 21 29 30 30 33 37 40 43 43 42 40 38 35 32 30 27 24 21 19 17 16 14 14 13 11 10 10 10 11 10 12 13 14 15 15 16 16 15 15 15 15 15

GFSSGP_sfc_dewp_030.txt.gz
Dewpoint
64 59 44 38 31 30 27 27 35 28 32 33 33 33 33 35 36 36 54 63 65 66 70 71 73 73 71 69 68 67 65 65 63 62 64 67 65 62 61 61 60 60 58 59 61 64 64 64 63
61 54 41 37 30 24 24 29 29 31 31 31 34 36 36 41 50 52 58 63 67 68 71 71 73 73 71 70 68 67 65 63 62 62 65 63 62 62 61 60 59 59 59 59 59 59 61 62 61
55 44 37 34 30 27 25 25 29 32 31 32 35 40 41 45 52 53 57 66 69 70 71 71 74 73 72 70 69 67 65 63 62 61 62 63 62 62 62 61 60 61 59 59 59 58 58 58 58
49 43 38 32 30 31 26 25 33 31 29 33 37 40 45 48 51 53 63 68 69 69 70 72 74 73 73 71 69 68 66 63 62 61 62 62 63 63 63 63 61 62 60 60 59 58 59 59 60
45 41 35 33 32 32 32 33 33 31 28 29 33 36 44 49 54 62 66 68 67 68 69 71 74 73 72 70 69 68 66 65 63 63 63 64 62 64 64 64 63 63 61 60 59 58 58 59 60
45 40 35 32 32 33 33 34 34 29 27 29 34 42 44 49 54 62 66 65 67 68 69 71 72 73 73 71 70 68 67 66 64 63 63 64 64 64 67 65 64 63 62 61 61 61 62 62 61
44 39 36 33 32 32 33 34 32 33 29 30 35 39 45 46 53 59 64 64 65 67 68 70 71 71 72 71 70 70 68 67 66 64 64 65 66 64 67 66 65 64 63 62 63 63 63 62 62
47 41 37 36 34 34 35 37 35 27 26 34 38 38 43 43 53 55 60 64 64 66 67 68 69 70 70 69 70 70 69 69 68 67 66 66 65 64 64 67 67 65 64 64 64 64 63 63 63
47 42 39 38 36 36 38 36 38 37 33 36 36 39 39 48 54 56 59 63 64 66 66 67 68 69 68 68 69 69 69 68 67 66 65 64 62 61 61 64 67 67 66 65 64 64 64 66 65
48 43 40 41 39 38 38 39 38 38 38 36 37 39 48 52 53 53 56 59 62 64 65 67 67 67 67 69 67 67 67 66 65 64 62 61 59 58 58 60 63 65 65 65 64 63 62 59 59
46 43 43 44 44 44 42 40 40 38 38 37 37 38 42 51 53 52 53 57 60 61 64 66 66 66 67 68 66 66 65 65 64 62 61 61 61 59 58 58 57 59 60 58 58 57 57 56 54
40 45 46 47 47 47 45 44 43 39 38 38 40 39 39 40 50 52 52 53 54 58 62 64 66 66 66 66 66 66 65 64 63 62 61 60 60 58 56 57 56 57 57 56 57 54 45 43 41
41 43 44 43 43 46 47 46 46 44 44 44 43 41 40 39 39 42 47 47 50 53 57 61 64 65 66 66 66 65 65 64 63 63 62 61 60 56 56 57 58 57 53 45 44 42 39 37 36
40 40 40 41 41 41 42 42 44 44 45 43 41 41 41 40 40 39 40 40 41 42 45 57 62 63 65 65 65 65 64 63 63 62 62 61 58 58 58 49 45 43 42 41 39 36 35 31 30
41 39 39 40 40 39 41 39 40 41 44 44 44 43 42 41 40 40 40 40 40 40 41 53 59 62 63 64 64 64 64 63 62 60 59 59 59 50 47 45 41 39 38 34 31 30 32 27 26
39 38 33 36 39 39 40 34 37 40 41 43 44 43 41 41 40 40 40 40 40 40 45 52 58 61 62 63 64 62 62 60 55 55 57 50 46 45 43 40 37 33 32 32 30 29 30 26 26
38 32 32 34 37 38 40 36 40 40 41 41 42 41 40 40 40 40 40 40 41 43 46 52 58 60 62 61 59 54 50 48 46 45 43 41 40 40 38 35 32 30 29 28 28 27 31 26 24
28 30 29 31 35 36 35 35 36 38 38 38 40 41 40 40 40 40 39 41 43 45 48 52 58 59 55 50 46 44 42 42 43 38 37 34 33 33 33 30 28 27 27 25 24 25 26 30 27
33 34 33 33 35 34 33 33 33 33 37 38 39 40 40 41 41 39 39 42 45 48 49 53 56 52 50 47 45 44 40 36 34 32 31 30 29 29 29 29 26 26 24 23 23 24 23 27 28
34 33 30 32 33 33 32 31 31 32 33 35 38 39 40 41 39 39 41 45 49 50 50 53 51 50 50 48 43 41 37 33 30 29 27 27 26 26 26 26 25 24 24 22 22 22 22 23 27
31 30 29 28 29 31 30 28 24 24 28 30 31 33 38 40 40 39 41 46 50 51 52 52 50 48 46 41 37 32 30 28 27 25 26 25 24 25 24 23 23 23 24 24 23 21 20 20 22
29 32 32 31 31 25 31 22 23 25 25 26 28 32 38 40 39 39 41 47 50 51 52 51 48 45 42 40 38 35 34 29 28 25 23 22 22 22 23 22 22 22 23 20 21 19 21 20 21
30 33 32 33 32 30 29 27 23 24 23 24 30 35 37 39 40 39 42 46 50 51 50 48 45 43 41 40 38 36 33 29 25 22 19 19 19 20 20 19 19 19 22 19 17 17 17 20 18
34 33 33 35 32 25 25 25 20 19 19 19 30 32 37 39 39 39 43 49 49 49 47 45 44 42 40 39 37 35 28 23 21 21 20 20 20 20 17 17 17 17 18 18 18 17 15 17 16
35 34 25 23 24 19 23 24 22 20 21 26 27 33 37 39 39 44 46 48 47 47 46 45 43 40 39 37 35 30 26 25 20 20 19 17 17 17 14 13 14 15 17 17 17 16 16 16 15
31 31 25 17 16 16 21 20 19 23 24 24 25 29 34 37 40 44 46 48 47 47 45 44 42 38 36 34 30 27 25 25 23 21 18 17 16 15 13 13 13 13 15 15 15 18 17 16 16
34 30 31 28 28 24 23 24 26 27 25 30 30 27 26 33 41 44 47 47 46 45 44 42 38 34 31 28 25 23 22 21 19 16 16 16 14 12 12 12 13 14 15 15 15 16 15 15 16
34 34 28 29 19 17 18 17 17 20 16 19 24 23 32 37 42 45 46 44 43 41 38 36 34 30 25 23 21 19 17 15 14 14 13 11 11 12 13 14 14 14 15 15 15 16 17 15 16
33 32 33 29 27 15 12 12 14 13 15 25 32 27 31 39 43 44 42 39 36 34 34 30 26 24 21 19 17 15 14 12 11 10 11 11 12 12 14 14 14 15 15 15 15 15 15 15 16
31 30 29 23 21 23 19 15 21 26 31 34 36 36 38 41 43 41 37 35 33 30 29 26 23 20 18 16 14 13 12 10 10 10 11 11 12 13 14 14 14 15 16 16 14 14 15 16 17

GFSSGP_sfc_dewp_033.txt.gz
Dewpoint
62 57 45 43 36 33 27 27 32 30 32 34 33 33 34 35 39 38 58 62 63 66 71 71 74 73 71 69 68 67 66 65 63 63 64 68 65 63 63 62 61 60 59 60 62 65 65 65 64
59 52 45 40 32 29 28 28 30 32 33 33 34 38 36 40 49 52 58 62 66 68 71 69 74 73 71 69 68 67 65 64 63 62 64 66 62 62 61 60 59 60 60 59 59 61 62 62 61
52 43 41 36 32 29 29 28 31 33 33 31 35 40 40 44 51 52 58 63 67 68 70 69 74 73 72 70 69 67 65 63 62 62 65 64 62 62 61 60 60 61 60 59 59 58 58 58 59
49 45 39 34 31 32 29 26 32 33 32 32 35 39 45 48 52 54 62 67 67 69 70 71 73 73 72 71 69 67 65 64 62 61 62 63 62 62 62 62 62 62 60 59 59 59 59 59 60
46 43 36 34 32 32 33 33 34 33 31 28 32 35 43 50 55 60 65 68 67 69 70 70 74 73 73 71 69 68 66 64 63 62 62 62 63 63 64 64 63 63 61 60 59 59 59 59 60
45 41 35 33 33 34 34 35 34 31 31 29 33 40 43 50 55 64 67 67 68 69 70 71 72 73 73 71 70 68 67 66 64 63 64 64 64 64 65 66 64 64 62 61 61 62 63 62 62
45 40 37 34 33 33 33 34 33 32 33 30 36 37 41 46 54 64 65 67 68 69 70 70 71 71 72 71 70 69 68 68 66 65 64 65 65 63 67 67 65 64 63 62 63 63 63 62 62
46 42 38 37 34 34 35 36 36 30 29 32 38 36 38 44 55 63 63 64 66 68 69 70 71 71 71 70 70 70 69 68 68 66 66 66 65 64 65 67 66 65 64 63 64 64 63 64 65
47 43 40 38 36 36 38 36 38 38 34 38 37 37 42 51 55 59 62 63 64 65 67 69 70 71 70 69 68 69 69 68 68 66 65 64 64 62 60 64 67 67 65 65 65 64 65 63 62
48 44 41 42 39 38 39 39 39 38 39 38 38 39 46 53 54 55 57 59 63 64 66 68 70 70 70 68 68 68 67 66 65 64 63 62 61 59 58 60 62 64 63 63 62 61 61 60 58
48 44 43 44 44 45 44 43 41 39 40 40 38 39 41 50 53 53 54 56 59 63 65 66 68 69 69 68 68 68 67 66 65 64 62 62 61 61 59 58 58 59 60 59 59 59 53 47 46
43 45 47 46 47 46 46 46 46 43 42 39 41 42 42 42 43 53 53 54 57 60 63 66 67 68 69 68 68 67 67 66 64 63 62 61 61 61 58 58 58 59 59 58 55 47 42 40 37
43 43 44 44 41 42 45 45 45 46 47 46 46 46 45 43 42 42 49 52 54 55 59 63 66 67 68 68 68 67 66 65 64 63 62 61 61 59 57 59 58 55 48 46 43 40 36 32 29
40 40 40 41 40 41 41 40 44 43 46 46 46 45 44 43 43 42 41 41 43 45 49 58 63 66 66 67 67 66 66 65 64 64 63 62 60 58 57 47 46 43 42 38 37 33 30 26 24
41 39 39 40 40 39 40 38 39 41 42 42 43 45 46 46 45 43 42 42 41 42 43 48 57 64 65 66 66 66 65 64 64 63 62 61 59 54 48 44 41 39 36 31 30 31 28 25 22
39 39 34 36 38 39 38 31 37 38 40 41 41 41 43 44 44 44 43 42 42 43 42 44 52 61 64 65 65 65 65 64 63 62 60 59 52 48 44 40 36 33 32 31 28 29 29 24 23
37 31 34 33 36 38 39 35 38 40 38 39 40 42 43 44 44 44 43 42 42 42 43 45 55 60 62 64 64 64 63 61 55 54 49 47 45 43 39 35 31 28 28 28 26 27 29 23 23
29 32 31 30 32 35 34 34 35 35 36 36 37 39 40 41 42 43 43 42 41 43 45 48 54 60 62 62 57 53 52 52 49 44 41 39 38 36 33 30 27 26 26 24 25 22 26 25 25
33 33 31 33 34 34 32 32 33 34 34 34 34 35 36 40 41 42 43 42 42 45 48 51 58 60 57 54 52 50 49 47 39 37 33 32 31 30 29 27 25 26 24 22 20 24 22 24 24
34 33 29 29 31 32 31 30 30 31 31 32 32 33 35 36 40 42 42 42 43 46 49 53 58 56 55 55 51 49 49 42 38 33 30 29 29 28 26 26 25 25 24 23 21 22 22 22 25
32 31 30 29 30 30 29 26 22 23 26 28 31 32 33 35 38 40 41 42 46 48 51 53 54 53 52 45 42 39 39 37 35 29 28 27 26 25 25 25 24 25 25 23 23 24 23 20 24
29 32 31 30 30 25 30 19 19 22 23 24 26 29 31 32 35 38 41 42 46 50 53 53 52 49 46 44 43 42 45 41 37 27 25 24 23 24 23 24 22 22 23 22 21 20 22 22 20
30 32 31 31 31 29 28 25 22 24 23 24 25 26 29 33 35 38 41 43 46 51 53 52 50 47 44 44 44 45 45 37 27 23 21 20 21 22 22 21 22 21 21 20 20 20 20 20 17
33 32 32 33 31 26 25 26 22 21 20 21 24 24 30 34 36 39 42 44 48 52 52 50 48 44 43 43 41 40 39 24 22 21 20 19 20 20 19 20 20 20 20 20 21 20 21 19 18
33 34 25 24 24 21 23 26 23 23 24 24 23 25 26 32 37 40 43 46 49 51 50 48 46 43 41 40 38 33 29 23 21 20 19 18 16 17 17 17 17 18 20 20 21 20 19 19 18
32 31 25 18 17 17 21 22 21 24 25 24 24 25 29 33 38 40 43 47 49 51 49 47 44 41 40 38 33 29 25 25 22 20 19 17 16 15 16 16 16 16 17 18 18 20 20 19 19
33 30 31 27 26 25 23 21 22 24 25 25 26 29 30 29 33 40 44 47 49 49 48 46 43 40 38 33 28 26 24 23 21 19 18 17 15 13 15 16 16 17 17 17 17 17 17 17 18
34 33 28 29 20 17 20 20 18 19 18 17 20 32 33 31 33 40 45 47 48 49 46 43 40 36 33 29 26 23 21 20 18 16 15 15 13 14 16 16 16 16 16 16 17 16 17 17 18
32 31 33 30 28 20 14 14 17 16 16 19 32 35 37 36 33 41 46 46 45 42 41 37 33 30 27 24 20 19 17 15 14 12 13 13 13 15 15 15 15 16 15 15 15 14 16 16 18
30 29 30 27 22 26 24 19 20 20 25 32 28 38 41 41 41 44 42 39 39 37 35 33 29 25 22 19 17 15 14 13 11 11 12 12 14 15 15 15 15 15 15 14 13 14 17 18 19

GFSSGP_sfc_dewp_036.txt.gz
Dewpoint
59 53 47 42 34 32 28 21 31 30 30 34 33 34 35 36 39 38 59 61 62 64 68 71 74 73 71 69 67 67 66 65 64 64 65 68 66 64 64 62 60 59 59 61 64 66 66 65 64
55 47 45 39 30 27 24 26 26 32 33 33 33 35 36 36 45 52 56 61 62 65 68 68 74 73 71 69 68 67 66 65 63 63 65 67 63 63 62 60 61 61 60 60 61 62 62 62 61
52 43 39 34 30 26 26 28 28 33 31 31 35 39 38 42 50 51 58 62 63 65 66 68 73 73 71 69 68 67 66 64 63 65 67 65 63 62 60 61 62 61 60 60 60 59 59 60 60
48 43 38 31 28 30 29 27 32 32 31 33 34 36 43 48 50 53 58 62 63 64 66 71 73 73 72 70 68 67 65 63 62 65 65 64 63 62 63 62 63 61 61 60 60 60 60 60 60
48 42 32 31 29 29 31 32 32 32 31 30 30 34 39 49 53 56 61 62 62 64 65 68 73 73 72 70 69 67 65 64 63 63 63 63 63 63 63 64 64 62 61 60 60 61 61 61 60
42 39 30 27 27 30 32 32 32 31 31 31 29 32 37 50 54 59 62 62 63 64 66 67 71 72 72 71 70 68 66 65 63 63 64 62 62 63 65 65 64 64 62 61 62 63 62 62 61
39 35 28 28 27 29 31 32 32 31 30 31 33 32 38 46 56 61 62 62 64 64 66 66 67 70 71 71 70 70 68 67 66 65 65 65 65 63 67 67 65 65 63 62 63 63 63 62 63
42 37 30 32 27 29 31 33 33 33 30 31 35 30 35 45 57 61 61 62 63 64 64 65 66 67 68 69 70 69 69 69 67 66 66 66 64 64 67 68 66 65 64 63 64 64 64 65 65
48 35 30 31 31 30 36 33 33 37 36 37 35 36 42 47 56 59 60 61 62 63 64 64 64 66 65 66 68 69 69 68 68 65 65 64 61 60 61 66 67 66 65 64 64 64 63 61 62
43 37 32 34 35 34 35 36 37 37 35 35 37 39 43 49 54 56 57 57 59 61 62 64 65 65 66 65 67 66 65 64 62 59 59 59 59 59 58 61 63 64 62 62 61 61 60 60 56
42 38 36 41 40 43 41 41 41 37 36 37 36 37 41 44 50 52 53 53 57 59 62 63 65 66 66 65 65 65 64 63 61 59 57 56 56 56 55 57 57 59 60 59 59 59 53 50 49
40 41 42 41 44 44 43 43 42 41 38 37 41 42 44 44 43 47 51 52 53 58 61 63 64 67 67 65 64 64 63 63 61 59 58 58 56 57 57 56 58 58 58 59 56 51 47 44 42
39 37 39 40 42 40 40 39 39 39 42 44 44 45 44 44 44 44 45 51 52 55 58 61 64 66 67 66 64 63 63 63 62 60 59 59 59 58 57 57 58 58 55 51 49 47 43 39 35
39 40 39 40 40 39 38 37 37 37 38 37 38 40 41 43 43 44 44 42 43 50 53 57 61 64 65 66 64 63 63 63 63 60 60 60 61 59 58 55 51 47 47 46 44 41 37 31 26
40 38 37 37 37 37 38 35 35 36 36 36 36 36 38 39 41 43 44 44 42 42 43 45 54 61 64 65 65 64 63 63 63 62 61 61 61 59 53 47 45 42 39 38 37 34 30 28 24
36 36 31 34 36 36 37 28 30 34 35 37 36 35 36 37 38 40 43 44 44 45 43 44 45 53 59 62 64 63 63 63 63 63 63 62 60 53 49 47 44 40 37 34 30 30 31 28 26
34 29 31 32 34 35 36 33 35 38 36 37 36 37 38 40 39 38 39 41 44 44 44 44 46 47 53 59 62 63 63 63 64 63 62 60 53 48 44 42 39 34 32 30 27 30 27 24 24
25 29 29 29 30 32 31 32 34 35 34 35 36 36 37 38 39 41 42 42 42 42 43 44 45 49 54 58 61 62 63 65 63 60 55 50 46 44 40 36 32 29 29 28 26 25 25 23 22
31 30 29 30 31 30 30 29 30 31 31 31 31 32 32 34 36 38 41 42 44 44 44 44 47 51 56 58 60 62 61 60 57 53 49 43 39 35 36 32 29 29 27 25 23 23 24 24 23
32 30 30 29 30 29 28 26 25 26 26 27 27 26 26 27 29 32 37 40 42 43 44 46 49 53 57 59 58 58 57 55 51 46 41 40 36 30 31 31 28 28 26 24 23 24 24 23 24
32 30 28 28 28 28 26 24 22 20 21 23 25 26 26 26 25 26 30 38 41 43 45 47 51 56 58 57 57 53 47 43 40 36 36 34 30 28 29 29 26 27 26 26 25 25 23 23 24
27 28 29 27 27 24 28 20 22 22 22 22 22 23 26 28 29 29 30 33 38 43 48 50 53 56 57 56 52 50 51 48 46 39 37 34 32 30 25 25 25 25 24 24 23 21 23 23 22
29 30 29 29 28 27 27 27 21 23 22 22 23 23 24 27 28 29 32 34 37 44 50 52 54 55 54 53 53 53 52 47 42 37 30 27 25 25 24 23 23 22 22 22 22 23 21 21 18
32 31 30 30 30 26 23 26 20 18 19 21 21 21 22 23 27 30 32 35 37 44 52 53 53 53 52 53 52 54 50 43 36 27 26 26 26 24 22 21 22 22 22 23 23 23 22 21 19
32 33 26 25 25 21 19 20 22 19 21 22 21 21 23 24 25 29 35 38 41 44 52 53 52 51 51 51 52 51 45 42 36 27 24 21 21 21 21 21 19 21 23 23 22 22 22 21 19
32 31 26 18 13 15 21 19 17 19 22 22 22 24 25 26 29 29 35 41 43 46 51 52 51 49 49 50 49 45 40 32 26 25 22 23 20 19 20 19 18 18 19 20 20 21 21 21 20
32 31 30 28 26 24 19 16 18 19 20 21 21 23 27 29 29 32 32 39 44 47 50 51 50 48 48 47 41 33 30 26 27 22 25 20 19 16 17 18 18 18 18 18 18 17 17 17 19
32 30 28 30 19 15 15 15 15 17 18 20 19 23 28 30 31 35 34 37 43 47 50 51 48 46 45 42 37 30 26 25 23 23 20 18 16 16 17 17 17 17 17 17 17 17 17 16 17
31 32 33 27 25 20 14 13 14 15 16 17 16 26 28 34 36 38 37 40 46 48 50 48 46 43 40 37 33 27 22 21 25 20 19 17 15 16 16 16 15 16 15 15 14 14 15 15 18
27 27 28 27 23 27 25 21 21 19 19 24 25 24 30 37 40 42 41 44 47 48 47 45 42 39 36 31 27 22 19 18 18 18 16 14 14 15 14 14 14 14 14 13 11 12 15 17 19

GFSSGP_sfc_dewp_039.txt.gz
Dewpoint
61 49 46 43 34 32 28 26 22 28 27 29 33 33 35 36 37 40 57 59 59 64 66 70 74 72 71 70 68 66 66 66 66 66 69 68 67 65 64 62 61 60 61 64 66 66 66 66 64
54 45 44 38 31 27 26 25 22 25 30 33 33 33 34 36 42 53 56 59 59 63 66 69 73 73 71 69 67 67 66 64 64 64 67 66 64 64 62 62 63 61 60 61 62 63 62 62 61
53 44 39 35 31 26 25 27 24 29 31 32 32 37 38 40 47 51 57 59 60 63 66 70 73 72 71 69 68 67 66 64 63 64 67 64 63 61 62 63 63 61 60 60 60 60 60 61 61
47 42 37 33 29 28 26 27 26 29 30 32 34 34 40 47 48 52 58 58 60 62 65 72 73 72 72 70 68 66 64 63 64 67 66 64 63 62 62 63 63 61 61 60 61 61 60 60 61
47 39 33 29 27 26 27 28 29 28 29 30 32 33 39 48 52 56 58 58 60 61 65 70 73 73 72 70 68 67 65 63 63 65 65 63 63 63 64 64 64 62 61 61 62 62 62 61 61
40 36 30 27 26 26 26 29 30 29 29 30 30 33 38 51 52 57 58 57 59 61 64 68 72 72 72 70 69 67 66 64 64 64 63 63 64 64 64 65 65 63 62 62 62 63 62 62 62
41 36 29 27 25 24 26 30 29 29 28 28 30 31 37 44 55 58 58 58 59 61 62 66 68 70 71 71 70 69 67 67 66 66 65 65 65 62 65 66 65 64 63 62 64 63 63 63 63
41 36 31 28 23 24 25 28 30 29 29 31 33 29 32 48 56 57 57 59 59 61 61 63 65 68 68 68 70 70 69 68 67 67 67 67 64 65 69 68 66 65 64 64 64 64 65 65 64
46 38 31 29 25 27 29 29 32 32 32 32 32 32 42 45 56 56 57 59 59 60 61 61 62 65 66 67 68 69 69 68 67 65 66 64 60 60 63 66 67 66 65 64 64 63 62 61 62
43 35 30 26 27 28 30 32 31 31 32 31 34 36 41 46 52 55 55 56 57 59 59 60 61 62 62 64 68 66 65 64 62 58 59 60 58 58 59 64 66 66 64 63 61 61 61 62 57
40 36 31 30 37 37 35 32 35 34 34 30 30 34 39 43 47 51 53 53 55 57 59 61 62 62 62 62 67 65 65 63 61 58 56 56 57 58 57 59 59 61 61 59 60 60 55 53 51
37 37 36 36 39 41 40 38 36 36 36 34 35 40 41 41 41 46 48 50 51 55 58 60 62 63 63 62 62 64 63 62 60 58 55 55 54 54 54 55 57 58 57 57 58 53 50 48 44
37 37 35 37 39 39 40 38 37 38 39 38 39 39 42 42 41 42 43 48 49 51 56 59 61 63 64 63 62 61 61 61 61 59 56 55 55 55 56 56 56 57 57 54 53 50 47 44 40
37 37 36 37 37 38 37 36 35 34 35 35 36 38 38 41 41 41 43 43 48 49 53 56 60 62 64 64 63 61 61 61 62 59 59 58 58 58 57 57 56 52 52 51 48 45 42 38 30
39 37 37 36 36 35 36 34 34 35 35 34 34 33 34 35 37 39 41 43 43 44 48 51 56 60 62 63 63 62 61 61 63 60 59 59 60 59 59 55 52 48 45 43 43 39 33 33 30
36 35 32 31 34 34 34 30 28 31 32 33 33 32 33 33 33 35 38 42 44 44 43 44 45 54 59 60 63 61 61 61 64 61 60 60 61 60 54 53 50 47 45 42 37 33 33 32 29
34 29 29 29 33 33 34 32 31 36 35 32 33 33 34 34 34 33 35 38 42 44 44 44 45 46 51 57 60 61 61 62 63 62 61 61 60 55 52 52 48 44 41 37 31 32 29 28 29
28 28 28 27 29 32 31 30 30 31 32 34 34 34 35 34 36 37 37 36 36 41 43 44 45 46 46 51 56 60 60 63 63 63 62 62 56 52 50 45 42 40 36 33 32 29 28 27 26
28 28 27 27 29 30 29 27 27 28 29 30 31 32 31 32 35 36 38 39 39 40 42 43 44 46 47 52 55 59 60 66 65 64 62 57 52 46 43 40 38 36 34 32 28 28 28 28 27
31 29 28 28 28 28 27 25 25 25 26 26 26 27 28 29 29 31 34 37 39 40 42 43 44 46 49 53 57 59 61 61 60 59 56 52 48 42 37 36 35 33 32 29 28 29 30 28 28
30 28 27 26 27 27 25 24 22 23 23 24 25 25 25 26 25 25 26 31 38 39 42 44 45 48 52 55 58 60 54 50 47 48 49 47 43 37 35 35 33 34 33 33 32 31 30 29 29
27 27 27 26 27 24 27 21 22 21 21 22 22 22 23 25 25 26 26 27 30 39 46 47 47 50 54 58 58 58 53 50 47 46 46 43 38 35 32 30 30 31 31 31 30 26 28 27 28
27 30 28 28 27 27 26 25 22 18 19 21 22 23 24 25 25 25 28 32 33 37 46 50 49 51 56 57 58 56 52 52 45 41 39 37 35 34 32 30 31 28 29 26 26 27 25 24 20
31 29 29 29 29 26 23 23 19 15 12 14 18 21 22 21 23 24 28 30 33 39 46 52 51 53 56 58 55 54 55 47 41 37 35 35 36 34 28 27 28 27 27 27 27 27 26 23 21
31 30 27 26 25 21 17 17 19 18 18 19 20 20 22 21 23 23 24 29 33 39 43 50 51 53 55 54 54 53 54 46 42 37 36 34 29 31 30 26 25 26 28 27 26 26 26 23 22
29 30 26 18 12 15 18 18 16 17 17 19 20 21 21 23 23 28 30 32 37 40 42 48 51 52 52 53 53 55 49 46 43 38 35 29 29 26 25 25 23 22 22 23 23 25 24 23 23
30 30 29 26 24 22 17 15 18 18 18 18 18 20 22 22 26 28 30 33 32 40 43 49 51 51 51 52 53 51 46 44 40 37 28 26 26 22 23 23 21 20 20 20 20 18 19 19 20
30 30 27 31 21 17 14 14 14 16 16 17 18 19 22 26 27 31 34 37 32 39 44 49 49 49 50 51 50 46 39 33 28 26 25 26 21 21 21 21 19 19 19 18 18 18 18 16 18
30 30 30 26 25 21 16 16 17 19 21 20 17 17 23 26 31 34 37 40 36 40 46 48 49 48 49 46 39 35 31 27 24 24 23 21 22 19 19 18 18 17 17 16 15 14 15 16 18
27 28 27 27 22 25 27 23 24 24 23 23 24 25 24 26 28 38 40 41 40 45 49 49 48 47 46 40 34 30 26 24 23 21 21 24 19 20 17 16 15 14 15 13 12 12 14 16 18

GFSSGP_sfc_dewp_042.txt.gz
Dewpoint
63 55 49 49 41 38 32 31 27 30 29 27 32 32 32 34 43 48 59 59 66 68 70 72 73 73 71 70 69 68 67 68 68 69 69 67 67 65 63 61 61 63 64 66 67 67 67 66 64
59 53 49 45 37 31 30 29 26 27 31 32 32 32 31 38 52 54 58 59 65 66 69 71 73 73 71 69 67 67 66 65 65 66 69 68 66 64 63 64 62 61 61 63 64 64 63 62 62
58 51 44 41 35 31 28 29 27 28 31 32 31 32 34 44 49 54 58 59 63 66 68 71 73 72 70 68 68 67 66 64 64 66 67 65 65 62 64 63 61 61 61 61 61 61 62 61 61
50 47 41 34 31 31 30 28 28 30 30 33 33 33 41 49 49 56 58 59 61 65 70 72 73 72 71 70 68 67 65 64 66 67 66 64 62 63 64 63 62 62 61 61 61 61 61 62 62
49 46 36 32 30 31 29 28 28 31 29 31 33 32 44 51 55 57 57 59 61 69 70 71 73 72 71 69 68 66 65 65 67 67 65 64 64 64 64 64 62 62 62 63 63 63 63 62 62
45 41 33 31 30 28 27 27 29 30 29 29 30 31 46 51 54 57 57 58 61 69 69 70 72 72 71 70 69 67 65 65 67 67 65 64 64 65 65 65 63 63 63 63 63 63 63 62 62
42 39 33 30 29 26 26 26 28 29 29 28 29 29 44 50 56 58 57 57 60 65 68 69 70 71 71 70 70 69 67 66 67 67 67 67 67 65 66 66 65 64 63 64 64 64 63 63 64
42 41 36 32 28 28 27 26 30 29 29 31 32 30 40 54 56 57 57 57 58 62 67 67 68 69 69 69 70 69 68 68 67 67 68 66 64 64 68 68 67 65 64 65 65 64 65 65 64
44 40 35 34 31 29 26 30 31 33 31 30 32 32 44 51 56 56 57 58 59 61 61 65 68 68 68 68 69 69 68 67 67 66 66 65 62 62 65 66 67 67 65 65 64 64 63 64 64
43 41 38 34 31 30 28 31 31 31 31 31 32 37 44 46 54 56 56 57 58 59 60 61 64 67 67 67 68 67 66 65 64 62 63 63 61 61 64 65 67 67 66 66 63 62 63 63 60
41 39 35 32 30 39 38 36 35 33 33 33 31 33 39 45 47 53 54 55 57 58 59 60 61 64 64 67 67 65 65 64 62 59 60 60 59 59 62 63 64 63 62 61 62 61 59 50 50
36 37 37 37 37 40 39 39 38 35 35 37 36 37 40 41 43 47 50 52 55 57 59 60 61 62 61 67 67 65 64 64 62 59 57 56 58 58 56 59 60 61 59 59 58 54 50 48 43
36 36 36 37 38 38 40 40 39 39 38 38 38 38 39 41 42 42 46 48 49 55 58 60 61 62 62 62 65 64 63 63 61 59 56 56 54 54 55 56 57 57 57 54 53 50 46 41 37
37 37 36 35 35 37 36 36 37 35 35 35 36 37 38 40 42 42 42 43 45 49 57 59 60 63 63 63 62 62 63 61 61 59 58 56 56 56 57 57 54 52 54 52 47 43 40 34 30
38 37 37 37 36 36 36 35 35 36 36 35 33 33 34 36 38 40 41 42 43 45 52 56 59 61 63 64 63 62 61 61 63 59 58 58 59 58 58 56 53 49 47 44 42 36 33 33 31
38 38 35 34 36 35 35 31 33 33 34 34 34 33 33 34 35 35 36 40 42 44 45 52 57 60 61 63 63 62 62 62 63 61 59 58 60 59 54 53 50 46 45 42 37 35 34 31 29
35 30 31 31 34 33 33 32 34 35 34 34 33 32 32 32 33 33 34 35 38 43 44 45 51 57 60 61 63 62 61 62 63 63 60 59 60 56 54 54 50 47 42 37 34 31 30 28 28
30 30 30 29 31 32 31 31 32 31 31 31 34 34 34 34 34 34 34 34 37 39 43 45 47 45 48 57 59 62 61 62 63 62 61 61 59 54 53 48 45 42 38 34 34 29 29 27 26
32 28 27 28 29 28 29 28 29 29 28 29 30 30 32 33 35 35 37 38 38 37 39 44 46 45 45 48 55 59 60 63 64 64 62 61 54 52 46 43 41 38 35 33 29 30 29 29 28
29 28 28 29 28 27 26 26 27 27 26 26 27 28 29 31 32 32 34 37 38 39 39 40 44 46 46 47 52 57 61 60 62 63 61 56 54 49 43 40 37 34 32 28 27 29 29 29 27
30 29 28 27 27 27 26 24 24 24 25 25 26 25 26 26 27 29 29 31 36 37 39 40 42 44 47 50 57 56 53 51 50 52 52 50 48 47 39 38 34 33 34 33 30 29 29 29 27
28 29 28 27 27 24 27 23 23 23 22 22 23 24 25 25 26 26 26 27 29 33 38 40 43 45 48 52 57 56 57 55 50 50 50 47 46 45 39 40 40 33 33 31 29 29 27 27 27
28 31 29 29 28 27 26 24 23 21 20 20 22 23 24 25 26 26 27 28 30 31 39 42 43 46 49 53 57 57 54 49 48 44 41 43 43 41 36 34 31 30 32 27 26 26 24 24 24
32 29 30 29 28 23 25 24 23 17 17 17 19 22 24 22 23 24 25 28 32 34 36 44 47 47 54 56 58 55 51 46 44 41 40 40 39 39 35 32 32 29 29 29 28 27 24 23 22
30 30 21 23 23 19 19 23 21 18 18 19 19 20 21 23 21 25 25 28 32 32 38 40 49 48 55 57 56 53 51 45 42 40 39 36 36 35 34 32 29 29 29 29 28 27 24 23 23
29 30 22 17 18 20 22 19 17 20 20 19 20 20 22 22 23 24 29 31 34 36 38 39 49 51 55 56 53 53 45 43 40 39 37 36 33 33 33 32 28 26 26 26 26 27 25 23 24
30 28 29 26 23 18 19 14 15 17 17 18 19 20 22 22 23 27 30 33 36 36 40 40 50 51 54 54 53 49 45 41 39 37 37 36 34 29 29 29 23 23 23 23 23 23 21 19 21
30 30 27 26 11 15 16 16 16 18 23 25 22 20 21 24 26 29 35 38 40 40 40 42 49 51 52 53 51 46 44 40 38 35 32 28 25 24 24 21 21 21 21 20 20 20 18 17 19
29 29 29 27 26 18 18 17 21 24 26 26 27 24 25 25 27 30 38 39 42 41 42 45 50 51 51 51 46 35 30 30 31 28 25 22 25 22 21 20 20 20 19 18 17 16 16 16 18
30 29 27 24 20 25 24 22 25 24 24 26 26 26 26 25 27 30 40 40 42 41 45 47 49 49 43 39 33 31 27 24 24 25 24 23 23 26 20 20 18 17 17 14 13 13 14 16 18

GFSSGP_sfc_dewp_045.txt.gz
Dewpoint
64 59 54 45 37 36 32 34 33 26 26 31 32 32 32 37 42 45 58 66 68 70 71 72 73 73 72 71 70 70 70 71 71 70 68 67 67 64 62 61 64 66 67 67 68 68 67 66 65
61 57 47 42 36 31 31 32 31 25 32 31 31 31 31 48 53 56 59 68 69 70 71 71 73 73 71 69 68 68 68 68 69 70 68 68 66 64 64 62 62 64 66 66 66 65 64 63 63
60 56 42 40 34 32 31 29 27 30 30 30 31 33 35 47 54 57 59 67 69 70 71 71 73 72 70 69 68 67 66 66 67 70 68 67 65 65 62 61 61 62 62 63 64 63 63 62 62
53 46 41 33 33 33 32 31 29 30 30 31 33 33 46 52 54 57 61 67 68 69 71 72 72 72 70 70 69 67 65 65 66 68 67 65 64 65 62 62 61 61 61 61 62 62 62 62 63
49 45 36 33 31 32 32 31 28 29 29 32 33 33 47 53 57 58 59 66 66 69 70 71 72 71 71 70 69 67 65 66 68 67 65 64 65 66 64 62 63 63 63 63 63 63 63 63 63
44 41 35 34 33 31 30 30 27 29 29 29 30 31 48 54 56 57 58 66 69 70 70 70 71 71 71 70 69 68 67 68 70 68 66 65 65 66 66 64 63 63 63 64 64 64 63 63 63
41 38 34 32 31 31 31 30 28 29 29 29 29 29 50 55 56 57 57 69 70 70 70 70 70 70 70 69 69 68 67 69 69 68 67 67 67 67 66 65 64 63 64 65 64 64 64 64 64
42 40 37 34 31 30 30 27 29 29 28 31 32 30 50 55 57 57 56 68 69 69 69 70 70 69 69 68 69 68 67 68 68 68 68 67 66 67 68 67 66 64 64 65 65 65 65 65 64
43 38 36 36 35 33 32 29 31 33 30 31 32 39 47 56 57 56 57 59 66 68 68 69 69 69 69 68 68 68 68 67 67 67 66 64 61 62 66 66 67 67 65 65 65 65 65 65 64
41 39 39 38 36 33 35 37 33 31 31 31 32 44 46 55 56 56 57 57 60 65 67 68 68 68 68 67 68 67 66 65 64 64 64 63 62 63 66 65 66 67 67 66 64 64 64 62 60
40 40 40 41 38 39 39 37 39 33 34 31 30 34 44 49 54 56 56 57 58 59 63 67 68 68 67 67 67 66 66 64 63 62 62 62 60 64 64 64 65 64 64 63 63 62 60 57 55
37 39 40 40 39 39 40 41 40 39 35 38 37 37 40 44 48 53 55 56 57 58 59 62 67 67 67 67 66 65 65 64 63 61 60 59 59 61 62 63 62 62 61 60 59 59 50 46 40
37 37 38 38 38 36 38 39 39 39 39 38 37 38 38 40 41 43 48 51 55 58 59 60 64 64 65 67 66 65 64 64 62 60 58 57 58 57 58 59 60 60 59 57 54 49 44 37 31
36 37 38 38 38 37 36 36 37 37 37 36 35 35 37 38 41 42 42 43 47 55 58 60 61 62 66 66 66 65 64 63 62 60 57 56 56 55 55 56 57 56 54 53 47 42 38 31 29
39 37 38 38 38 37 37 35 35 37 38 37 37 35 34 35 37 40 42 42 43 44 58 59 61 62 62 64 65 64 63 63 62 58 56 55 55 54 57 55 53 50 48 42 38 33 32 32 29
37 37 35 37 37 37 36 32 35 36 36 36 36 36 35 35 35 35 37 38 41 43 53 59 60 62 63 63 62 64 62 62 63 58 57 57 58 57 57 53 50 46 45 41 36 34 33 30 28
36 31 33 35 34 35 35 33 34 35 34 33 34 35 35 35 34 34 36 36 36 40 43 55 59 60 63 63 63 62 62 61 62 59 58 58 59 55 54 51 48 45 40 36 33 30 30 27 26
32 32 31 30 32 33 32 32 33 34 32 31 31 34 34 34 33 34 34 34 36 36 42 44 54 59 62 63 63 63 62 62 62 60 58 60 58 54 53 51 47 43 37 35 31 27 28 27 26
35 32 28 29 30 28 29 30 30 31 31 31 31 31 31 33 35 36 36 36 34 35 38 43 46 57 60 61 62 62 61 62 62 62 59 61 57 53 51 48 42 38 34 33 29 29 27 27 27
35 29 28 29 29 27 26 26 26 27 28 28 28 29 30 31 32 33 34 35 37 38 38 38 45 47 53 56 60 62 62 61 62 63 62 59 54 52 47 42 39 36 34 30 28 28 29 28 26
30 29 29 28 28 27 26 25 25 26 26 27 27 27 28 29 30 31 31 32 33 36 38 39 40 45 46 47 56 55 56 56 56 58 57 53 51 49 47 40 36 33 32 31 29 30 29 29 26
29 30 29 28 27 23 27 22 25 24 22 23 25 26 26 27 27 28 28 29 30 31 37 39 41 43 47 52 55 57 58 59 55 54 50 49 48 48 47 43 42 37 35 31 30 29 29 30 27
30 32 29 29 27 26 26 23 24 25 21 21 21 23 25 26 26 26 27 27 28 28 31 37 40 42 46 49 54 56 58 53 51 50 47 48 47 45 43 41 42 35 36 32 28 26 25 27 26
32 30 29 29 27 21 24 23 20 20 18 19 19 21 23 24 24 26 27 29 30 31 32 37 41 42 44 49 56 56 53 50 48 46 45 45 45 43 40 38 39 40 38 36 31 25 23 23 22
33 28 17 24 24 18 23 24 23 22 21 19 19 19 22 22 22 22 23 28 31 32 32 35 39 43 47 52 57 55 52 51 49 46 46 42 40 40 36 34 35 36 34 34 31 26 24 23 23
29 28 20 17 18 20 23 22 20 22 23 22 20 20 21 21 22 24 26 31 35 37 37 36 37 43 51 56 55 52 49 49 48 46 44 43 40 39 36 34 34 32 33 34 29 27 26 24 24
29 28 29 26 21 14 19 17 18 19 25 23 21 22 23 22 22 24 35 37 38 39 40 40 39 48 55 55 52 47 47 47 45 44 42 42 38 36 30 31 31 31 31 29 25 23 20 21 23
28 30 23 21 7 14 18 17 16 19 23 26 26 26 25 26 26 32 37 38 39 40 42 42 41 49 54 53 48 45 45 44 41 40 38 33 31 29 29 31 30 31 28 24 22 21 19 19 21
30 31 29 26 24 16 18 19 20 22 25 24 26 28 29 27 25 28 38 40 40 41 42 41 44 51 53 49 45 43 42 39 38 37 33 30 27 26 26 25 25 23 21 20 19 20 18 17 18
30 28 26 18 17 23 19 22 24 25 26 27 30 33 31 29 29 37 40 40 40 41 43 45 49 50 45 40 37 36 35 33 31 31 28 25 24 24 23 22 21 20 18 18 17 13 14 17 18

GFSSGP_sfc_dewp_048.txt.gz
Dewpoint
63 59 54 44 35 36 33 35 34 32 27 31 32 31 34 40 42 40 60 66 70 71 71 71 73 73 73 72 72 72 72 72 71 69 68 67 65 63 62 65 67 69 68 67 67 67 67 67 65
61 56 46 42 35 31 31 33 31 31 30 31 31 31 35 48 54 61 64 68 70 70 71 71 73 73 72 72 71 71 71 71 70 69 67 67 65 63 62 64 66 66 67 67 67 66 65 64 63
59 56 42 38 35 32 31 31 30 29 31 30 31 32 41 48 55 60 65 68 69 70 71 71 73 72 71 70 70 69 69 70 70 69 69 67 65 64 63 62 64 65 65 65 65 64 63 63 63
51 46 42 35 35 34 33 31 32 30 29 32 33 33 48 53 56 60 68 68 69 70 71 72 72 72 71 70 69 67 67 67 69 70 68 66 65 62 61 62 62 62 63 63 63 63 62 62 62
49 43 37 34 33 33 33 33 33 30 28 30 33 34 49 55 57 67 68 69 69 70 71 71 72 71 70 69 68 67 67 66 70 68 67 65 65 63 62 62 62 62 62 62 62 62 63 63 63
44 42 36 32 32 32 32 31 30 28 29 29 30 41 50 55 58 65 67 67 69 70 70 71 71 71 71 70 69 68 68 69 69 68 65 65 66 65 63 63 63 63 64 64 64 63 63 63 63
42 38 36 34 33 33 33 33 28 29 28 28 29 37 50 55 56 59 66 67 69 70 69 70 69 69 70 70 69 68 69 69 69 68 67 67 67 66 65 63 63 63 64 65 64 64 64 64 64
40 40 36 33 32 31 32 30 29 29 28 31 31 47 49 53 56 62 68 69 69 69 69 69 69 69 68 68 68 68 69 69 69 68 67 67 67 67 67 66 65 64 65 65 64 64 64 64 64
42 38 36 36 33 32 35 33 32 32 30 31 33 45 52 56 57 59 67 68 68 68 69 69 69 68 68 67 67 67 68 68 68 67 66 65 64 65 66 66 66 66 65 65 65 65 65 65 64
39 38 37 38 37 36 35 37 36 32 30 30 41 45 54 56 56 57 64 66 67 67 68 69 69 68 68 67 66 65 65 65 65 65 64 63 61 61 64 65 66 67 67 67 65 65 65 63 59
40 39 39 41 41 40 39 38 40 37 32 32 35 44 47 54 56 56 59 64 66 67 68 68 68 68 67 66 67 65 64 63 63 63 63 62 61 63 65 65 65 64 65 64 64 62 60 59 58
38 40 40 42 41 39 38 40 40 39 36 40 40 39 38 45 49 56 57 58 60 65 67 67 68 67 67 67 66 65 65 63 63 62 62 61 60 62 63 64 63 62 62 60 60 59 51 44 40
38 38 38 39 40 37 37 38 39 39 40 40 38 38 37 39 44 47 54 57 58 60 64 67 67 67 67 67 66 65 64 63 62 61 60 60 59 62 63 62 62 61 60 59 59 55 44 36 28
37 37 37 38 38 38 37 36 36 37 38 37 37 37 36 37 38 41 42 45 51 58 59 64 67 67 67 67 66 65 64 64 63 61 59 59 59 61 60 59 60 59 59 57 54 45 37 30 29
39 36 38 37 38 37 38 35 36 37 37 37 37 37 37 35 36 37 39 42 43 49 58 60 66 66 66 66 66 65 64 63 63 61 59 57 58 58 57 57 57 57 54 50 41 34 32 31 28
37 37 34 35 37 36 36 31 35 36 36 36 36 36 36 37 36 36 36 38 40 43 48 59 61 64 65 66 66 65 64 63 63 61 59 56 56 56 56 55 53 50 44 40 36 34 32 29 27
35 31 33 34 37 36 35 33 35 35 35 34 34 34 35 36 36 36 36 36 36 38 43 57 59 61 63 65 65 65 64 63 63 60 58 56 55 56 56 54 49 45 42 38 35 33 30 27 26
33 32 31 31 32 33 33 34 35 34 34 33 33 33 33 34 35 36 36 36 36 36 38 51 59 60 63 64 64 64 64 62 62 60 57 57 57 56 54 51 47 42 38 35 31 28 28 26 25
33 33 30 29 30 28 27 28 29 30 31 32 32 32 31 32 34 36 35 35 35 35 35 40 53 59 62 64 63 63 62 62 62 60 58 59 57 55 53 51 45 40 36 34 28 28 25 25 26
36 33 30 29 30 27 27 26 27 27 27 28 28 29 29 31 31 33 35 36 36 36 36 35 43 53 60 62 63 64 63 62 62 62 60 60 57 55 53 49 44 37 35 31 29 30 29 27 25
30 29 29 29 29 27 27 22 22 25 26 26 27 28 29 29 30 30 31 33 34 34 36 38 39 46 57 60 61 58 58 58 58 60 60 60 57 56 54 47 42 37 38 33 30 29 29 27 25
28 30 30 29 26 23 27 20 25 25 25 24 23 26 28 28 28 29 30 31 31 32 34 36 39 41 47 51 58 60 59 59 59 61 57 54 53 55 51 46 42 42 39 32 31 30 30 28 25
29 31 29 29 27 24 25 23 22 24 22 20 21 20 23 27 27 28 28 29 30 30 31 33 37 40 43 48 54 58 59 60 56 53 52 52 52 52 49 46 45 41 38 35 38 38 33 28 27
32 28 29 29 25 16 22 23 20 19 20 19 19 19 21 24 25 26 27 28 28 30 31 31 33 36 42 46 52 56 57 53 53 51 50 49 49 49 48 45 43 42 41 40 39 32 32 28 26
30 25 15 15 14 16 24 24 23 24 24 22 22 21 21 22 22 22 24 27 30 33 35 34 35 36 39 44 51 53 56 54 53 51 50 47 46 44 46 46 42 42 41 38 33 29 30 29 26
28 25 17 12 18 19 23 20 20 24 24 20 21 24 26 26 23 22 26 31 36 38 38 38 39 38 39 43 53 55 55 54 53 51 49 48 46 44 44 40 40 38 33 32 31 31 31 27 26
28 22 27 21 19 14 19 19 15 22 25 26 26 28 28 29 28 27 33 36 37 37 38 39 41 41 41 47 54 51 52 51 49 47 46 45 45 42 39 38 36 33 32 32 32 30 28 24 24
28 29 22 17 5 12 17 18 15 17 23 25 27 28 29 31 32 30 33 38 38 38 39 41 42 41 42 52 49 49 49 48 47 46 46 44 43 37 36 33 31 30 29 28 28 27 23 22 23
30 29 27 24 21 14 17 17 21 20 24 27 28 31 36 38 35 33 29 38 40 40 41 43 44 43 51 48 46 45 45 45 45 45 43 41 36 32 32 29 28 27 26 26 24 22 19 19 20
30 28 26 18 15 20 18 21 24 24 25 27 27 35 38 38 36 33 36 40 40 40 42 47 47 49 48 46 44 43 42 43 43 40 39 34 32 33 30 25 23 22 22 20 20 20 20 20 19

GFSSGP_sfc_dewp_051.txt.gz
Dewpoint
62 59 52 43 35 36 33 33 37 32 30 30 32 32 35 39 39 37 60 67 70 71 72 72 74 74 73 73 73 73 73 72 71 69 68 66 65 64 65 66 66 68 66 65 68 69 68 66 66
61 55 45 41 33 29 29 33 31 31 31 31 31 33 43 47 54 61 64 68 70 71 71 71 73 73 73 73 72 72 71 70 70 69 68 66 64 62 64 66 67 68 67 67 68 66 65 64 63
57 52 41 38 35 30 27 31 31 30 31 31 30 34 40 46 55 62 64 69 70 70 70 70 73 73 73 72 72 72 71 71 70 69 68 66 65 63 62 65 66 66 66 67 65 65 64 63 62
51 47 41 36 34 34 32 31 33 32 31 30 33 41 50 53 57 60 68 69 69 70 70 72 72 73 72 72 71 71 71 71 70 69 68 66 65 63 62 63 65 65 65 65 64 64 63 62 63
48 43 38 35 35 36 34 34 33 32 31 29 32 38 50 55 60 67 68 69 69 70 70 71 72 72 71 70 69 69 68 69 70 70 68 66 64 62 62 62 62 63 63 63 63 62 62 62 63
45 42 35 33 33 33 33 32 31 29 29 29 31 46 49 56 66 67 68 68 69 70 70 71 71 71 70 69 68 68 68 69 71 69 67 65 64 62 62 62 62 62 62 62 62 62 62 63 63
43 39 37 34 30 31 32 33 31 31 29 29 31 46 50 54 64 67 68 68 69 70 70 70 69 69 70 70 69 68 68 69 70 69 67 67 66 64 63 63 64 64 64 64 64 63 63 64 64
41 39 36 34 32 31 33 31 30 29 29 30 40 45 49 54 60 66 67 68 68 69 69 69 68 69 68 68 69 68 68 69 69 68 67 67 67 67 65 65 65 64 65 64 64 64 64 64 64
42 38 36 33 33 33 35 34 35 35 30 31 34 48 50 56 65 66 67 67 68 68 69 69 68 67 67 67 66 68 69 69 68 68 66 66 65 66 65 65 65 66 65 65 65 64 65 65 63
40 37 37 38 36 36 36 38 37 35 32 30 41 50 56 57 65 65 65 65 66 67 68 69 68 67 67 67 65 65 66 66 66 65 64 64 63 64 66 64 65 66 67 67 65 65 65 62 58
40 37 38 40 40 41 39 37 40 38 34 33 34 40 46 55 57 64 65 65 66 66 67 67 67 68 67 66 66 64 64 64 64 63 63 62 61 61 63 64 64 64 64 64 64 63 60 58 57
38 40 40 40 41 40 38 39 39 39 38 40 41 40 38 46 52 56 63 65 66 66 66 66 67 68 67 66 66 64 63 63 63 63 63 61 60 61 62 64 63 62 63 61 60 59 54 48 40
38 39 39 40 40 39 38 37 39 39 40 41 39 38 37 37 39 50 56 60 64 66 66 67 68 67 67 66 66 65 64 63 62 63 62 62 60 61 62 62 62 61 61 59 58 56 46 37 29
39 39 38 38 37 38 37 37 36 37 39 38 37 37 37 37 37 39 44 53 58 63 66 67 67 67 67 66 66 65 64 63 62 62 62 61 60 61 62 61 61 60 60 59 58 52 40 31 28
39 36 37 37 38 37 37 35 36 37 37 36 36 37 37 37 37 36 38 41 46 55 60 66 67 67 67 66 66 65 65 64 63 61 60 60 60 60 61 61 59 59 59 57 51 39 32 31 27
37 36 34 35 37 37 35 31 35 37 37 36 36 36 36 37 37 37 37 37 40 43 50 60 66 67 67 66 66 66 65 64 64 62 60 58 58 60 59 59 58 57 55 49 40 35 32 29 28
34 31 33 34 36 35 35 33 35 35 34 34 34 34 35 35 36 37 37 36 37 40 42 52 60 66 66 66 66 66 65 64 64 63 61 58 57 58 58 57 55 52 46 42 36 33 31 28 26
32 31 31 32 32 34 34 34 35 36 35 35 35 35 34 34 35 35 37 37 37 37 38 42 57 61 65 66 66 66 65 64 63 63 61 59 57 56 56 55 51 47 42 38 34 30 28 27 25
34 33 31 31 31 28 28 28 28 29 29 30 32 33 34 34 34 34 35 36 36 36 36 38 49 59 62 64 65 64 64 64 63 63 61 59 57 56 56 53 47 44 41 37 32 29 26 26 26
37 34 32 31 31 28 27 27 28 28 28 28 28 29 29 30 31 32 34 35 36 36 35 35 40 54 61 63 63 63 63 64 63 63 61 59 58 57 56 53 48 43 39 33 30 29 28 26 27
36 30 29 29 29 27 27 23 23 24 26 26 27 28 29 29 29 29 30 32 33 35 36 37 37 42 57 62 63 59 59 58 59 59 60 59 59 58 57 54 49 41 40 38 32 33 29 27 25
28 30 30 28 26 23 27 20 23 23 25 26 25 24 26 28 29 29 30 31 32 33 34 35 37 39 45 56 61 61 60 60 60 61 61 58 57 58 57 54 49 47 45 45 44 42 39 31 25
30 31 29 29 26 23 25 23 21 22 20 20 20 21 22 23 26 28 29 30 31 32 32 33 34 36 40 48 59 61 61 59 59 60 60 53 54 56 54 52 50 48 47 46 43 43 40 33 27
32 28 28 28 24 16 22 22 18 18 19 18 22 22 24 24 25 25 25 27 28 29 30 30 30 31 37 43 51 58 60 55 55 54 57 53 52 53 52 51 50 49 46 43 43 44 40 34 34
29 25 15 14 15 16 24 23 22 23 25 25 23 25 27 29 30 30 25 25 30 31 32 33 34 33 35 39 46 53 56 55 56 56 56 53 51 50 49 47 46 47 46 44 40 37 32 32 31
28 25 17 11 16 19 23 21 19 24 23 22 26 28 30 33 33 32 30 33 35 37 37 38 37 38 38 38 42 49 54 56 56 55 54 53 53 53 49 47 46 45 43 38 35 32 31 28 28
28 22 26 20 18 15 19 19 13 24 25 26 28 29 31 34 35 35 32 34 37 37 37 37 39 39 40 40 43 49 53 53 54 53 51 50 48 47 46 45 43 39 34 31 30 28 27 27 30
28 29 22 18 3 10 13 17 13 17 22 26 27 28 31 37 38 38 35 32 35 38 39 40 41 42 42 42 47 50 50 50 49 47 46 46 45 44 44 41 40 34 30 29 28 27 26 26 29
29 27 26 23 20 12 15 13 21 19 24 26 27 28 35 38 39 39 38 36 36 40 40 40 44 45 45 47 47 46 45 45 45 45 45 44 42 42 41 39 33 30 27 27 26 25 25 24 23
30 27 25 18 15 19 17 19 24 25 25 26 27 29 37 39 39 38 38 36 38 40 40 45 46 47 47 45 43 43 43 43 43 43 42 42 40 39 35 31 27 26 25 23 21 22 25 25 24

GFSSGP_sfc_dewp_054.txt.gz
Dewpoint
61 57 50 42 34 35 32 30 36 32 31 29 32 32 33 36 39 38 60 67 69 70 72 72 74 74 74 74 73 73 72 71 70 69 68 67 66 65 66 66 65 66 65 67 69 69 68 67 65
60 53 45 41 32 28 27 34 31 32 31 31 31 37 43 47 56 60 64 67 69 71 71 72 74 74 74 73 73 72 71 71 70 68 67 66 64 64 66 68 68 67 65 69 68 67 66 64 61
56 49 41 38 34 28 26 29 32 31 32 31 30 34 40 47 56 62 62 69 70 70 71 71 74 74 74 73 73 72 71 70 70 69 68 65 64 63 65 67 68 68 67 66 66 65 64 63 62
52 47 41 36 33 34 27 30 32 32 32 31 33 38 49 55 57 62 68 70 69 69 69 71 73 74 74 73 73 72 71 71 70 68 67 66 65 63 64 66 67 67 66 66 65 64 64 63 62
47 43 38 35 35 35 35 34 33 32 31 30 30 33 47 56 62 67 69 69 69 69 69 71 73 73 73 72 72 72 72 71 70 69 67 67 64 62 63 65 65 66 65 64 64 63 63 63 64
45 41 35 33 34 34 34 34 32 30 30 30 29 43 49 58 63 67 68 68 69 69 70 70 71 72 72 71 71 70 70 71 70 70 68 66 63 62 62 63 63 63 63 63 62 62 62 63 63
43 40 36 33 32 31 32 33 31 30 30 29 34 43 48 54 64 67 67 68 69 70 70 69 69 70 70 70 70 69 69 70 71 70 68 67 65 63 62 62 62 62 63 63 63 63 63 64 64
43 40 36 35 31 30 31 31 31 29 31 31 36 39 44 53 66 66 67 68 69 69 69 68 68 68 68 68 69 69 69 69 70 69 68 67 66 65 65 65 65 64 64 64 64 64 64 64 64
42 38 35 33 33 32 35 33 36 36 31 31 32 46 49 60 66 66 67 67 67 68 69 67 67 67 67 67 67 68 68 69 68 67 66 66 64 64 64 64 65 66 65 64 64 64 65 65 63
39 37 37 37 35 33 37 37 38 37 36 31 39 46 57 64 65 64 64 64 65 65 68 68 66 66 66 67 65 65 66 67 66 65 64 64 64 64 65 63 65 66 66 66 65 65 65 60 56
40 36 37 40 39 41 38 38 40 38 35 33 35 38 44 57 63 63 63 64 65 65 66 66 67 66 66 66 64 64 64 65 65 64 63 63 63 63 64 63 63 63 64 63 64 63 60 58 53
38 40 39 40 41 40 38 39 38 39 37 39 41 41 39 41 54 61 63 64 64 66 67 66 66 67 66 66 65 63 63 63 63 63 62 61 61 60 61 63 62 62 62 61 60 59 56 53 40
39 39 40 41 40 39 39 37 37 38 40 40 41 39 38 37 37 40 56 64 65 64 65 66 67 66 66 65 65 64 63 63 63 62 62 61 60 59 61 62 62 62 61 60 59 57 46 38 30
40 39 39 39 38 38 37 37 36 36 38 38 39 38 38 38 37 37 40 54 63 65 65 66 66 66 66 66 65 64 63 62 62 62 63 62 61 60 61 61 61 61 60 59 58 54 41 31 28
39 36 37 37 37 37 38 35 36 37 37 37 37 37 37 38 38 37 37 40 54 63 66 66 66 66 66 66 66 65 64 63 62 62 62 62 61 60 61 61 60 60 59 58 56 45 33 31 28
37 36 34 36 37 37 35 30 34 36 37 36 36 37 37 37 38 38 38 37 38 46 59 66 67 67 66 66 66 66 65 64 63 61 61 61 61 60 60 60 60 59 58 56 52 40 33 30 28
35 31 33 34 36 35 35 33 35 35 35 35 35 35 34 35 35 37 38 37 37 38 41 55 64 66 67 66 66 66 65 64 64 63 61 60 60 60 60 60 59 58 56 51 45 35 32 30 27
31 30 31 33 32 35 34 33 32 33 36 35 35 35 35 35 36 36 36 37 38 37 38 41 55 64 66 67 67 66 66 65 64 63 63 60 59 58 59 58 57 56 51 46 37 33 29 29 27
34 32 31 32 31 29 29 28 29 30 29 29 30 30 31 32 35 35 35 36 37 37 36 37 40 57 64 66 65 65 64 65 65 63 63 61 59 57 58 57 55 52 50 46 37 31 28 27 28
35 33 32 32 31 28 28 26 27 28 29 29 29 29 30 30 30 32 33 34 35 35 35 36 38 44 58 64 65 64 65 64 64 63 63 62 59 57 57 57 54 50 48 41 34 31 29 27 29
36 33 30 29 29 27 26 24 23 24 26 26 26 27 27 27 28 29 30 31 32 34 35 36 36 40 53 61 63 59 59 59 63 61 61 61 59 58 58 56 54 49 46 43 40 36 34 29 29
34 32 30 28 27 25 27 21 23 23 22 23 21 21 22 23 25 27 28 29 30 31 33 35 37 38 43 58 61 61 61 61 61 62 62 61 59 58 58 56 53 50 47 46 44 44 45 43 37
30 31 29 28 26 23 24 22 19 21 18 19 24 26 28 28 28 30 25 27 29 30 32 33 34 36 40 44 59 61 61 61 58 59 60 60 58 59 58 56 53 50 48 48 46 44 43 43 38
31 28 27 27 24 17 21 21 15 17 20 21 24 27 29 32 34 35 33 30 31 33 32 31 30 31 34 39 49 59 61 59 56 56 58 54 55 56 57 55 52 50 48 47 47 44 43 40 37
29 27 17 12 14 14 24 22 19 22 23 25 25 28 30 34 36 36 35 34 35 36 37 38 37 35 34 35 40 50 57 57 57 57 58 57 55 56 55 54 53 50 48 48 46 44 43 40 35
27 25 17 9 15 17 23 21 19 24 21 25 28 29 31 35 37 38 37 35 35 35 37 37 37 37 38 38 38 42 48 54 56 56 57 57 55 55 55 54 51 49 47 46 45 43 38 32 29
27 21 25 18 15 14 18 18 12 25 25 26 27 28 28 33 38 39 38 36 35 35 36 38 39 40 40 41 41 42 45 49 53 53 54 54 52 51 51 49 49 49 46 44 40 32 28 27 28
28 28 22 15 3 8 10 15 10 21 24 23 26 27 28 33 39 39 39 38 36 36 38 40 40 42 44 45 44 45 46 49 50 49 48 47 46 47 47 47 46 44 40 36 33 29 27 27 29
28 26 25 23 19 13 11 7 19 19 26 25 26 28 31 37 39 39 39 40 38 39 40 40 44 45 46 47 46 45 44 45 45 45 44 44 44 44 44 43 41 38 36 33 29 26 26 26 26
29 27 25 17 15 18 18 17 23 24 25 26 27 31 37 41 40 41 42 41 41 41 40 42 38 39 41 43 43 42 45 45 44 43 43 42 43 42 41 38 35 31 29 27 23 23 24 24 24

GFSSGP_sfc_dewp_057.txt.gz
Dewpoint
61 53 50 46 37 36 32 31 33 32 31 30 32 32 34 37 42 41 64 67 66 68 70 71 74 74 75 75 75 74 73 71 70 69 69 69 67 66 66 67 66 66 66 68 69 68 67 66 62
58 51 47 43 34 29 28 33 32 34 32 33 32 39 39 41 55 62 65 68 67 70 69 70 74 75 75 75 74 73 72 71 70 69 67 66 65 65 67 68 67 66 68 70 69 67 66 63 62
54 47 44 40 33 28 27 29 32 32 34 31 31 35 37 44 56 62 64 68 69 70 70 72 74 74 74 74 74 73 72 71 70 69 68 65 64 65 68 69 68 69 69 68 67 66 64 62 64
51 47 42 36 34 34 29 29 32 33 32 32 31 32 46 54 56 62 67 69 69 70 70 72 74 74 74 74 73 73 72 70 70 69 66 65 64 64 67 67 69 69 67 66 66 65 64 63 64
47 44 38 37 36 35 35 34 34 33 32 31 30 31 43 55 64 67 69 69 69 69 69 70 73 74 74 74 73 73 72 71 70 69 67 66 64 63 66 66 67 67 66 65 65 64 64 64 64
44 41 36 33 35 35 35 35 33 32 31 30 30 36 46 61 65 67 68 68 69 69 69 69 71 73 73 73 73 73 73 72 70 69 68 66 64 63 64 65 66 66 65 64 63 63 63 64 64
44 40 35 34 33 33 33 34 32 32 31 30 33 37 45 56 66 66 67 69 68 69 69 69 69 70 71 71 71 71 71 72 71 71 69 67 65 64 63 63 63 63 63 63 63 63 63 64 64
45 40 37 35 31 31 32 33 32 31 29 31 37 35 37 55 66 66 68 68 67 69 69 69 69 69 69 68 70 69 69 70 70 70 68 66 65 65 64 65 65 64 64 64 64 64 65 65 64
43 39 35 35 32 32 34 31 36 36 34 32 33 43 51 60 65 65 66 66 66 67 69 69 68 68 68 67 67 68 68 68 70 68 66 65 62 62 62 64 66 66 65 64 64 65 66 64 62
41 39 37 36 36 34 36 36 37 36 37 33 43 42 61 63 64 63 63 64 64 65 67 68 68 68 67 66 66 66 65 65 67 65 65 64 64 63 62 62 65 67 66 66 65 66 65 60 54
40 37 38 39 37 40 39 38 40 37 35 35 36 40 56 62 63 62 62 63 63 64 67 67 68 67 67 66 66 65 66 67 67 65 64 65 64 64 64 63 62 64 64 64 65 65 61 59 53
39 40 38 39 42 40 39 39 38 39 38 38 41 41 39 59 60 62 62 62 64 64 65 66 66 67 67 66 65 64 64 66 66 66 64 64 64 64 65 64 64 64 64 64 64 62 60 59 49
39 39 40 41 40 40 39 38 38 38 40 41 41 41 40 38 40 52 62 63 64 64 65 67 66 66 67 67 66 64 63 64 66 66 65 63 63 63 64 65 65 64 63 63 62 60 55 50 40
40 39 39 39 39 38 37 37 37 38 38 38 39 39 39 39 39 38 42 57 64 64 64 65 66 67 66 66 66 65 63 63 65 65 65 64 63 63 63 63 64 64 63 62 61 59 50 42 35
39 38 38 37 38 37 38 35 36 38 38 37 37 37 39 39 39 39 39 40 54 64 65 65 65 67 66 66 66 66 65 64 62 64 64 63 63 62 62 62 63 64 64 62 60 54 43 36 32
38 37 34 36 38 37 36 30 34 36 37 37 37 37 38 38 38 39 39 39 39 46 61 66 66 66 67 66 66 67 66 65 63 62 62 63 63 62 62 62 62 63 63 62 59 52 42 37 33
36 33 33 34 38 36 35 33 35 36 35 35 35 35 35 36 36 36 37 39 39 39 41 57 66 66 66 66 66 66 66 66 66 63 61 61 62 62 62 61 61 62 62 61 57 49 43 37 34
33 32 33 31 32 35 35 35 35 32 33 34 34 35 36 36 36 37 38 38 38 39 39 41 55 66 67 67 66 67 66 65 65 65 63 62 61 62 61 61 61 61 61 60 54 49 39 38 35
33 33 32 33 31 30 31 30 30 31 31 31 31 31 31 31 32 36 37 37 38 38 38 38 41 52 65 66 65 65 65 65 65 65 64 63 61 61 61 61 60 60 59 58 54 46 39 34 31
34 33 32 32 30 29 28 27 29 30 30 30 30 30 30 29 26 27 31 34 35 36 37 38 39 41 53 63 64 65 64 65 65 64 64 64 62 61 61 60 59 58 58 56 50 44 37 34 32
35 33 31 31 29 27 27 26 24 24 24 24 24 25 26 27 28 29 27 30 33 33 36 37 38 40 44 58 64 64 64 63 64 64 64 63 63 61 61 60 59 57 57 54 49 45 42 37 32
36 35 30 28 28 26 27 23 25 22 23 26 27 29 31 33 33 34 32 30 31 34 37 37 38 40 41 50 60 62 61 61 62 63 64 63 63 61 60 60 59 58 57 55 51 46 46 43 38
36 32 29 28 26 24 24 23 21 20 19 23 26 29 32 35 36 36 36 34 35 39 39 36 35 37 41 43 56 62 61 62 63 63 63 63 62 62 60 60 59 57 55 55 51 48 46 46 43
34 28 28 26 24 21 20 22 15 18 21 22 25 29 31 35 38 38 38 37 38 40 41 42 39 35 35 38 44 58 61 61 61 61 62 62 61 61 60 60 59 57 55 53 51 50 47 46 45
30 30 23 18 20 19 24 22 20 21 23 25 28 29 30 34 39 40 39 38 39 40 40 40 40 39 40 39 38 42 52 59 60 60 60 61 58 58 59 59 58 57 54 53 52 50 49 46 43
27 29 22 12 14 16 23 21 18 24 23 26 28 29 30 33 38 40 40 39 40 40 40 39 40 41 41 42 41 40 43 49 56 59 60 60 60 59 59 58 58 56 53 52 50 49 48 46 43
28 26 24 20 18 18 18 19 16 24 24 27 27 31 33 33 38 40 40 40 41 40 40 40 41 42 45 46 46 45 44 45 49 53 57 59 58 57 57 56 55 53 52 50 49 48 45 43 37
29 28 24 21 12 10 8 11 8 21 24 23 27 29 32 37 41 41 41 41 41 41 41 42 43 44 44 46 47 47 48 49 49 51 52 54 53 53 52 52 50 50 49 47 46 42 38 31 30
28 27 25 22 19 14 7 5 18 19 23 26 27 29 34 41 41 40 41 42 42 41 41 41 39 39 40 43 45 46 46 47 48 49 49 50 49 49 49 48 46 44 41 39 36 33 32 31 28
29 27 24 20 18 19 19 14 21 22 25 26 28 31 41 41 38 36 36 39 36 36 37 37 38 39 40 42 43 44 45 46 47 46 46 46 46 46 45 43 40 36 34 32 29 28 28 28 27

GFSSGP_sfc_dewp_060.txt.gz
Dewpoint
61 53 49 46 36 33 27 26 30 32 31 31 32 32 32 35 37 39 63 65 62 66 67 71 74 75 75 75 75 74 73 72 71 71 70 69 68 67 67 66 67 66 66 69 68 68 66 64 63
57 48 47 42 31 28 24 27 28 30 31 33 32 33 38 38 51 59 62 65 64 66 67 68 74 75 75 75 74 73 72 72 70 69 68 67 65 66 66 67 66 66 68 69 68 67 64 63 64
53 47 41 37 32 27 24 27 26 30 32 31 31 35 36 42 54 59 63 65 66 66 66 68 74 75 75 74 74 73 72 71 70 69 67 65 65 68 69 68 69 70 69 68 67 65 63 64 64
47 44 41 34 31 31 28 29 30 32 31 32 30 31 44 54 55 60 65 64 65 65 66 72 74 75 75 74 74 73 72 70 70 70 67 65 65 67 69 69 69 68 68 67 66 65 63 64 65
47 42 37 35 32 31 32 30 32 31 31 28 30 31 37 56 62 64 65 65 65 65 66 69 74 75 74 74 74 73 72 71 71 69 67 65 64 65 67 67 68 67 67 66 65 64 63 64 65
42 41 34 33 32 32 33 33 32 31 30 27 29 31 39 59 62 65 66 65 65 65 66 67 72 74 74 74 73 73 73 72 71 69 68 66 64 64 66 66 67 66 65 64 64 64 64 64 65
41 39 34 31 31 33 33 33 33 29 29 26 30 30 42 55 64 67 66 65 66 66 65 65 68 70 72 73 73 73 73 72 71 70 69 67 66 65 65 66 66 65 64 63 63 62 63 64 64
42 39 33 32 30 31 33 33 31 29 26 32 32 30 37 53 65 67 67 66 66 66 64 64 65 66 67 68 71 71 71 71 71 70 68 66 65 65 65 65 65 63 63 63 64 64 64 65 64
45 34 31 33 32 30 32 31 32 33 29 30 33 38 51 56 65 66 65 65 66 65 64 64 63 64 65 65 67 69 69 69 70 68 66 64 58 60 61 63 66 66 65 65 64 65 66 64 63
36 32 28 32 33 31 32 29 33 32 32 31 36 43 59 62 64 64 63 63 64 65 65 64 64 64 63 63 63 62 61 61 60 66 65 63 59 58 57 62 66 66 66 66 65 66 64 61 56
36 30 33 37 35 34 33 34 37 32 33 31 33 42 57 61 63 63 63 63 64 64 65 66 65 64 64 61 61 61 61 59 60 64 63 62 60 60 59 59 61 61 64 60 63 64 59 57 54
36 34 35 40 40 39 36 36 35 35 31 36 41 41 44 58 60 62 62 63 63 64 65 66 66 66 65 62 62 61 60 60 59 61 62 62 61 60 59 60 59 59 59 59 59 59 59 58 53
37 37 37 38 40 39 39 37 35 36 38 39 39 41 40 40 55 61 62 62 63 64 64 65 66 66 66 65 63 63 62 60 60 61 61 61 61 60 59 61 62 60 58 58 59 59 58 57 52
39 37 37 37 38 38 37 37 38 36 37 36 37 37 37 39 40 42 53 60 62 63 64 65 65 66 66 67 66 64 63 61 60 61 62 62 61 61 59 60 62 62 61 58 58 57 56 54 50
39 37 36 37 36 34 37 34 35 35 34 33 33 33 35 38 39 40 41 42 46 54 60 64 65 66 66 66 67 66 65 63 61 61 62 62 62 62 60 59 61 61 62 61 58 57 56 51 45
36 35 32 32 35 37 35 23 32 35 34 33 33 32 34 35 36 37 38 40 40 41 47 55 62 65 66 66 67 67 66 65 63 62 61 62 62 62 61 59 59 61 61 62 60 57 54 51 45
35 26 27 32 36 32 33 25 29 34 34 33 32 33 34 35 35 36 37 37 38 38 39 42 53 60 64 66 66 68 67 66 65 64 62 62 62 62 61 59 59 59 61 61 60 58 54 51 46
29 28 29 26 33 36 33 28 32 35 34 33 32 31 32 33 34 35 37 38 38 38 38 39 41 50 58 64 66 67 67 67 66 65 64 63 61 62 62 60 59 59 60 61 61 58 54 52 49
29 29 26 30 31 31 32 32 33 34 33 32 31 30 30 32 33 33 33 34 35 37 38 39 40 42 49 58 65 66 65 66 66 65 66 64 63 62 62 61 60 59 59 60 61 59 54 49 48
31 27 27 33 32 31 30 30 31 32 32 31 30 30 30 29 28 28 28 30 31 33 35 37 39 41 42 49 59 63 63 64 65 65 65 65 64 64 63 62 61 61 59 59 60 59 53 51 45
32 28 31 29 30 29 28 27 28 24 24 26 27 30 32 33 31 32 31 32 34 33 35 36 38 40 41 44 50 59 62 64 64 65 65 64 64 65 64 63 62 62 61 59 60 59 54 50 44
32 34 33 30 30 26 28 18 24 23 27 29 32 35 36 36 36 36 36 37 37 41 41 37 37 38 40 43 45 53 57 58 60 60 62 63 64 64 64 63 63 63 62 60 60 58 56 54 46
35 35 31 29 28 26 24 24 20 22 24 27 30 33 36 39 39 38 39 39 40 43 44 43 39 35 38 40 44 48 55 55 57 59 61 61 64 63 63 63 62 62 62 61 59 57 55 55 50
31 29 28 28 27 26 22 23 15 18 21 26 28 31 34 38 41 41 41 41 42 45 44 43 41 40 40 37 41 45 50 54 57 59 61 62 63 63 62 62 62 62 61 60 60 58 56 54 54
34 31 29 27 28 23 23 20 17 21 22 25 31 33 34 38 41 42 41 41 43 44 44 42 42 41 42 42 40 39 43 49 56 58 59 59 61 61 61 61 61 61 61 60 59 57 56 55 53
30 31 30 16 13 15 23 19 17 23 24 27 28 32 36 39 41 42 42 43 44 44 44 43 42 42 44 45 45 44 43 42 44 48 53 55 56 59 60 60 60 60 59 58 57 56 55 54 53
29 31 25 25 22 21 17 20 21 23 23 27 27 31 36 40 42 42 42 42 43 43 43 44 42 43 43 44 46 46 47 48 47 47 48 51 54 57 58 59 58 59 57 56 54 54 53 52 51
30 28 27 31 21 15 11 10 13 22 24 26 28 32 36 41 40 39 39 42 42 41 42 42 41 41 42 44 45 46 48 49 50 51 51 50 51 53 55 56 57 55 54 52 51 51 50 49 44
28 29 26 23 20 17 3 6 19 25 25 26 28 32 39 40 38 38 39 39 38 39 40 39 40 41 42 43 45 47 48 48 49 49 49 50 51 51 52 53 52 51 50 49 47 43 41 38 37
29 27 24 24 21 22 23 11 18 23 26 26 29 35 39 37 35 38 36 35 36 37 38 38 38 38 39 42 44 45 46 47 48 48 47 47 48 48 49 48 47 45 42 39 36 34 32 30 30

GFSSGP_sfc_dewp_063.txt.gz
Dewpoint
60 56 47 44 35 31 28 27 25 27 27 29 31 29 28 33 34 41 61 62 62 65 68 70 75 75 75 75 75 74 74 73 72 71 71 69 68 68 67 67 66 66 68 68 68 67 65 64 64
55 50 45 41 32 28 25 26 27 25 30 32 32 32 31 32 48 58 60 63 62 64 67 68 75 75 75 75 74 73 72 72 71 71 69 67 65 65 67 66 67 67 69 69 68 66 64 64 64
58 48 41 37 33 26 26 25 25 29 30 31 31 35 34 42 53 57 62 62 63 64 65 69 75 75 75 75 74 73 72 71 70 69 67 66 65 69 68 67 70 70 70 68 66 64 64 64 65
52 45 42 36 31 31 27 25 25 27 30 31 31 33 40 53 54 59 63 62 63 63 64 72 75 75 75 74 74 73 72 71 69 68 66 65 66 70 69 70 69 68 68 67 65 64 64 65 65
48 42 37 35 33 31 29 28 28 27 29 29 29 31 40 57 60 62 61 62 62 62 67 69 75 75 74 74 73 73 72 70 69 68 66 65 66 68 69 68 68 68 67 66 65 64 63 65 65
45 42 35 33 32 31 30 31 29 30 28 28 28 30 45 59 61 63 62 62 62 62 66 69 73 73 74 74 73 73 72 71 70 69 67 65 64 67 67 68 67 67 66 65 65 64 63 65 65
42 40 36 33 30 31 30 31 29 29 29 27 28 30 45 58 64 64 63 62 63 63 63 66 67 71 73 73 73 73 73 71 70 70 69 67 65 65 67 66 66 66 65 63 63 63 64 64 65
42 40 36 34 30 30 31 32 30 30 28 29 28 29 38 55 65 66 65 63 63 63 62 63 65 68 69 70 71 72 72 71 70 69 68 66 65 66 66 66 66 64 63 63 63 63 64 64 64
42 37 34 33 31 29 30 31 32 30 27 28 28 35 50 59 65 65 64 63 63 63 62 61 62 66 66 67 68 70 70 70 70 68 66 64 58 59 61 63 65 65 64 64 64 64 65 65 63
39 37 34 33 32 31 30 31 30 30 28 25 29 42 54 59 64 63 63 63 63 62 61 61 61 61 62 61 66 65 65 65 65 65 64 62 57 55 55 62 66 66 66 66 65 66 66 63 57
36 29 31 29 34 34 31 30 27 30 26 26 28 33 52 57 62 62 63 63 63 63 63 62 62 61 61 60 60 59 59 59 57 59 64 63 59 57 57 60 61 62 64 61 63 64 60 57 54
34 32 29 35 37 35 31 30 32 31 29 31 37 40 46 54 57 60 61 61 62 63 64 63 63 63 62 60 58 58 59 59 56 60 63 60 59 58 56 56 57 58 59 58 59 59 58 57 54
36 33 32 36 39 37 32 30 32 32 35 37 38 39 39 42 53 59 60 60 61 61 64 65 65 65 64 63 61 60 60 59 58 58 60 59 59 59 57 58 58 57 57 57 57 57 57 56 53
37 36 35 35 39 39 37 32 35 34 34 35 35 35 36 38 41 47 58 59 59 61 62 64 65 66 66 65 63 63 62 61 60 59 59 59 59 59 59 58 60 61 58 56 56 56 56 55 53
37 34 35 34 35 35 37 34 34 34 35 33 31 32 32 34 37 40 43 49 55 58 60 62 64 65 65 65 66 65 64 63 61 60 60 60 60 60 59 58 59 61 62 60 57 56 55 55 52
37 35 32 34 35 34 35 27 31 34 32 32 30 28 29 29 30 33 39 42 44 44 47 56 61 63 65 65 67 67 65 64 63 62 61 61 61 60 60 59 58 59 61 62 61 57 56 54 51
34 28 28 28 32 34 34 26 28 32 31 29 28 28 29 30 31 30 32 37 39 41 42 43 48 57 62 64 65 67 67 66 65 63 62 61 61 61 61 60 59 58 59 61 61 59 56 54 52
28 27 23 23 32 31 30 29 27 29 32 30 28 28 29 30 30 31 32 34 35 37 38 39 40 42 50 58 63 67 67 66 67 65 63 62 61 62 62 61 59 58 59 60 61 60 58 55 53
23 25 22 23 33 31 28 28 27 29 31 30 29 27 27 27 29 33 34 34 35 36 38 38 39 40 41 49 55 65 66 66 65 66 65 64 63 61 63 63 61 60 59 59 61 60 59 56 54
27 25 25 29 30 29 26 28 29 30 30 30 29 29 29 29 30 29 30 30 31 32 34 37 38 39 40 43 48 62 63 64 65 66 66 66 65 64 63 63 62 61 60 60 60 59 58 56 54
27 25 24 26 31 30 28 27 27 28 27 27 26 28 29 30 30 31 32 34 35 35 37 35 37 40 42 44 44 49 61 63 63 65 65 65 64 65 65 64 63 63 62 60 60 60 59 56 53
27 27 25 30 28 20 27 10 25 25 26 27 29 32 33 34 34 35 35 37 38 42 45 40 38 38 39 43 43 45 49 56 59 59 61 63 63 64 64 65 63 64 63 62 61 60 60 58 53
32 34 32 32 30 28 27 23 22 24 25 28 31 34 36 38 38 37 39 40 42 45 46 44 41 37 38 40 41 43 45 50 56 57 57 58 61 63 64 62 64 63 63 63 62 61 60 59 55
36 33 32 31 29 28 25 23 20 21 23 27 29 31 35 38 39 40 41 41 42 46 46 45 42 40 41 40 40 42 46 47 52 54 56 58 60 62 63 62 62 63 63 62 62 62 61 59 58
34 33 31 30 29 25 22 21 19 20 23 26 29 31 34 37 39 41 41 42 44 45 46 44 43 41 42 44 43 40 41 44 48 52 55 56 58 60 62 62 62 62 62 62 61 61 60 58 57
35 34 32 23 20 21 22 19 17 21 22 29 30 33 36 39 40 42 42 43 44 44 45 44 43 43 43 43 44 44 45 43 42 43 46 50 53 54 56 61 60 60 61 61 60 60 59 57 57
35 34 28 25 21 20 16 18 22 23 23 26 28 32 36 39 41 40 40 41 43 42 42 43 43 42 42 43 44 45 46 48 49 49 48 47 47 50 53 57 58 59 60 60 59 58 57 56 56
31 30 28 33 23 14 14 12 14 21 24 25 28 32 36 40 40 39 39 41 40 40 41 41 41 41 42 43 44 45 47 48 49 49 50 50 50 51 52 54 54 57 58 57 56 55 54 53 50
28 30 26 24 20 19 4 7 19 21 22 27 29 33 38 40 38 38 39 38 39 40 40 40 39 40 41 43 44 45 46 47 48 48 48 48 49 50 50 51 51 53 53 52 51 48 49 43 40
29 27 26 25 21 22 24 14 20 25 26 27 30 34 39 38 37 37 37 36 37 37 37 38 37 37 37 40 41 42 43 43 43 42 42 43 44 45 46 47 48 47 46 44 41 41 38 37 38

GFSSGP_sfc_dewp_066.txt.gz
Dewpoint
60 54 54 50 41 38 33 31 28 30 30 30 30 29 30 31 49 52 60 61 65 66 71 72 75 75 75 75 75 74 74 73 73 72 71 70 69 68 67 67 66 68 69 68 68 66 66 65 64
57 53 52 47 37 32 29 28 29 28 32 31 31 31 30 47 57 58 61 62 66 68 69 71 75 75 75 75 74 74 73 73 72 71 69 67 66 67 67 67 67 69 70 68 66 65 65 64 65
59 56 47 41 37 31 29 28 28 30 30 31 31 33 30 49 55 59 62 61 65 67 67 71 75 75 75 75 74 74 73 71 70 69 68 66 68 68 68 70 69 70 69 67 65 65 65 65 65
52 52 46 39 33 34 30 27 27 29 31 32 31 33 49 56 57 61 62 61 64 65 70 74 75 75 75 74 74 73 72 71 70 68 67 66 70 70 70 70 69 70 69 66 65 65 65 66 65
51 48 40 36 36 34 31 29 28 27 29 31 30 35 53 58 61 61 61 62 63 66 70 73 75 75 74 74 74 73 72 70 69 67 66 66 70 70 69 69 68 68 67 66 65 65 65 66 65
50 46 39 36 35 34 33 30 28 28 29 29 28 37 54 59 61 61 61 61 63 67 68 71 74 74 74 74 73 73 72 71 70 68 67 65 69 69 69 68 68 67 67 66 65 64 65 65 65
50 45 40 38 35 33 33 31 29 29 29 28 28 32 56 61 63 62 61 62 62 66 68 69 72 72 72 73 73 73 72 71 70 70 69 67 67 69 68 68 67 66 65 65 64 65 64 65 65
47 48 42 39 35 33 33 31 30 29 28 29 28 39 56 62 65 65 62 62 62 62 66 67 68 70 71 72 72 72 71 70 69 69 68 66 65 66 68 68 67 66 64 64 64 64 64 65 64
43 41 41 42 38 34 33 31 33 32 30 29 28 49 57 63 64 65 64 62 62 62 62 63 65 68 69 69 69 70 71 69 69 68 66 64 61 62 64 65 66 66 65 64 64 64 65 66 64
38 38 38 39 36 34 34 33 32 30 29 28 31 50 58 62 64 63 63 62 62 61 61 62 64 66 66 67 68 68 68 68 67 66 63 62 59 57 58 63 65 66 66 66 65 66 66 64 60
39 36 37 35 36 36 34 32 33 30 30 29 27 42 54 59 62 62 62 62 63 63 61 61 61 63 62 65 67 65 66 65 65 65 64 63 60 58 61 63 64 64 64 64 65 66 63 60 58
36 36 34 34 38 37 34 32 30 29 31 35 40 43 53 54 60 61 61 62 63 63 63 62 62 62 60 60 59 59 59 60 58 60 64 63 61 58 57 61 61 61 62 60 62 63 61 59 56
39 36 33 35 39 38 34 33 31 32 36 38 39 40 40 46 55 58 60 60 62 62 63 64 64 65 62 61 59 59 59 59 58 60 63 63 61 58 57 57 58 58 60 59 60 59 59 57 55
38 37 34 35 39 37 34 32 32 32 34 35 37 37 37 39 41 54 59 59 59 61 63 64 65 65 66 63 62 61 61 60 60 59 60 60 60 60 58 58 58 58 58 57 58 57 57 56 55
38 35 36 34 38 38 39 33 33 33 34 33 34 34 34 34 37 39 45 57 58 60 61 64 64 66 65 65 66 65 64 63 61 61 59 59 60 60 60 58 60 60 61 60 56 56 56 56 55
39 36 34 34 36 37 36 32 34 35 34 33 32 30 31 32 33 34 39 42 45 45 46 61 64 65 65 65 65 66 66 65 63 62 61 60 60 60 60 59 59 61 61 61 61 58 56 55 53
38 32 33 32 35 34 34 32 32 33 33 33 31 30 28 28 29 34 31 34 39 43 42 44 47 61 65 65 65 67 67 66 66 65 62 61 61 61 61 61 59 58 60 61 60 60 56 55 52
32 32 28 28 32 33 34 33 30 31 31 30 29 28 28 29 30 31 32 38 35 38 39 41 44 44 45 62 65 66 66 66 67 66 65 63 62 62 61 61 60 58 59 60 61 59 59 55 53
30 29 27 27 31 32 32 32 31 29 32 32 30 28 28 29 30 32 33 33 33 35 37 37 39 41 42 44 53 65 66 66 66 66 66 66 63 62 62 62 62 60 58 58 61 60 59 57 53
30 27 26 26 33 31 30 29 28 28 31 31 31 29 28 29 30 30 30 30 31 32 34 37 38 40 41 43 45 58 65 65 64 65 65 66 66 64 63 62 62 62 60 59 59 60 59 58 55
28 26 24 26 30 30 28 26 28 29 30 28 28 28 29 30 30 31 33 35 38 42 43 40 38 39 40 43 45 46 62 63 63 63 64 64 65 65 64 63 62 62 62 61 59 60 59 58 57
31 27 27 29 29 24 28 15 24 27 26 26 26 28 31 33 34 35 37 38 41 44 46 45 39 38 38 40 42 43 45 53 60 63 65 65 64 64 64 63 64 63 63 62 61 61 60 58 56
30 32 31 31 29 28 26 24 23 26 25 26 29 34 35 36 36 38 39 41 44 46 46 45 43 40 39 39 41 42 43 45 48 56 58 58 59 63 63 62 61 61 63 63 62 62 60 60 59
37 34 32 31 31 27 27 24 22 23 25 28 31 34 36 38 39 40 41 42 44 46 46 46 44 42 42 42 40 40 42 43 45 50 54 56 58 60 62 62 62 62 62 62 62 62 61 61 60
38 32 28 26 27 24 23 24 23 24 26 28 29 32 35 38 40 41 42 43 44 45 45 45 44 43 44 44 44 44 42 41 42 45 50 53 56 58 60 61 60 61 62 62 62 62 61 60 59
34 33 27 19 22 22 22 21 19 23 27 29 32 34 36 39 41 41 42 42 43 43 43 43 44 43 43 43 44 45 46 48 47 48 47 47 47 50 52 58 59 60 61 61 61 61 60 60 59
36 33 29 25 22 22 20 20 22 22 28 28 29 33 37 40 41 40 39 42 41 40 41 41 41 42 43 43 44 46 47 48 48 49 50 50 50 50 51 53 54 58 59 59 59 59 59 58 57
38 35 28 28 16 16 16 18 18 21 24 26 29 32 37 40 39 39 40 39 39 40 41 40 40 41 42 43 44 46 47 47 48 48 48 48 49 50 50 50 51 52 53 56 56 56 55 54 50
34 33 31 25 22 20 12 12 20 22 24 25 29 33 38 40 38 38 38 38 39 39 39 38 38 38 39 41 43 43 43 44 43 42 42 42 44 45 45 47 49 49 49 50 50 49 49 45 42
30 29 28 25 22 22 22 16 21 22 25 29 30 35 40 38 37 37 36 36 37 37 37 36 36 36 37 38 39 39 38 38 38 38 36 35 34 34 34 35 36 37 37 39 41 40 40 41 39

GFSSGP_sfc_dewp_069.txt.gz
Dewpoint
58 56 53 51 38 37 33 33 27 28 27 31 31 30 30 41 52 48 60 67 69 71 73 74 75 76 76 75 75 74 74 73 73 72 71 70 69 67 67 67 68 69 69 67 67 66 65 65 64
61 57 52 45 36 31 30 30 27 30 31 31 30 31 38 53 58 59 62 67 69 71 71 72 75 75 75 75 75 74 74 73 72 71 69 67 67 67 67 67 68 70 69 67 66 65 65 65 63
58 56 50 41 38 32 30 30 28 30 30 31 31 32 44 51 58 60 63 66 69 69 71 73 75 75 75 75 74 74 73 73 71 69 67 67 68 68 69 69 70 70 68 66 66 65 65 65 63
51 52 46 40 36 36 34 32 31 30 30 31 31 47 54 58 59 62 64 68 68 68 71 74 75 75 75 74 74 73 72 71 69 68 67 69 70 70 70 71 70 70 68 66 66 66 65 65 64
54 51 41 38 37 37 35 32 28 29 30 31 30 44 55 60 62 61 63 66 68 70 72 74 75 75 74 74 74 73 72 70 68 67 67 70 71 70 70 69 69 69 67 66 66 65 65 66 65
51 51 42 36 36 37 36 29 27 28 29 28 37 52 57 61 60 61 63 67 69 70 72 73 74 74 74 74 73 72 72 70 69 68 67 70 70 69 69 69 68 68 67 66 65 65 65 65 65
49 45 42 38 36 37 37 31 27 28 29 29 30 52 58 62 64 62 64 68 68 70 71 73 73 72 72 73 72 72 72 71 70 69 68 69 70 69 68 68 67 67 66 66 65 65 65 65 65
52 49 41 41 39 37 37 31 29 28 28 30 34 52 57 62 65 65 63 67 68 68 70 71 71 71 71 71 71 71 71 70 70 69 67 66 68 68 69 68 68 66 65 65 65 65 65 66 65
49 45 41 41 41 40 40 38 32 31 29 33 48 55 62 64 65 64 62 63 66 67 68 70 69 70 70 70 70 70 70 69 68 68 66 64 63 65 66 66 67 67 66 64 64 65 66 66 65
42 42 38 38 41 41 39 37 38 29 29 34 53 62 63 64 63 63 62 62 62 63 65 67 68 69 69 68 69 68 69 67 67 65 63 61 61 62 63 63 65 67 66 66 65 66 67 65 61
40 38 40 40 41 45 40 35 35 30 31 30 46 59 62 63 62 62 62 62 61 62 63 64 66 67 67 67 68 67 68 67 66 65 62 62 60 59 61 62 64 64 64 64 65 66 64 62 59
36 38 38 39 40 44 40 32 31 31 34 39 38 55 59 61 62 62 62 62 62 63 63 63 65 65 64 67 66 66 66 66 66 65 63 63 59 59 61 62 62 62 63 62 62 63 62 61 59
40 38 36 37 39 38 35 33 32 31 38 38 38 42 55 59 60 62 62 63 63 63 63 64 64 63 61 64 63 61 63 63 62 63 64 63 61 57 60 61 61 62 62 61 61 62 62 60 58
40 40 39 37 39 38 34 34 32 32 36 36 37 37 37 44 57 58 59 60 63 63 63 64 64 65 66 62 58 58 59 60 59 61 64 63 62 57 57 58 59 59 60 60 59 60 60 59 57
43 38 39 37 38 38 36 32 32 34 34 34 35 34 35 35 38 55 59 59 60 62 63 64 64 65 65 65 65 65 62 61 60 59 61 62 61 59 58 57 58 57 58 58 57 58 57 57 56
40 36 34 35 38 38 33 30 34 35 36 34 33 32 33 33 33 36 40 48 55 59 62 64 64 65 65 65 65 65 66 66 63 61 60 59 59 60 60 59 58 60 60 60 60 57 56 56 55
39 35 34 33 37 37 33 32 33 34 34 33 33 32 31 30 30 31 32 34 38 42 43 57 64 65 65 65 65 65 66 66 66 66 62 60 59 60 60 60 59 59 61 60 60 60 57 55 54
36 33 32 32 33 34 34 33 33 31 33 33 32 30 30 29 29 31 33 34 35 35 37 39 45 62 65 65 65 65 64 65 66 66 66 65 61 60 60 60 60 59 60 61 60 59 59 56 54
35 34 30 31 33 33 32 33 33 33 30 30 31 31 29 29 30 31 30 30 31 32 33 35 38 39 43 51 63 64 64 63 64 65 65 65 66 63 62 61 61 60 58 58 61 60 58 58 54
33 32 30 28 30 32 32 32 34 33 31 31 31 31 30 30 29 30 30 32 37 41 41 39 38 38 40 43 44 63 65 64 65 65 65 65 64 65 64 62 62 61 59 58 60 60 58 58 55
34 32 29 26 31 30 29 29 31 31 30 31 30 30 29 30 31 33 37 40 42 43 44 43 38 38 39 40 43 45 61 62 62 62 62 64 64 64 64 63 62 61 61 59 58 60 59 58 56
32 32 30 30 29 26 28 22 24 28 28 27 26 27 29 33 34 37 38 41 43 44 45 44 43 38 38 39 40 41 43 47 57 62 63 63 64 63 63 63 63 62 61 61 61 61 61 59 57
34 35 30 31 28 27 26 23 23 27 26 26 26 28 33 33 36 38 40 43 45 46 45 44 43 41 41 39 39 41 41 44 46 48 54 61 63 64 63 63 62 61 60 60 60 59 60 60 60
42 35 32 31 31 24 27 25 22 25 26 26 30 35 36 38 38 39 41 44 45 46 46 45 44 43 44 44 44 42 40 41 43 44 47 52 56 58 60 62 61 61 62 61 60 61 61 60 60
39 35 28 26 22 21 26 25 24 25 26 28 33 35 37 39 40 41 42 43 44 44 43 44 44 43 43 44 45 46 47 47 46 46 46 46 48 52 52 58 59 59 60 61 61 61 60 60 60
35 32 23 18 20 22 22 24 23 23 27 31 33 34 37 40 41 42 41 42 41 41 41 42 41 42 43 44 45 47 47 48 49 49 49 50 50 50 51 53 55 57 59 60 60 59 60 60 59
36 33 31 24 22 20 21 21 21 28 30 31 33 35 38 40 41 39 41 40 39 40 41 41 41 42 43 44 45 46 47 48 48 47 48 48 48 49 49 50 50 52 52 54 56 57 58 57 58
39 37 29 27 18 17 18 18 19 25 28 29 32 34 38 40 39 39 39 39 39 40 40 39 39 39 40 42 43 42 43 42 41 40 39 41 41 43 45 48 48 48 48 49 50 50 51 54 49
36 35 32 27 23 18 13 14 20 23 27 27 30 33 39 39 38 39 37 38 39 38 38 36 36 37 38 39 39 38 39 39 38 37 36 35 34 35 35 38 39 39 40 42 44 44 44 44 43
35 34 33 24 22 21 20 19 22 23 27 27 31 36 40 38 38 37 36 37 37 36 36 35 35 36 37 38 38 37 36 36 36 36 35 34 33 33 33 33 33 34 34 35 38 39 40 40 39

GFSSGP_sfc_dewp_072.txt.gz
Dewpoint
57 56 54 48 38 36 33 34 31 28 28 31 31 41 47 47 50 41 62 68 72 73 74 74 75 76 75 75 75 75 74 74 73 71 71 69 68 67 67 69 69 69 67 67 66 66 65 64 63
59 56 50 44 37 32 31 32 30 28 30 30 31 32 50 54 58 63 65 70 72 72 73 74 75 76 75 75 74 74 74 73 73 71 69 68 67 67 67 68 70 69 67 66 65 65 64 63 62
57 56 48 41 37 32 31 31 29 31 30 31 30 39 50 55 59 61 67 69 71 71 72 74 75 75 75 75 74 74 73 72 70 69 68 68 68 68 68 69 70 68 67 66 65 65 64 63 63
51 51 46 41 37 36 33 35 34 30 31 31 41 51 56 59 59 64 68 69 69 70 72 74 75 75 75 74 74 73 72 70 69 68 68 70 69 69 69 71 70 69 68 66 66 65 64 64 64
52 49 42 38 39 39 38 37 35 29 31 31 35 52 56 60 62 66 68 68 68 71 73 74 75 75 74 74 74 73 72 70 68 67 70 70 70 71 71 70 70 67 67 66 66 65 65 65 64
50 49 41 38 38 37 38 37 29 28 30 34 54 55 56 62 61 67 68 67 69 71 73 74 73 74 74 74 73 72 71 70 68 68 71 70 68 70 70 69 68 67 67 66 66 65 65 65 64
47 42 39 39 38 36 37 37 29 28 28 28 51 53 57 60 64 65 68 68 70 71 72 73 73 73 72 73 72 72 71 70 69 69 70 70 70 69 69 69 68 68 67 66 66 65 65 65 64
52 46 40 40 40 38 43 41 36 28 28 30 51 55 57 61 64 66 68 68 69 70 72 72 72 72 71 71 71 71 70 70 69 69 69 69 69 69 69 68 68 67 66 65 65 65 65 66 65
54 45 40 40 43 41 46 45 39 33 37 47 54 58 60 64 64 65 67 67 68 70 70 71 70 70 70 70 70 70 70 69 69 67 66 66 66 67 67 66 67 67 66 65 65 65 66 67 66
48 44 41 41 43 45 46 46 41 32 38 52 60 62 63 64 63 62 65 65 66 67 68 70 69 69 69 69 69 68 68 67 67 65 63 62 63 64 66 64 66 67 66 66 65 65 67 65 61
43 40 41 40 40 47 46 46 45 36 30 47 58 60 62 62 62 62 62 63 64 66 67 68 68 68 69 68 68 67 67 66 66 64 63 61 60 61 63 62 64 63 64 64 65 65 64 61 59
40 40 41 43 49 47 47 48 42 32 35 37 57 61 61 61 61 62 62 62 63 63 65 66 67 67 67 67 67 67 67 66 65 65 63 61 60 58 60 61 62 62 62 61 62 63 63 61 60
41 39 39 38 44 46 48 46 43 31 38 44 57 59 60 60 60 62 62 62 62 62 62 63 65 65 66 67 66 66 66 66 66 65 64 63 61 58 60 60 61 61 62 61 60 61 62 60 60
43 41 39 38 37 38 44 43 42 33 35 37 39 50 57 59 60 60 62 62 62 63 63 64 64 63 63 65 65 64 64 65 63 64 65 64 62 58 59 60 60 61 61 61 60 61 61 61 59
43 39 41 39 38 37 34 36 37 32 34 34 34 35 36 48 59 60 61 61 62 62 63 64 64 65 64 63 60 59 60 62 60 61 64 64 62 58 57 59 59 59 60 61 60 59 60 60 59
41 39 36 36 38 38 33 30 32 34 34 34 34 39 35 34 41 55 59 59 60 62 63 63 64 64 65 65 65 65 66 64 60 60 62 63 62 60 57 57 58 58 58 59 58 58 58 57 57
39 34 33 34 37 37 32 30 33 34 33 33 34 33 32 31 30 33 37 40 44 56 59 63 64 64 64 65 65 65 65 65 66 64 61 60 61 60 59 58 58 59 58 58 58 58 56 56 55
34 33 33 32 35 37 34 33 34 34 32 32 33 33 32 31 31 30 33 35 35 35 36 41 59 64 64 65 65 64 64 64 65 65 66 64 61 60 60 60 60 58 60 59 59 59 58 56 55
36 34 32 34 34 34 35 34 34 34 32 32 33 32 30 29 30 32 31 31 32 38 37 37 37 38 56 63 63 62 63 63 63 64 65 66 65 64 62 61 60 60 58 59 60 59 58 58 55
36 34 32 30 31 33 33 33 33 34 34 31 32 32 31 30 29 30 34 40 41 42 42 39 37 37 39 43 47 63 63 63 64 64 64 64 64 64 64 62 61 61 60 59 59 59 57 58 56
35 32 30 29 31 31 31 30 32 34 32 31 32 32 31 30 30 35 39 41 42 43 43 43 42 37 38 39 42 44 60 61 62 61 62 64 64 64 63 63 62 61 60 59 58 59 58 58 56
34 33 33 29 29 28 28 24 24 31 32 32 31 29 29 31 34 37 39 41 42 44 44 43 42 39 38 39 39 40 42 48 56 58 60 62 62 63 62 62 62 62 60 60 60 59 59 58 58
34 39 32 31 29 27 26 24 25 24 29 30 29 27 29 33 37 38 41 43 45 45 45 44 43 43 44 44 40 40 40 43 45 45 47 52 58 61 62 62 61 60 60 59 59 59 58 58 59
41 33 33 32 32 25 25 25 23 22 25 28 26 27 32 34 38 39 43 45 45 45 44 44 44 44 44 45 46 45 42 41 43 44 45 46 51 54 54 58 60 60 59 59 59 61 59 58 59
38 31 27 27 27 23 26 25 23 25 26 28 28 33 37 38 39 41 43 44 43 42 43 43 42 43 44 45 46 47 47 47 47 48 48 48 49 50 51 54 56 57 58 59 59 60 59 59 59
35 34 24 20 21 21 24 25 24 25 24 28 33 36 38 40 41 42 42 42 41 41 41 41 42 43 43 44 46 47 47 48 48 47 48 47 48 49 49 50 52 52 53 54 55 56 56 57 55
35 33 33 21 21 18 21 22 22 29 30 33 34 36 39 41 41 40 41 39 40 40 40 41 41 41 43 45 45 44 45 44 43 42 43 44 44 45 47 48 48 49 49 50 51 51 51 51 54
37 38 30 23 14 16 19 19 20 27 29 32 34 37 40 41 39 40 39 39 40 40 38 38 38 39 40 40 40 40 39 38 37 36 35 35 35 36 40 42 41 41 42 45 46 46 48 49 46
36 35 33 27 23 18 14 16 20 25 29 32 34 37 40 39 39 39 38 39 39 38 36 36 36 38 39 38 37 37 37 37 36 36 35 34 34 34 34 35 35 35 36 38 40 41 42 43 42
36 35 31 25 24 20 18 15 21 23 29 31 32 36 40 39 39 38 37 38 37 36 35 35 36 37 37 37 36 36 36 36 36 35 35 34 34 34 34 34 34 34 35 36 37 37 38 39 39

GFSSGP_sfc_dewp_075.txt.gz
Dewpoint
59 56 53 45 37 37 34 33 33 28 28 30 31 39 40 52 45 41 62 68 71 72 74 74 75 75 75 75 74 74 74 73 72 70 70 69 67 68 68 69 68 67 66 66 66 65 64 63 65
59 54 48 43 35 32 32 33 31 28 30 31 41 44 53 53 59 63 65 71 72 73 73 74 75 75 75 74 74 74 73 72 72 71 69 67 66 67 68 70 69 67 66 65 65 64 63 63 63
59 55 45 40 37 32 31 31 33 30 30 30 35 49 53 56 61 64 66 71 72 72 73 74 75 75 75 75 74 74 73 72 70 69 68 68 67 67 68 70 68 67 66 65 64 63 63 63 64
53 50 45 41 37 37 33 34 37 36 31 31 47 52 57 60 60 63 70 71 71 71 72 74 75 75 75 74 74 74 71 70 69 68 68 69 68 68 69 70 69 68 67 65 64 63 63 64 65
52 46 41 39 39 40 38 38 37 33 30 31 46 53 55 60 65 68 69 70 70 71 73 74 75 75 74 74 74 73 72 70 68 68 70 69 69 69 71 69 68 67 67 66 64 64 64 64 64
46 46 39 37 38 38 37 38 37 31 29 47 54 54 55 61 66 68 68 69 70 71 73 73 73 74 74 74 73 72 71 70 68 69 71 70 70 70 70 69 67 67 67 66 65 64 64 64 64
45 40 37 37 36 38 37 43 33 31 29 32 54 54 56 59 64 68 67 68 70 72 72 73 72 72 72 72 72 71 71 70 69 71 71 70 70 70 69 68 68 67 66 66 65 64 64 64 63
49 42 38 39 36 39 44 45 43 33 28 38 56 55 56 61 64 67 68 69 70 71 71 71 71 72 71 71 71 70 70 69 69 70 70 68 68 69 69 69 69 67 66 65 65 65 65 64 64
54 43 37 38 41 42 46 45 45 44 36 51 58 57 61 64 67 67 68 68 69 69 69 69 71 70 70 70 69 69 69 69 68 68 67 67 66 67 67 66 67 68 67 65 65 65 65 67 66
49 43 41 41 43 42 46 45 45 43 40 49 57 63 63 65 66 66 66 66 66 66 67 69 69 69 69 69 68 68 68 67 67 65 64 65 64 65 66 65 66 67 67 66 66 66 66 66 61
45 42 42 41 47 48 46 46 48 42 33 39 56 60 62 62 64 65 65 65 65 67 68 69 69 68 68 68 68 67 67 66 66 64 62 62 62 63 63 63 64 63 64 63 64 64 64 61 60
41 42 43 46 50 48 46 47 44 45 38 43 43 61 61 61 62 63 63 64 64 65 67 68 68 68 67 67 68 67 66 65 65 64 63 60 59 60 60 61 61 61 62 61 61 62 62 61 60
40 40 41 48 47 45 45 43 43 44 44 43 51 60 60 60 61 61 63 63 63 64 65 66 67 66 67 66 66 66 66 66 65 64 63 61 60 58 59 59 60 61 61 60 60 60 61 61 59
43 41 44 45 46 43 44 43 46 44 44 38 58 57 58 59 60 60 62 62 62 63 63 64 66 66 66 66 65 66 66 66 65 65 65 63 62 59 59 59 60 60 61 61 60 59 60 60 59
43 40 41 40 40 42 45 45 44 44 43 37 43 55 56 58 59 60 61 62 62 63 63 63 64 65 64 66 65 64 65 65 64 64 65 64 63 59 59 59 59 60 60 60 60 59 59 59 59
40 39 36 38 38 40 42 36 45 46 44 34 34 34 37 42 57 59 61 61 62 62 63 64 64 64 64 64 64 62 62 62 62 61 62 64 63 60 58 58 59 59 59 60 59 59 58 58 58
38 32 35 35 38 37 34 32 42 45 43 34 33 34 32 32 32 40 54 59 59 61 62 63 64 64 65 64 64 64 64 64 62 60 60 62 63 62 59 58 57 58 58 58 59 58 57 57 57
33 30 33 33 36 37 34 32 34 34 33 33 32 34 33 32 32 33 32 39 39 44 44 56 63 64 64 64 64 64 64 64 65 65 63 61 60 61 61 60 58 58 58 58 58 58 57 57 56
35 32 32 34 35 36 34 33 34 35 34 32 32 33 34 32 31 32 32 32 38 37 36 37 42 43 59 63 62 62 62 63 63 64 65 65 64 61 60 60 60 59 58 58 59 58 58 57 56
35 33 31 32 32 34 33 34 34 35 34 34 32 32 33 30 29 30 36 39 40 41 40 37 37 37 39 49 57 63 63 63 63 63 63 64 64 63 63 62 61 60 60 59 58 58 57 57 56
34 31 30 30 31 31 31 30 32 34 34 33 33 32 32 30 29 34 38 40 42 42 42 42 40 37 38 38 42 45 59 61 62 62 62 62 63 63 63 63 63 62 60 59 58 57 57 58 55
32 34 33 29 29 26 30 26 27 30 32 33 33 32 31 30 31 36 39 41 42 43 43 43 41 40 40 39 39 40 43 56 56 54 55 53 59 61 62 62 62 61 60 59 59 58 58 56 57
33 39 33 32 29 28 26 26 27 24 29 31 33 32 30 30 34 37 40 43 45 45 44 43 44 44 45 44 40 40 40 43 44 44 45 48 53 55 57 60 60 60 59 59 59 58 57 58 58
40 33 33 34 30 22 27 26 25 24 24 25 30 30 29 33 36 39 43 45 44 44 44 43 43 44 45 47 47 44 42 43 45 47 46 47 50 51 52 55 57 58 58 58 58 58 57 57 58
36 33 29 26 26 22 26 25 26 25 25 26 27 28 30 35 38 41 44 44 43 42 42 42 43 43 44 46 47 47 47 46 46 47 47 48 49 49 49 51 53 54 56 57 57 57 57 57 57
34 30 25 19 21 21 26 24 25 27 27 27 28 29 35 37 40 42 44 43 41 41 41 41 42 43 44 46 46 46 47 46 46 45 46 45 46 47 47 49 49 50 50 52 53 53 54 52 54
34 33 30 22 19 17 21 22 21 24 26 29 32 36 37 39 41 42 42 40 40 40 40 41 41 43 44 43 42 40 40 39 38 37 38 38 37 40 43 44 44 44 45 47 48 49 49 51 50
36 36 30 25 19 15 18 20 19 22 26 31 35 36 39 41 41 41 40 39 40 39 39 38 39 40 40 39 39 38 37 37 36 35 34 34 34 35 37 38 37 38 39 42 43 43 47 47 45
36 35 35 32 23 17 16 16 21 21 25 31 34 38 40 40 40 40 39 39 39 37 36 36 38 39 38 37 37 36 36 36 36 35 34 34 34 34 34 35 35 36 36 38 39 39 42 42 41
35 33 34 24 22 19 17 18 21 22 25 32 35 39 40 40 39 39 38 39 37 36 35 35 37 37 37 37 36 36 37 36 35 35 35 35 34 35 35 35 35 35 36 36 36 36 38 38 39

GFSSGP_sfc_dewp_078.txt.gz
Dewpoint
61 56 53 44 34 36 32 31 34 31 27 29 31 33 36 50 46 40 62 67 71 72 74 74 75 75 75 75 74 74 73 73 71 70 69 68 69 69 69 68 67 66 66 66 66 65 64 66 66
59 55 47 42 33 29 29 34 32 31 30 39 43 48 52 52 59 63 65 70 71 73 74 74 75 75 75 74 74 73 72 71 71 70 69 67 67 68 70 69 68 67 66 65 65 64 63 65 64
59 55 42 39 35 30 28 32 36 36 36 31 41 53 53 54 61 64 65 71 72 72 73 74 75 75 75 74 74 73 72 72 71 69 68 67 66 68 71 69 68 67 66 64 64 63 64 64 65
52 49 44 38 35 36 33 33 38 36 34 31 46 51 57 60 63 64 69 71 71 72 72 74 75 75 75 74 74 73 72 70 69 68 68 68 67 68 70 69 68 67 66 64 63 63 65 65 65
52 45 40 38 39 39 39 39 38 36 33 30 47 51 54 61 65 69 70 71 70 71 72 74 75 75 74 74 74 73 71 69 69 68 69 68 68 69 71 69 68 67 66 65 64 64 65 65 65
49 45 37 35 37 39 38 41 38 34 33 34 53 52 54 61 67 68 69 70 70 71 73 73 73 74 74 74 73 72 72 70 69 69 70 70 69 70 70 68 67 67 66 65 64 64 64 65 64
44 40 36 34 35 38 38 45 39 38 34 28 54 51 55 60 67 68 68 70 71 72 72 72 72 72 72 73 72 72 71 70 70 71 71 70 71 69 69 67 67 67 66 65 65 64 64 64 64
47 41 37 36 34 37 45 44 44 43 39 42 54 52 54 60 67 67 68 69 70 71 71 71 71 71 70 70 70 70 69 69 70 71 69 68 69 69 69 69 69 67 66 65 65 64 64 65 65
52 41 36 37 39 39 46 44 45 46 40 40 59 57 60 64 67 67 68 68 69 69 68 69 70 70 70 69 68 69 68 68 68 69 67 67 66 66 67 67 68 68 67 65 64 65 64 66 65
47 41 38 40 43 43 46 45 46 44 43 43 48 58 63 66 66 65 65 65 66 66 66 67 70 69 69 69 68 67 67 66 65 65 65 65 65 65 66 65 66 67 67 66 65 65 66 65 61
44 41 42 46 48 48 46 46 47 44 39 40 44 45 57 64 65 64 65 64 65 65 66 67 68 68 68 68 67 66 66 65 65 63 63 64 64 63 64 63 63 63 63 62 63 62 62 61 60
41 43 43 49 49 47 46 45 43 45 44 45 45 45 54 61 63 63 63 64 65 66 66 67 68 67 67 67 67 66 66 65 64 64 62 61 61 61 61 61 61 61 61 60 60 60 60 61 60
39 42 46 49 46 44 45 44 43 43 44 44 43 53 59 60 62 63 64 64 64 64 65 67 67 67 67 66 66 66 65 65 64 64 63 61 59 58 59 59 59 60 60 60 59 59 60 60 60
42 41 46 47 45 45 43 45 45 42 44 44 44 42 58 59 60 60 62 63 63 63 64 65 66 66 66 65 65 65 65 65 64 64 63 62 61 59 58 58 59 59 60 60 59 59 59 59 59
43 43 42 44 45 44 46 42 44 44 43 44 43 39 53 58 60 61 62 62 62 63 64 64 66 66 66 65 65 65 65 65 65 64 64 63 62 61 59 58 59 59 59 60 59 58 58 58 59
40 41 38 41 45 45 43 38 44 45 46 45 42 39 37 53 59 60 62 62 62 63 63 63 65 65 65 65 65 64 64 64 64 64 64 64 64 62 60 59 59 59 59 59 58 58 57 57 57
39 35 34 37 43 45 42 36 42 48 46 45 43 39 34 35 38 55 59 61 61 62 63 63 64 64 64 64 64 63 63 63 63 62 62 63 64 63 61 59 59 59 58 58 58 57 57 56 56
34 33 34 33 37 41 41 33 43 46 47 45 44 36 34 34 33 32 36 44 43 52 60 62 63 64 64 64 63 63 63 63 64 63 61 61 62 63 62 60 58 58 58 57 57 57 56 57 57
34 32 32 34 36 36 38 34 40 42 45 45 43 39 33 34 32 32 34 34 37 37 39 44 60 60 63 62 62 62 62 62 63 64 64 64 61 60 61 61 60 58 58 58 57 57 56 56 55
35 32 30 33 34 35 35 34 35 36 39 40 38 34 33 33 30 30 33 34 38 39 38 37 38 39 44 57 61 62 62 62 62 62 63 63 64 63 62 60 60 59 59 58 58 57 56 57 55
33 31 30 30 31 33 33 31 33 35 35 35 35 34 33 33 31 30 36 38 40 41 41 40 38 37 38 39 42 46 57 60 60 62 61 61 62 63 63 63 62 61 60 59 58 57 57 57 54
31 35 33 31 29 28 30 27 29 32 33 34 34 34 33 32 30 32 37 40 41 42 42 41 41 41 40 39 39 39 44 53 55 52 50 50 55 58 60 61 61 61 60 59 59 58 57 57 58
33 37 33 31 29 27 27 26 27 27 27 31 32 33 34 32 31 34 39 41 43 43 43 43 44 45 45 44 40 40 40 42 43 43 44 46 52 53 54 56 59 60 59 59 59 58 57 56 58
39 34 33 32 28 26 26 27 27 26 25 26 29 32 34 31 32 36 41 45 44 44 43 43 44 45 47 47 47 43 41 44 45 47 47 48 49 50 50 52 54 58 59 58 58 57 57 57 58
35 33 24 21 26 23 26 25 26 27 26 26 26 27 31 31 34 39 44 44 43 43 42 42 43 44 46 46 47 47 46 46 46 47 47 47 47 47 47 49 49 52 54 56 58 58 58 57 58
33 32 23 17 20 20 25 24 24 27 28 28 28 28 29 33 37 42 44 43 42 41 41 42 43 43 45 45 45 45 45 45 44 43 44 42 44 44 45 46 46 46 48 51 53 54 53 52 54
34 30 27 25 19 16 21 23 23 24 24 25 27 30 31 35 39 42 43 41 40 40 41 42 42 43 43 42 40 38 38 37 36 36 36 36 36 38 39 40 40 41 43 45 47 49 50 50 49
36 35 29 28 19 17 18 18 20 20 21 25 30 33 35 38 41 42 41 40 40 40 40 40 41 41 39 39 38 37 37 36 35 35 35 34 34 35 36 36 37 38 39 42 42 43 47 46 45
36 34 32 29 23 17 16 17 21 22 21 21 29 35 38 40 41 41 39 40 39 38 37 38 39 38 37 37 37 36 36 36 35 35 35 35 35 35 35 35 36 36 37 38 39 41 43 42 42
35 33 34 29 23 20 16 19 21 22 23 24 32 38 40 40 40 40 39 39 37 36 36 36 38 38 37 36 36 36 36 36 35 35 35 35 35 35 35 35 35 35 36 35 36 37 39 39 39

GFSSGP_sfc_dewp_081.txt.gz
Dewpoint
62 57 54 47 37 36 29 31 35 33 28 30 35 34 39 49 46 41 64 68 69 71 72 73 75 75 75 75 74 74 73 72 71 70 69 70 69 70 68 67 67 67 67 66 66 66 67 67 66
61 56 49 44 34 28 28 34 32 33 33 34 45 49 51 51 60 63 65 69 70 71 72 72 75 75 75 75 74 73 72 71 71 69 69 68 69 70 69 68 67 66 66 66 65 65 66 65 64
58 53 43 39 34 28 26 33 37 38 38 34 40 54 55 55 62 63 66 70 70 71 72 72 74 75 75 75 74 73 73 71 70 69 67 67 68 70 69 68 67 66 65 64 64 64 65 66 66
53 50 45 35 34 35 32 35 38 37 36 31 48 53 58 61 63 65 69 70 71 71 72 73 75 75 75 74 74 73 73 70 69 68 68 67 68 71 69 68 67 66 65 64 64 65 66 66 66
51 45 39 37 36 38 38 38 39 36 35 32 47 51 57 62 65 68 69 69 69 71 71 72 75 75 75 74 74 73 72 70 69 69 68 68 68 70 70 68 68 67 65 64 64 65 66 66 66
50 45 37 35 37 39 38 42 38 38 36 31 52 55 58 64 66 67 69 69 69 70 72 72 73 74 74 74 73 72 71 71 70 71 70 69 69 71 70 68 68 67 66 64 64 65 65 65 65
48 44 37 36 36 36 38 44 40 40 35 36 54 54 59 63 67 69 69 68 68 70 72 72 72 72 73 73 72 72 71 71 70 71 71 71 71 71 69 68 68 67 67 66 65 65 65 65 64
49 46 38 36 35 35 44 44 44 44 39 41 56 51 55 62 67 69 69 68 68 69 71 71 71 71 71 71 71 70 70 70 71 71 69 69 68 69 69 68 69 67 66 66 65 64 65 65 65
50 43 39 37 36 39 45 43 46 46 42 45 53 56 61 65 67 68 69 67 67 69 69 71 71 70 70 70 68 68 68 69 69 68 67 67 68 68 68 67 68 68 66 65 64 65 65 66 65
47 42 38 39 42 44 45 45 46 43 38 41 43 44 47 66 66 65 65 65 66 67 67 68 70 70 70 68 68 67 65 65 67 68 67 67 67 67 66 66 66 67 67 66 65 65 65 65 63
47 42 43 47 47 46 45 45 46 43 38 43 44 44 47 60 64 63 64 64 64 66 66 67 69 70 69 68 68 67 66 65 64 66 67 67 66 67 67 66 66 66 64 64 64 64 64 63 62
44 44 45 48 48 46 45 45 42 44 44 45 45 45 50 51 62 63 64 64 65 65 65 67 68 69 69 68 67 66 66 66 65 63 64 64 64 65 65 65 65 65 65 64 63 63 62 63 62
40 44 47 48 44 44 45 45 43 43 44 44 45 45 46 57 60 63 64 65 65 65 65 66 68 68 69 69 68 67 66 66 65 65 63 62 62 62 62 63 63 63 63 63 62 61 61 61 61
41 45 47 45 44 45 43 45 45 43 44 44 44 44 45 52 61 61 63 63 64 66 66 67 67 69 68 68 68 67 67 66 66 66 65 63 62 61 60 60 60 60 61 62 61 60 59 59 60
43 43 43 45 44 45 42 40 42 45 45 44 45 45 44 40 59 61 63 64 65 65 66 67 68 68 68 68 67 67 67 67 66 66 65 65 63 63 61 60 59 59 60 60 61 60 60 59 59
41 41 38 42 43 46 40 37 39 46 45 44 45 44 44 40 45 60 62 63 64 64 64 65 66 67 68 68 67 66 66 66 66 66 66 65 65 64 63 62 61 61 60 60 60 60 59 59 58
39 35 35 40 43 45 41 37 39 46 45 44 44 44 44 42 37 39 60 63 63 64 64 64 65 66 67 67 67 67 66 65 66 66 65 65 65 65 64 63 62 61 61 60 60 59 59 58 58
34 35 35 36 42 43 41 40 42 44 45 44 43 44 44 43 39 35 39 53 60 62 63 64 64 65 65 66 65 66 66 65 65 64 64 64 64 64 64 64 62 61 61 60 59 59 59 59 58
34 34 32 34 38 41 41 39 40 44 44 45 44 43 43 43 38 33 34 38 42 45 54 61 63 64 65 64 64 64 64 65 65 66 65 64 62 62 63 63 62 61 60 60 60 59 59 59 59
34 33 33 33 36 38 38 39 38 43 43 44 44 42 42 38 34 33 33 35 38 39 42 45 58 57 62 63 64 64 64 64 64 65 65 65 65 65 63 62 62 62 61 60 60 59 59 59 60
34 32 32 31 32 34 35 34 35 37 41 43 44 43 42 38 34 33 32 36 40 40 40 39 40 42 43 48 50 51 60 62 64 64 64 63 63 64 65 65 63 62 62 61 61 60 60 60 59
32 34 33 31 31 31 30 29 31 35 38 38 39 39 38 36 34 34 34 38 40 42 44 41 41 41 41 41 42 44 49 55 58 55 51 51 55 57 59 62 63 64 64 63 63 62 61 60 59
33 36 33 31 29 29 28 28 28 30 33 34 35 36 36 36 35 33 35 40 42 44 44 45 46 46 46 43 42 42 42 44 45 45 45 47 52 52 53 56 58 61 62 62 62 62 61 60 60
37 34 33 32 29 26 27 27 27 27 27 28 32 35 35 35 35 34 38 43 44 45 45 46 46 47 48 48 47 44 44 45 46 48 48 49 50 50 50 51 54 57 59 60 61 61 61 60 60
36 31 27 24 25 23 26 26 27 28 29 27 28 28 32 34 34 34 40 44 44 44 44 45 45 46 47 47 47 48 48 48 48 48 47 47 48 48 48 49 50 51 52 55 58 60 60 59 59
34 32 25 19 21 22 25 24 25 28 28 29 28 29 30 31 33 37 42 44 44 43 43 44 44 45 46 46 46 46 46 45 44 44 43 41 42 43 43 44 45 45 47 50 54 55 54 55 54
34 32 29 25 21 20 21 23 23 24 24 25 26 29 30 31 35 39 43 43 42 42 43 43 44 45 44 43 41 39 39 39 38 37 37 37 37 37 39 40 40 42 44 46 49 51 51 51 51
36 33 29 30 20 19 20 19 20 21 22 23 23 27 32 34 38 42 42 41 41 41 42 43 44 43 41 40 39 38 37 37 36 36 36 36 35 36 37 38 38 39 41 43 45 48 47 47 47
36 34 32 29 24 20 16 17 22 23 23 21 23 25 34 37 41 42 41 40 40 40 40 41 41 40 39 39 38 37 37 36 36 36 35 36 36 36 36 37 37 38 38 40 43 44 44 43 43
35 33 33 29 24 21 19 21 22 21 23 25 25 32 38 40 42 41 40 39 38 38 38 39 39 38 38 37 37 37 36 36 36 36 36 36 36 36 36 36 36 36 37 37 39 40 40 40 39

GFSSGP_sfc_dewp_084.txt.gz
Dewpoint
63 56 54 47 33 31 23 26 33 30 27 30 34 30 38 46 43 43 64 65 64 66 69 71 74 74 74 74 73 73 73 72 71 70 69 69 69 68 67 67 67 67 67 67 68 68 67 66 65
60 53 49 43 29 24 23 29 29 33 33 37 44 44 42 43 57 62 63 66 65 66 68 69 75 75 74 74 73 73 71 71 70 69 69 69 70 69 68 67 66 67 66 66 67 67 66 65 64
58 51 41 34 27 25 22 30 35 36 35 40 40 50 50 53 60 61 63 66 65 67 68 70 75 75 74 74 74 73 71 71 70 69 68 69 71 70 68 67 66 65 65 65 65 66 67 67 67
52 48 42 31 27 28 28 35 37 35 34 35 40 48 57 62 61 62 65 66 65 66 68 73 75 75 74 74 74 73 72 70 69 68 67 68 70 70 68 67 66 65 64 65 66 67 67 67 68
51 46 34 30 28 31 35 38 38 35 34 35 44 49 55 62 64 65 66 66 65 65 67 70 75 75 74 74 74 73 72 70 69 69 68 68 70 70 69 68 67 65 64 65 66 66 66 66 68
47 42 32 29 29 36 37 39 37 37 34 39 46 50 56 65 65 67 67 67 67 65 67 69 73 74 74 74 74 72 72 70 70 70 69 69 71 70 69 68 68 66 65 65 66 66 66 66 67
47 39 33 31 31 33 36 40 37 36 32 40 51 48 59 63 66 69 68 67 68 66 66 68 70 72 73 73 72 72 72 71 71 71 71 71 71 70 69 68 68 67 65 65 65 65 65 65 64
50 44 34 34 33 31 40 41 43 40 38 48 57 52 56 62 68 69 68 67 67 66 66 66 68 68 69 69 71 71 70 70 70 71 70 69 69 70 69 69 68 67 66 66 65 65 65 65 64
50 44 38 36 36 34 42 39 45 44 44 46 46 50 52 62 68 68 68 67 67 67 67 66 67 67 67 67 68 69 69 70 69 68 67 67 65 66 66 67 68 68 66 65 65 65 66 66 65
48 43 39 37 37 37 42 39 43 40 42 42 43 46 51 65 66 66 66 65 66 66 67 67 67 67 67 66 66 65 64 64 64 65 64 62 64 63 64 65 67 67 66 65 64 65 65 65 59
44 43 41 40 39 41 42 43 45 38 40 43 42 44 51 59 65 66 66 66 65 66 66 67 69 67 67 66 65 64 63 61 61 63 63 62 63 64 62 62 62 62 64 61 61 61 58 57 57
43 43 43 46 47 44 42 43 42 43 43 44 45 45 52 52 62 63 64 64 64 65 66 67 67 68 67 66 65 64 63 63 62 61 60 61 61 61 61 60 60 60 59 59 59 56 56 57 56
41 43 45 46 45 44 45 43 39 42 44 44 44 44 45 51 59 62 65 65 65 64 64 66 67 67 68 67 65 65 64 64 63 63 62 62 62 62 61 61 58 58 59 59 58 57 54 54 54
41 43 44 44 43 43 42 44 44 42 44 43 44 44 45 44 51 61 63 64 64 65 65 65 66 67 68 67 66 65 65 65 65 64 64 63 63 63 62 61 60 58 59 59 60 58 57 55 54
40 40 44 44 43 42 41 40 42 41 44 42 42 43 44 45 44 56 61 63 65 65 66 66 66 67 67 66 67 66 66 65 65 65 64 65 64 64 63 62 61 60 60 59 59 60 59 59 57
38 36 35 41 43 43 41 36 37 42 41 40 40 41 43 44 44 41 59 62 64 65 66 66 66 67 66 66 67 66 66 65 65 65 65 65 64 65 64 63 62 61 61 61 61 60 60 59 59
38 30 31 39 42 41 40 35 36 41 41 39 38 39 41 43 44 42 40 61 63 65 66 66 66 65 66 67 67 67 66 65 65 65 65 65 65 64 64 64 63 62 62 62 61 61 60 60 60
32 30 31 31 39 40 37 36 37 41 41 39 37 38 41 42 43 43 39 50 62 65 66 65 65 65 65 67 67 67 67 65 65 65 65 65 64 64 65 64 64 63 62 62 61 61 61 61 60
32 32 31 33 38 37 36 36 36 37 40 40 39 38 39 41 42 43 37 37 53 61 64 65 65 65 65 65 65 66 65 66 66 66 66 65 65 64 63 63 63 63 62 61 61 61 61 61 61
32 29 29 33 35 38 35 35 36 36 38 39 38 39 38 40 42 42 36 35 42 54 57 62 64 65 65 65 65 65 65 65 65 66 66 66 66 66 65 65 64 64 63 62 62 62 61 61 61
31 28 30 29 33 37 35 32 34 36 38 39 39 42 41 40 41 41 38 35 39 43 48 51 57 62 64 64 64 63 64 65 65 65 65 65 65 66 66 66 65 65 64 64 63 62 62 61 62
31 34 33 32 31 28 34 24 30 32 34 37 37 39 40 42 42 42 37 35 37 41 45 44 44 48 49 50 56 60 61 62 62 62 60 58 57 58 60 62 63 64 65 64 64 65 64 63 62
30 35 33 33 31 30 30 29 25 30 30 33 36 37 38 41 41 38 37 38 40 44 46 44 43 44 43 42 43 44 44 46 47 47 48 49 53 53 54 56 58 60 62 63 63 64 63 62 61
36 34 33 32 29 26 23 27 22 25 25 28 33 35 38 38 40 38 39 39 41 46 46 47 46 46 47 46 43 43 44 43 44 46 47 48 50 51 51 52 55 57 58 59 61 62 62 62 61
35 32 29 28 28 22 26 26 21 23 28 28 28 30 34 37 38 37 37 39 42 45 46 46 46 46 47 48 48 48 48 48 47 48 48 48 48 49 49 50 51 53 54 55 58 60 61 61 60
31 29 25 18 17 17 26 22 19 26 28 29 30 30 30 31 34 37 37 39 42 44 45 45 45 46 46 47 47 47 48 47 47 47 46 44 45 45 45 46 47 47 49 52 55 57 57 58 58
34 34 30 28 23 24 21 24 26 25 26 27 27 29 30 31 32 34 36 40 42 44 44 44 45 46 46 45 44 43 43 43 42 41 42 41 40 39 41 42 43 44 45 47 51 54 54 53 53
35 32 30 33 24 19 19 20 16 19 21 22 22 23 25 31 32 34 38 42 43 43 44 45 45 45 44 43 42 41 41 40 40 40 40 39 38 39 39 40 41 41 43 45 48 50 50 50 48
34 32 32 28 26 22 15 15 21 22 22 23 24 26 30 33 35 36 40 42 42 43 44 44 44 43 42 42 41 40 40 39 39 38 38 38 38 38 38 38 39 39 40 42 45 46 45 45 45
34 30 30 27 24 25 24 19 22 22 22 25 27 33 37 38 38 40 41 42 41 41 41 42 42 41 41 41 40 39 39 39 38 38 38 37 37 37 37 38 38 38 39 40 42 42 42 42 42

GFSSGP_sfc_dewp_087.txt.gz
Dewpoint
62 57 51 49 36 30 25 26 27 28 27 30 30 31 40 48 43 50 60 59 64 66 67 71 74 75 74 74 73 73 72 71 71 70 70 69 68 67 68 68 67 67 68 69 67 67 66 66 66
57 52 49 40 33 23 23 24 28 29 29 33 34 38 39 49 57 59 60 61 63 65 67 68 74 74 74 73 73 72 71 70 70 70 70 70 69 68 67 67 67 67 67 68 67 66 65 65 65
60 50 41 35 28 24 21 24 25 32 34 33 34 42 43 54 58 59 61 62 63 65 66 68 74 74 74 74 73 72 71 70 69 69 69 71 69 68 67 65 66 66 66 66 67 67 67 67 67
53 47 42 32 28 27 24 27 34 32 32 34 34 38 55 60 59 60 63 61 63 63 65 72 74 74 74 74 73 72 71 70 68 68 68 71 70 68 67 65 65 65 67 66 67 67 67 68 67
52 43 33 32 29 27 29 34 35 30 31 33 39 46 54 62 62 62 62 61 62 62 68 71 74 74 74 74 73 73 71 69 68 68 68 70 70 69 68 66 65 65 66 66 66 67 67 68 67
48 43 33 29 29 29 32 36 34 33 33 37 42 46 58 63 63 63 63 61 62 63 67 70 73 74 74 73 73 73 71 70 69 69 69 70 70 69 68 68 66 65 65 66 66 66 66 67 67
50 40 35 31 29 31 33 36 33 33 32 42 49 44 60 63 67 67 66 65 62 65 66 68 70 72 73 73 72 72 71 71 71 71 71 71 71 70 69 68 67 65 65 65 66 66 65 65 65
48 43 34 31 29 32 35 37 39 37 39 50 55 48 57 63 68 69 67 67 63 65 66 68 69 68 68 70 71 71 71 70 71 71 70 70 69 69 69 69 68 67 66 65 65 65 65 65 64
50 45 37 31 31 33 37 37 42 43 43 45 47 49 54 61 68 68 67 67 64 62 66 66 67 66 66 67 67 69 69 70 70 69 68 68 66 67 65 67 68 67 66 65 65 65 66 65 64
48 44 37 33 32 35 39 35 38 39 41 43 43 50 61 65 66 66 66 65 65 63 66 65 66 65 67 67 66 64 64 64 65 64 66 64 62 63 63 66 68 67 66 66 65 65 66 65 59
45 42 38 39 44 40 41 38 40 34 39 42 43 47 59 65 65 66 65 64 65 64 65 67 67 65 66 66 64 63 63 62 62 62 61 60 60 62 61 63 63 63 64 62 62 63 60 57 55
43 42 44 41 46 41 40 40 38 36 41 43 44 47 56 61 64 64 64 65 64 65 65 67 67 67 66 65 65 61 61 60 60 61 60 59 58 59 58 58 58 59 58 57 57 55 54 55 54
42 44 42 45 44 41 40 40 37 40 43 44 44 45 49 58 61 63 64 64 64 64 64 65 66 67 67 65 64 61 61 62 61 61 58 59 60 60 59 59 57 56 57 57 57 56 52 52 52
40 47 43 45 43 42 41 40 43 39 43 43 43 43 46 48 56 60 61 64 64 64 64 65 65 66 65 65 65 62 62 62 62 62 62 61 61 61 61 60 59 57 58 59 59 57 56 55 53
36 40 42 41 44 41 41 39 42 38 42 40 42 42 43 46 47 58 61 61 64 65 65 64 65 66 66 66 65 64 64 64 63 62 62 63 62 62 61 61 61 60 59 58 59 59 59 59 58
35 37 38 41 41 40 40 33 37 39 39 39 38 39 42 44 45 45 53 59 61 64 65 66 65 66 66 66 65 64 64 63 62 62 62 62 62 63 63 62 61 61 61 61 61 60 60 60 59
35 29 32 35 39 38 39 34 33 37 40 39 37 36 39 41 44 44 44 53 60 62 64 64 66 65 66 66 67 66 64 62 62 63 62 63 63 63 64 63 63 62 62 61 61 61 60 60 60
30 26 25 28 37 38 38 35 33 37 40 39 37 36 36 38 43 43 42 42 59 62 64 65 65 64 64 67 67 69 67 65 65 62 63 64 63 63 63 63 63 63 63 62 62 61 61 61 61
25 26 23 25 33 36 35 34 34 34 38 39 37 35 34 36 41 43 41 37 51 62 63 64 64 65 65 66 65 66 66 67 66 65 65 64 64 64 64 64 63 63 63 62 62 62 62 62 62
31 26 27 30 33 33 30 30 31 33 34 36 36 35 35 35 38 43 40 36 37 55 61 63 64 65 65 66 65 66 68 68 67 68 67 67 66 66 65 64 64 64 64 63 63 63 62 62 62
29 26 30 28 31 33 31 30 30 31 33 34 36 36 37 39 36 41 41 40 38 46 54 59 63 64 65 66 66 66 66 67 65 65 65 65 65 66 66 66 65 65 65 64 63 63 62 61 63
27 29 27 28 30 26 31 19 20 25 30 33 34 36 36 40 40 40 42 41 39 43 51 50 56 62 64 62 64 63 63 63 64 64 64 63 59 60 61 62 63 64 65 65 64 65 64 63 61
28 33 31 31 29 29 29 27 23 25 27 29 32 34 35 38 42 41 43 42 42 47 49 47 47 50 51 53 56 59 60 58 56 52 53 52 54 54 54 56 57 59 61 63 63 63 63 64 62
35 32 31 31 30 30 26 26 22 22 25 26 28 31 33 35 39 42 42 41 40 47 48 49 46 45 45 45 45 46 47 45 46 47 46 47 49 51 51 52 54 56 57 58 59 60 62 62 62
33 29 29 26 28 23 22 20 22 21 23 25 26 27 32 34 36 39 40 40 41 46 47 48 47 46 47 46 45 45 47 47 47 48 48 47 47 49 49 50 51 52 54 56 57 58 57 60 61
29 29 26 18 16 17 24 19 19 21 23 22 27 29 30 31 36 39 42 41 41 46 47 46 45 45 46 47 47 48 48 48 47 47 46 45 46 46 46 46 47 47 48 50 54 57 58 58 58
31 32 28 27 24 21 18 20 20 21 24 27 27 29 31 31 31 35 39 39 40 44 45 44 45 46 46 46 46 45 45 45 44 44 43 43 42 40 41 43 43 44 45 47 49 53 54 54 53
37 32 29 33 22 15 11 17 15 17 19 21 22 23 25 26 30 32 35 40 40 43 44 45 45 45 45 45 43 43 42 42 42 42 41 41 40 40 40 41 41 42 42 44 46 50 51 51 50
33 32 31 28 21 18 11 14 19 20 21 23 25 29 31 32 31 32 34 40 43 43 44 44 44 44 44 43 42 42 41 41 40 40 39 39 39 39 39 39 39 40 40 41 44 46 46 47 47
33 29 28 27 23 24 23 20 20 22 22 25 29 33 36 37 36 36 37 41 42 43 44 44 44 43 43 42 41 41 41 40 40 39 39 38 38 38 38 38 38 39 39 40 42 43 43 43 43

GFSSGP_sfc_dewp_090.txt.gz
Dewpoint
63 60 59 53 45 38 29 29 30 32 31 31 32 40 49 54 53 52 60 64 66 68 71 73 74 74 74 73 73 72 72 72 71 71 69 67 68 68 68 68 68 70 68 67 67 66 66 66 65
59 56 52 49 37 28 26 26 31 32 32 33 41 42 47 55 57 56 58 65 66 68 69 71 74 74 74 74 72 72 72 71 72 71 70 68 67 67 67 67 67 68 66 67 66 65 65 66 66
61 58 47 43 34 29 24 27 30 33 34 33 36 49 51 55 58 58 61 64 65 67 68 71 74 74 74 74 73 72 72 70 70 71 71 69 68 66 66 67 67 67 67 67 67 67 68 67 67
56 51 47 34 32 30 27 25 28 33 34 32 36 53 58 61 59 60 62 63 65 65 68 72 74 74 74 73 73 72 70 70 69 70 72 70 68 66 65 66 66 67 68 67 67 68 68 67 68
54 47 40 35 31 29 30 35 35 32 31 34 36 54 58 61 63 61 60 62 63 65 70 72 74 74 74 73 73 72 70 68 68 69 71 70 69 67 65 65 66 67 67 67 67 68 68 68 68
53 48 35 32 32 30 34 36 36 34 32 38 40 57 60 65 63 61 61 61 65 69 70 72 73 73 74 73 73 72 71 70 70 70 71 70 69 68 67 65 65 66 67 67 67 67 68 67 67
50 46 38 33 31 31 34 35 33 34 32 45 52 55 61 65 67 66 62 61 67 68 69 71 72 72 72 73 72 72 71 71 71 71 72 71 70 69 68 67 65 66 66 67 66 66 65 66 66
52 48 40 34 30 33 35 36 39 40 41 50 52 55 59 65 68 68 66 65 65 66 68 70 71 70 70 70 71 71 71 71 71 71 71 69 69 69 70 69 68 66 66 66 66 66 65 64 64
53 45 40 38 35 34 36 40 42 43 44 45 48 54 59 67 68 67 66 66 65 66 67 68 69 68 68 68 69 69 69 69 69 69 68 67 68 67 67 67 68 68 67 65 65 66 66 66 64
48 44 41 39 42 37 36 38 39 42 43 43 49 60 63 66 67 66 65 64 64 65 66 68 67 66 67 66 67 65 66 67 67 67 68 67 66 65 66 66 67 68 67 66 66 66 66 65 61
47 42 42 40 46 47 41 36 38 39 42 43 44 58 63 65 66 65 65 65 64 65 66 67 67 66 67 66 65 64 64 64 65 65 65 65 64 64 65 66 65 65 64 64 65 65 63 60 57
45 45 44 45 47 47 44 41 39 38 43 44 47 58 62 64 65 65 65 65 65 65 66 67 67 67 67 66 65 63 62 62 62 63 62 60 60 61 60 64 63 63 61 61 61 62 60 55 55
43 43 45 48 46 47 46 44 38 42 43 44 45 54 59 62 64 64 65 65 64 64 65 67 67 68 67 65 64 63 61 61 61 61 60 59 60 59 59 59 58 57 57 57 57 56 53 53 52
43 42 46 48 45 44 41 42 44 42 43 43 43 46 52 59 61 62 63 64 64 64 64 66 66 66 67 66 66 64 62 62 62 61 61 60 61 61 60 60 58 58 58 59 59 57 56 55 53
43 41 45 48 45 42 43 40 42 42 42 42 42 43 46 49 57 60 62 63 65 65 65 65 65 65 66 65 66 64 64 62 63 63 62 61 61 61 61 61 60 59 59 58 59 59 59 59 58
40 43 38 42 42 43 42 35 40 41 41 40 41 41 43 46 48 50 61 62 64 65 65 65 67 66 66 65 67 65 65 64 64 62 63 62 62 62 62 62 62 61 61 61 60 60 60 60 59
35 34 37 39 45 41 41 35 35 40 38 39 39 37 41 44 46 45 49 58 62 64 65 66 66 66 66 66 67 66 64 64 63 63 62 62 62 63 63 63 63 61 61 61 61 61 60 60 60
30 27 30 34 41 40 41 37 36 35 39 41 39 38 37 40 44 44 43 46 58 60 65 65 66 66 66 67 67 67 67 64 64 63 63 63 63 63 64 63 63 63 63 62 62 61 61 61 60
28 28 26 30 39 39 35 35 35 35 40 39 38 38 36 36 43 44 40 39 51 61 63 64 64 65 65 66 65 65 64 65 65 65 64 63 64 64 64 64 64 63 63 63 62 62 61 61 62
32 25 25 33 37 38 33 33 33 33 34 38 38 37 36 36 39 42 39 37 51 60 62 64 64 65 65 66 66 66 66 65 66 66 66 66 66 66 65 64 64 64 64 63 63 62 62 61 62
31 29 29 31 32 32 31 30 29 30 31 33 35 36 36 36 37 42 38 37 38 52 59 61 64 64 65 65 65 64 65 66 65 65 65 66 65 66 65 65 65 65 65 64 63 63 62 61 61
29 30 34 33 30 27 30 24 27 29 30 31 32 34 36 36 38 41 41 39 38 41 56 58 61 64 64 65 64 63 63 62 63 64 65 61 60 60 60 62 63 63 64 64 64 64 63 63 61
30 32 33 34 29 28 30 28 25 25 28 29 31 33 36 36 38 41 41 41 42 48 50 50 52 58 60 59 62 63 62 61 58 58 57 56 55 54 54 55 56 58 60 62 62 62 62 63 62
35 34 31 30 30 26 29 27 25 23 23 27 30 32 34 36 38 42 43 42 43 49 49 49 49 50 48 53 53 56 58 48 47 49 49 49 52 52 52 52 53 55 56 56 57 57 59 60 60
35 31 28 25 26 22 23 25 24 24 23 25 27 28 31 34 38 40 42 41 43 47 48 48 46 47 47 45 44 45 45 44 45 47 47 47 48 50 49 49 50 51 51 53 55 56 57 57 58
32 31 28 19 19 19 22 21 20 21 24 26 28 29 30 29 33 39 42 41 43 47 47 46 47 47 47 47 47 48 48 48 48 47 47 45 46 46 45 45 46 47 47 49 50 54 56 55 56
31 28 30 31 26 21 23 22 22 21 23 26 27 29 30 29 31 42 40 42 44 46 46 46 46 46 47 47 47 46 46 46 45 44 43 43 42 39 41 42 43 44 44 46 47 49 54 53 53
38 35 29 29 17 16 12 13 17 18 20 25 24 26 29 28 29 33 36 41 42 45 47 46 46 47 46 45 44 43 43 43 42 42 41 40 40 40 40 40 41 41 42 43 45 48 51 51 50
35 36 36 30 25 17 15 17 19 20 24 25 29 32 33 33 31 32 35 38 42 44 45 45 46 46 44 43 42 42 41 41 41 40 40 39 39 39 39 39 39 39 40 40 42 45 45 46 48
33 33 34 31 25 25 23 22 21 23 23 25 32 35 36 37 37 35 38 41 42 44 45 46 47 45 44 42 42 41 41 40 40 39 39 39 38 38 38 38 38 39 39 40 41 42 42 43 43

GFSSGP_sfc_dewp_093.txt.gz
Dewpoint
63 62 61 52 39 38 31 29 31 30 31 33 37 51 57 57 54 48 64 69 71 71 72 73 74 74 74 73 72 71 72 72 71 69 68 69 69 69 69 70 69 68 67 67 66 66 66 65 64
61 59 54 48 39 28 26 30 28 31 33 39 41 55 57 56 56 62 65 69 70 71 72 72 74 74 74 73 72 72 72 71 71 70 68 67 68 67 67 68 67 67 66 66 66 66 67 67 66
62 60 46 43 34 30 25 27 27 34 33 33 42 50 57 57 59 59 66 68 70 70 72 72 74 74 74 73 73 72 72 71 72 71 69 66 66 67 67 68 66 67 67 67 67 68 67 68 68
58 57 49 34 34 32 31 31 31 33 32 32 53 57 60 63 60 64 66 68 68 69 71 73 74 74 73 73 72 71 70 71 72 71 70 67 65 66 67 67 67 68 68 67 68 68 68 69 69
58 52 43 38 32 32 30 36 35 31 31 33 49 56 59 64 65 64 65 66 67 69 72 73 74 74 73 73 72 71 70 70 71 71 69 68 65 65 67 67 67 67 67 67 68 68 68 68 68
52 51 36 35 33 32 33 33 35 34 33 40 56 59 61 66 65 63 65 65 68 69 72 72 73 73 73 73 72 71 70 71 71 72 70 69 67 65 66 67 67 67 67 67 67 68 68 67 66
49 46 39 34 33 33 34 34 32 34 42 50 53 57 61 64 67 67 66 68 69 71 71 72 72 72 72 72 72 71 71 70 71 72 71 70 69 67 66 66 67 67 67 67 67 67 67 66 65
51 47 40 38 32 36 35 40 41 41 44 49 54 58 58 63 68 67 68 68 69 70 71 71 71 71 71 70 71 70 70 70 71 71 70 69 68 69 68 67 67 67 67 67 66 66 65 65 64
53 44 40 39 37 37 39 39 41 44 45 51 52 56 63 67 67 66 66 66 68 69 70 70 70 70 69 69 68 69 70 69 69 69 67 67 68 68 67 67 67 67 67 66 66 66 66 65 64
49 43 41 43 44 36 40 38 40 43 43 54 61 62 66 66 65 65 64 64 66 67 69 69 69 68 68 67 67 66 67 68 68 68 67 67 67 66 66 66 67 68 67 67 66 66 66 64 61
48 43 44 47 47 45 41 38 40 43 43 45 58 62 64 65 65 64 65 64 65 67 68 68 68 67 67 66 66 64 65 66 66 67 67 66 65 65 66 65 65 64 64 64 66 65 64 61 59
45 46 47 48 50 45 45 45 37 41 43 47 60 63 64 64 64 64 64 64 65 65 67 67 67 67 66 65 65 64 63 65 65 65 65 64 63 65 64 64 64 63 63 62 62 62 61 60 58
44 43 46 49 50 47 48 47 44 42 44 48 60 62 63 64 64 65 64 64 64 65 66 67 67 67 67 65 65 63 63 63 64 64 63 60 61 60 60 63 62 62 62 60 61 59 57 56 54
44 44 43 46 47 48 45 47 48 42 43 43 56 59 61 63 64 64 64 64 64 64 65 67 67 67 66 66 64 64 61 60 61 61 60 59 60 59 60 59 58 57 57 58 58 56 55 53 52
43 42 42 42 47 47 47 45 46 43 42 42 44 52 58 60 62 63 64 64 65 65 65 66 66 67 66 65 66 64 64 62 61 61 60 60 62 61 60 60 59 58 58 58 59 59 58 58 58
43 42 37 43 46 45 47 40 46 44 41 42 42 44 47 51 60 61 63 63 65 66 65 66 67 65 66 65 67 65 65 63 64 62 62 61 61 62 61 61 61 60 59 59 59 59 59 59 59
38 36 36 39 45 45 43 40 41 42 41 40 41 41 45 46 48 51 60 62 65 65 65 65 66 66 66 66 67 67 65 64 63 64 63 62 62 62 62 62 62 61 61 61 61 61 60 59 59
32 34 37 35 41 43 43 40 40 38 39 40 40 39 40 45 46 45 52 58 64 65 65 65 66 65 66 67 67 67 67 65 64 63 63 62 62 63 63 63 63 62 62 61 61 60 61 60 60
31 29 29 35 41 39 40 40 39 37 39 38 38 39 38 39 45 45 44 46 57 62 65 66 65 65 66 65 65 65 65 66 65 65 64 63 63 63 63 63 63 63 63 62 62 62 61 61 61
31 27 29 37 41 40 39 38 38 37 38 39 39 39 38 37 42 43 40 40 51 60 64 65 65 66 66 66 65 65 65 64 64 65 66 66 66 66 65 64 64 64 64 63 63 62 62 61 62
31 29 29 34 37 40 38 34 32 34 33 39 39 39 38 38 38 42 38 38 48 60 62 63 64 65 65 65 65 64 63 64 64 65 65 65 65 65 65 65 65 65 65 64 64 63 63 61 62
30 34 34 34 33 29 31 24 27 30 30 31 35 38 37 37 39 42 37 36 39 57 60 62 64 64 64 65 64 62 62 62 63 64 64 63 62 61 61 61 62 63 63 63 64 64 63 62 61
31 35 34 36 30 29 29 27 28 27 27 29 30 33 35 36 37 42 39 37 38 44 55 57 60 62 62 64 64 63 61 62 60 61 61 58 57 56 56 56 56 58 58 60 60 61 61 62 61
35 34 32 31 30 23 28 29 27 24 24 29 30 31 34 36 37 38 42 40 40 48 49 49 53 55 57 59 60 62 61 57 56 56 55 54 53 52 52 53 53 54 55 55 56 56 56 56 58
34 32 27 20 20 20 26 27 27 27 26 25 28 30 32 35 36 40 41 40 43 46 47 47 49 49 49 53 55 54 55 52 51 51 50 49 51 50 49 50 50 50 50 52 54 54 54 55 55
33 32 25 18 20 19 23 22 21 24 25 27 28 29 29 29 33 40 41 40 43 45 46 46 46 45 45 45 46 51 49 49 49 50 47 47 48 46 45 46 46 47 47 48 49 51 54 55 54
30 28 30 28 27 19 22 23 23 23 24 26 27 29 29 29 33 39 41 40 43 45 46 45 46 46 47 47 48 48 48 47 47 44 43 43 42 41 42 43 43 44 44 45 46 48 51 52 52
36 35 27 30 23 18 15 18 18 18 20 25 27 28 29 28 30 36 39 41 44 46 46 46 46 47 47 46 45 45 44 43 43 42 41 40 40 40 41 41 41 41 41 42 43 45 49 50 50
35 34 34 30 25 17 14 15 19 20 25 28 31 34 34 34 33 33 35 40 43 45 46 45 46 47 45 44 43 42 42 41 41 40 40 39 39 40 39 39 39 39 40 40 41 43 45 46 48
35 34 34 25 24 23 21 20 23 23 27 32 34 35 35 36 36 35 37 41 43 44 45 45 46 46 45 44 43 43 41 40 40 39 39 39 38 38 38 38 38 39 40 40 40 41 42 42 43

GFSSGP_sfc_dewp_096.txt.gz
Dewpoint
63 62 61 53 41 38 32 33 31 38 34 34 44 52 55 57 53 47 66 69 70 71 72 72 73 73 73 72 71 71 70 70 71 71 70 71 71 72 71 69 68 67 67 66 65 65 65 65 66
62 59 56 48 35 29 30 30 28 44 33 50 54 55 55 55 60 66 68 70 71 71 71 71 73 73 73 72 72 72 71 70 70 70 69 69 69 69 68 68 68 67 66 67 67 66 66 67 67
61 60 49 44 37 25 24 28 28 38 39 35 49 57 57 56 64 64 69 70 70 71 71 72 73 73 73 72 72 72 72 70 69 68 68 68 67 67 67 67 67 66 66 67 68 68 68 68 69
58 56 52 39 33 31 25 32 29 34 41 43 56 57 61 63 61 67 69 70 70 71 71 73 73 74 73 72 72 72 72 70 69 67 66 67 67 68 66 67 67 67 69 68 68 68 69 69 68
58 52 43 39 35 33 31 36 32 32 34 43 51 56 59 65 66 68 69 69 70 71 72 72 73 73 73 72 72 72 72 71 69 67 65 66 67 67 67 67 67 67 67 68 68 68 69 68 66
52 50 39 37 35 32 31 34 34 32 42 49 55 57 60 66 66 68 68 68 70 71 72 72 72 73 72 71 71 71 72 72 71 69 66 65 67 67 67 67 67 67 67 68 68 68 68 66 65
50 46 35 37 33 33 33 33 33 37 48 50 57 53 61 64 67 67 66 69 69 71 71 71 71 72 71 71 71 70 71 72 71 71 69 67 67 67 67 67 67 67 67 67 68 67 66 65 64
52 46 40 36 32 34 34 40 42 44 45 50 57 57 59 64 67 67 67 69 70 71 71 70 71 71 71 70 70 70 70 71 71 70 69 68 67 67 68 68 68 67 67 67 66 66 65 65 63
54 45 39 38 35 35 39 38 42 47 50 56 54 59 62 66 68 67 67 69 69 69 70 70 70 70 69 69 68 69 69 69 70 69 67 67 67 67 66 65 67 68 67 67 66 66 65 65 64
49 43 41 44 43 37 39 39 43 45 51 57 59 65 66 65 65 65 66 66 67 67 69 69 69 69 68 67 67 67 68 68 68 68 67 67 66 66 66 65 66 67 67 67 66 66 66 64 60
48 43 46 48 50 48 39 40 43 43 44 55 57 61 64 63 64 65 66 66 66 67 68 69 68 68 66 66 65 65 66 66 67 67 66 66 66 65 65 64 65 64 64 64 65 64 63 61 59
45 47 48 49 51 48 46 43 41 42 43 56 61 62 63 63 63 64 64 66 67 68 68 68 68 67 66 65 64 64 65 65 66 67 67 65 64 64 63 63 63 62 62 61 61 61 61 60 59
45 47 46 49 49 49 48 47 45 43 47 60 62 63 63 63 62 63 65 65 66 67 67 67 67 67 65 64 64 63 63 65 65 65 66 65 64 64 63 63 62 62 61 61 60 60 60 60 58
45 46 44 47 48 49 46 47 44 42 47 58 60 61 63 62 63 62 63 64 65 66 67 67 66 67 66 65 64 63 63 64 64 64 64 63 63 63 62 62 62 61 61 61 59 60 57 54 53
45 42 44 44 48 47 49 43 43 45 43 52 57 59 61 63 64 63 63 63 65 65 66 66 66 67 65 65 65 64 63 62 63 63 62 60 60 60 60 59 59 58 58 58 58 58 57 56 57
41 40 37 44 47 47 46 40 45 48 43 42 48 54 58 60 62 63 64 64 64 65 65 67 67 67 65 65 65 64 63 61 61 61 60 60 61 61 60 60 59 58 58 58 58 59 59 59 59
38 35 36 39 46 46 44 41 42 47 45 41 42 46 50 54 58 61 62 64 64 65 65 66 66 66 66 66 66 66 64 63 63 62 61 60 61 61 61 61 61 61 60 60 60 60 59 59 59
32 35 35 35 42 44 44 42 44 44 43 41 41 41 43 46 50 56 60 62 65 65 65 65 66 65 65 67 67 66 66 64 64 63 62 62 61 62 62 62 62 62 61 60 61 60 60 60 60
32 35 35 35 40 40 39 41 43 45 43 38 40 40 39 43 46 47 52 60 62 64 64 64 65 65 65 66 65 65 64 66 65 64 63 63 63 62 62 63 63 63 62 61 61 61 61 61 61
32 30 30 36 39 39 37 35 39 43 41 38 38 39 39 38 40 45 45 50 59 63 64 64 64 65 65 65 65 66 65 65 66 66 66 66 65 65 64 64 64 64 64 63 63 62 62 62 62
30 27 31 34 40 40 37 35 37 38 38 37 39 39 39 39 38 43 43 42 48 60 63 64 65 65 65 65 64 63 64 64 64 64 64 65 66 66 65 65 65 65 65 64 63 63 62 61 62
30 33 31 36 36 33 37 27 28 31 33 35 35 39 39 38 38 41 43 40 40 56 61 64 65 65 65 65 64 64 63 63 63 63 63 63 64 64 64 64 64 64 63 63 63 64 63 62 61
31 35 35 36 31 29 30 28 28 29 28 30 31 35 39 38 38 40 42 41 39 45 57 59 61 62 63 64 64 63 61 61 61 62 62 60 58 59 59 59 60 60 60 61 60 59 59 60 60
34 34 33 36 33 27 27 29 27 27 26 27 29 31 34 38 37 40 42 40 38 41 52 55 58 60 61 61 61 61 61 59 58 58 58 56 55 54 54 54 54 56 56 57 56 56 55 56 56
35 36 29 27 27 25 26 29 27 28 28 25 26 29 32 34 37 37 42 41 40 45 49 50 55 56 57 58 58 59 59 57 58 58 57 55 53 53 51 52 52 52 52 53 54 55 55 55 54
32 34 26 18 21 21 27 25 24 27 28 29 27 30 31 33 35 37 41 42 41 45 48 48 49 50 49 52 53 52 55 55 55 55 54 54 53 50 50 48 47 47 47 48 49 51 53 54 53
31 30 31 26 24 20 21 22 23 24 23 26 28 29 29 30 35 35 41 41 41 44 46 46 46 46 45 45 48 50 51 52 52 50 52 51 49 46 44 44 44 44 44 45 45 47 48 52 52
33 34 30 30 23 19 17 21 19 19 22 25 27 28 28 29 33 40 41 40 42 44 45 45 46 46 46 47 47 46 46 46 45 45 43 41 40 41 42 41 41 41 42 42 43 44 46 49 49
34 32 32 29 25 20 14 15 18 19 21 26 28 31 32 32 32 33 39 41 43 45 46 45 46 47 46 45 44 43 42 42 41 41 40 40 40 40 40 40 40 40 40 40 41 41 44 46 46
36 33 32 26 23 22 20 18 24 26 29 32 33 34 35 35 34 34 37 40 43 45 45 45 46 46 45 44 43 43 42 41 40 40 39 39 39 39 39 39 39 39 40 40 40 41 42 42 43

GFSSGP_sfc_dewp_099.txt.gz
Dewpoint
63 63 61 54 43 38 33 36 34 40 42 39 46 52 51 52 48 45 66 68 70 71 71 72 73 73 72 70 69 68 70 71 72 72 72 72 72 71 69 68 67 66 65 66 67 67 67 67 68
64 61 56 50 37 31 32 31 33 43 39 55 54 55 53 55 64 65 67 70 70 71 71 71 73 73 72 71 69 68 69 70 71 71 71 72 70 69 69 68 67 66 66 65 66 66 68 68 69
62 59 53 46 39 28 25 29 29 41 44 43 51 57 56 60 64 65 69 70 70 70 70 71 73 73 72 72 71 69 68 69 70 71 71 71 69 68 68 67 66 66 67 67 68 68 69 69 68
59 57 54 42 35 32 24 26 30 43 48 46 54 56 61 64 63 68 69 70 70 70 70 72 72 73 72 72 72 70 68 68 68 69 70 70 69 68 67 67 67 67 68 68 68 69 69 68 68
58 53 44 39 34 32 31 33 35 44 47 47 56 56 60 64 67 69 69 70 70 70 71 71 73 73 72 72 72 71 69 67 66 67 67 68 67 67 67 67 67 68 68 68 68 69 69 67 67
52 52 40 36 34 33 31 33 32 40 45 46 55 57 61 66 68 69 69 69 70 70 71 71 72 72 72 72 72 72 71 68 67 66 67 67 67 67 67 67 67 68 68 68 68 69 67 66 66
48 47 40 34 34 32 32 33 32 44 45 47 55 56 62 65 68 68 68 69 70 71 71 71 71 71 71 71 71 72 71 70 69 67 67 68 68 67 67 67 67 67 67 68 68 67 66 65 64
50 49 38 35 32 32 33 41 43 46 46 52 56 57 59 64 67 67 69 69 69 69 70 70 70 70 69 69 70 71 71 71 70 68 67 67 67 67 68 68 68 67 67 67 67 67 65 64 63
52 45 35 36 32 33 37 39 43 50 52 57 57 60 62 66 67 66 67 68 68 69 69 70 69 69 68 68 68 69 70 70 69 68 66 66 65 65 66 66 67 68 67 66 66 65 64 64 63
48 43 38 47 46 37 39 41 45 49 55 57 60 64 65 65 64 65 64 65 66 67 69 69 68 68 68 68 67 67 68 69 68 67 66 66 65 64 64 64 66 68 67 67 66 65 66 63 59
48 43 47 49 50 48 39 41 44 48 47 56 59 62 63 64 62 64 65 66 66 67 68 68 68 68 67 66 66 66 67 67 68 66 66 65 65 64 64 63 64 63 64 63 64 63 62 59 59
43 49 49 49 49 48 46 43 41 42 44 51 62 63 63 63 62 62 62 63 65 66 67 68 68 67 66 65 65 66 66 66 67 66 66 64 63 63 63 62 62 61 62 60 60 60 60 59 59
40 44 47 49 49 48 47 46 42 43 58 61 62 63 63 63 63 58 60 60 66 66 67 68 68 67 65 64 63 65 65 65 66 66 66 65 64 63 63 62 62 61 61 60 59 59 59 59 59
43 47 45 47 47 48 47 45 43 42 56 60 60 61 62 62 63 62 62 60 65 66 67 68 67 67 65 64 63 62 64 65 65 66 67 65 64 64 63 62 62 61 61 60 60 60 59 58 55
46 41 42 44 46 46 48 42 43 47 47 57 59 59 60 61 62 63 63 63 64 66 67 67 67 67 65 64 64 62 62 64 64 64 64 65 63 63 63 62 61 61 61 60 59 58 58 56 56
42 40 36 43 45 45 46 40 44 46 43 44 50 53 58 61 63 63 63 63 66 66 67 67 67 66 65 64 64 63 63 63 63 63 63 62 62 62 60 60 59 59 58 58 58 58 58 58 58
38 34 35 38 45 44 44 41 42 45 44 41 41 46 54 57 59 62 63 63 64 65 66 66 67 66 65 65 65 64 63 62 62 62 61 60 60 61 60 60 60 59 58 58 58 59 59 58 59
33 34 36 36 42 43 40 41 44 45 44 43 40 41 43 50 55 59 62 63 64 64 65 66 66 66 66 66 66 65 65 63 62 61 61 61 61 61 61 61 61 61 60 60 60 60 60 60 60
34 35 34 37 41 41 39 40 43 44 44 42 41 39 41 43 46 50 56 61 62 64 64 64 65 65 66 65 65 65 65 65 64 63 62 62 61 62 62 62 61 62 61 61 60 61 60 61 61
31 33 31 36 41 39 41 39 41 44 43 42 41 39 40 40 41 45 47 53 60 62 63 64 65 64 65 66 65 65 65 65 65 65 65 64 64 64 63 63 63 63 63 63 63 62 62 61 62
30 29 30 33 39 39 38 36 38 40 43 43 42 39 39 40 40 40 45 45 54 60 62 64 64 64 64 64 64 63 63 63 63 64 64 65 65 65 64 64 64 64 64 63 63 63 62 61 62
29 32 30 38 36 31 36 26 29 36 39 40 40 38 39 39 39 39 42 44 44 55 61 63 64 64 64 64 63 62 62 62 64 63 63 64 64 64 64 64 64 64 64 63 63 63 63 62 60
30 35 33 38 32 30 35 28 28 30 34 35 38 36 37 39 39 39 40 44 43 44 57 60 61 62 62 63 63 63 62 62 61 61 62 62 62 62 62 62 61 62 62 61 61 61 61 61 60
34 34 35 36 33 28 28 29 27 28 28 29 32 32 33 35 38 39 40 42 43 41 53 57 60 60 61 61 62 62 61 59 59 58 59 58 58 59 59 59 59 58 58 58 57 57 57 57 56
35 32 29 26 28 22 27 29 29 29 28 27 28 29 30 32 35 38 39 41 41 40 45 53 57 58 59 60 60 60 59 59 58 58 57 56 55 56 56 55 53 53 53 54 54 54 54 55 54
32 34 25 19 21 24 28 27 27 27 27 29 28 28 30 31 34 37 38 41 41 41 43 49 52 55 56 57 58 57 58 57 56 56 56 56 55 53 52 51 50 48 48 48 49 50 52 53 54
32 27 33 30 22 19 25 22 22 24 24 26 27 29 29 31 32 35 37 40 42 42 44 47 50 51 50 50 51 51 52 52 52 52 52 53 53 52 51 49 47 45 44 45 45 46 47 49 52
33 34 29 30 22 19 19 19 18 19 21 25 28 28 29 29 35 39 39 40 41 42 45 46 47 47 46 46 48 48 49 49 49 49 49 48 47 46 43 42 42 42 41 41 42 43 45 47 50
34 30 31 30 29 19 15 15 21 22 20 24 27 29 29 30 32 36 40 41 42 44 45 45 45 46 46 46 46 45 45 44 44 43 42 41 41 41 40 40 40 40 40 40 40 41 42 45 47
37 33 32 27 24 21 17 18 24 25 26 26 29 33 33 34 33 34 39 41 43 43 44 44 45 46 46 45 44 43 42 41 41 40 40 40 39 39 39 39 39 39 39 40 40 40 41 42 42

GFSSGP_sfc_dewp_102.txt.gz
Dewpoint
62 63 62 56 47 42 37 36 39 42 45 48 45 49 48 49 46 43 65 67 70 70 71 71 73 72 71 68 68 70 71 72 73 73 72 72 71 70 69 68 67 67 67 67 68 68 68 68 68
60 60 58 52 43 35 35 34 38 41 44 50 55 55 53 52 62 65 67 69 70 70 71 71 73 72 70 68 69 70 72 72 72 73 72 72 71 69 68 67 66 66 67 67 68 68 69 69 69
58 59 53 48 41 35 29 31 33 42 52 49 54 57 56 58 64 65 68 70 70 70 71 71 73 72 71 68 69 70 71 72 72 72 72 72 70 68 68 67 66 66 67 67 68 69 69 68 70
57 57 54 44 38 35 27 28 31 44 47 50 56 55 61 63 64 68 69 70 70 70 70 72 72 72 72 70 69 70 70 70 70 71 71 70 68 68 67 67 67 68 69 69 69 69 68 69 70
57 54 45 41 38 35 27 30 35 40 46 47 55 55 60 64 68 69 69 69 69 70 71 71 72 72 72 71 70 69 69 69 69 69 70 69 68 67 67 67 68 68 68 69 69 69 67 68 69
50 50 38 38 37 33 29 32 42 42 43 43 48 56 60 67 68 69 68 68 69 70 70 70 71 72 72 72 71 70 68 67 68 69 69 68 67 67 67 67 67 67 68 69 69 68 67 66 67
46 45 35 39 35 32 29 33 43 45 43 42 54 55 61 66 68 69 68 69 70 70 70 70 70 70 71 71 71 70 68 68 68 69 69 68 68 67 67 67 68 67 68 68 69 67 66 65 65
47 48 39 39 33 31 33 38 40 45 44 52 53 53 59 64 68 69 69 69 69 70 69 69 69 69 69 69 70 70 69 68 68 68 68 67 67 67 68 68 67 68 68 68 67 66 65 64 63
48 40 39 39 37 31 37 40 46 50 50 56 54 58 62 66 67 68 67 67 68 69 69 69 69 68 67 67 69 70 70 69 68 67 66 65 65 65 65 66 67 68 67 67 66 65 64 63 62
42 41 39 41 43 37 38 42 48 51 56 57 59 63 65 66 66 65 65 64 66 67 68 68 67 68 67 68 67 68 69 68 66 65 63 63 63 64 64 65 67 68 67 67 66 65 65 62 58
42 41 43 44 50 49 40 43 44 51 51 55 55 62 64 64 63 63 63 64 64 65 68 67 66 67 66 66 65 66 68 68 66 65 64 64 63 63 62 62 63 63 63 62 63 62 61 58 58
38 40 42 49 50 47 42 42 42 43 48 57 62 63 63 61 58 56 63 64 65 66 68 67 67 67 65 65 65 66 67 68 66 65 65 64 62 62 61 61 61 61 61 59 59 59 58 58 57
39 39 44 49 50 48 46 44 44 45 53 61 62 62 61 61 61 61 65 65 65 66 67 67 67 67 65 65 64 65 66 67 67 66 65 64 63 62 62 61 61 60 60 59 58 58 58 58 58
41 42 42 46 48 47 45 44 44 45 48 60 61 61 60 61 61 60 60 60 62 66 66 68 67 67 65 64 63 64 65 65 66 66 66 64 64 63 63 62 61 61 60 59 59 59 58 58 56
42 38 38 45 46 45 46 44 45 46 50 55 58 60 61 60 60 58 59 58 60 63 66 66 66 67 65 63 62 63 64 65 65 66 65 65 64 63 63 62 61 61 60 60 59 58 58 57 56
39 37 33 40 44 45 44 41 42 45 44 43 49 56 59 61 60 59 60 59 63 61 59 61 67 66 66 64 63 62 62 63 64 65 65 65 64 63 62 62 61 62 61 60 58 58 58 57 57
39 33 33 36 43 43 42 40 43 45 43 41 42 46 53 58 61 62 62 61 61 59 58 60 66 66 66 65 64 64 62 62 63 64 63 63 63 63 62 61 61 59 59 58 58 58 58 58 58
34 34 35 34 40 40 38 38 41 42 44 42 42 40 43 49 58 61 63 63 61 61 64 66 67 66 66 66 65 65 64 62 62 63 62 62 61 61 61 61 60 59 58 58 58 58 59 59 59
35 35 34 37 42 38 38 37 39 42 42 42 41 40 39 41 48 56 61 63 63 64 65 65 66 66 67 65 64 64 64 64 63 62 62 62 61 61 61 60 60 61 60 59 59 60 60 60 61
34 34 33 38 42 39 38 35 39 41 42 41 42 41 40 40 41 43 51 59 62 63 64 64 64 65 65 66 66 65 65 65 65 64 63 63 62 62 62 61 61 61 61 61 61 61 61 61 61
30 29 30 35 40 40 39 36 38 41 42 42 42 42 40 40 39 40 43 48 58 61 62 63 64 65 65 65 65 63 64 64 64 64 64 64 63 63 63 63 63 63 63 63 63 62 62 60 61
28 32 31 38 35 30 36 25 35 38 39 40 40 41 41 39 40 40 40 44 46 55 61 63 64 64 64 64 64 62 63 62 63 63 63 64 64 63 63 63 63 63 63 63 63 63 62 61 59
30 35 33 37 32 31 33 29 28 36 36 37 38 39 40 39 39 40 40 41 45 46 55 60 62 63 63 63 63 62 62 62 61 61 62 62 62 62 63 63 63 63 62 62 61 61 61 61 61
34 35 35 35 32 27 29 30 27 29 31 34 36 36 38 37 38 39 40 40 42 43 50 58 61 61 62 62 62 62 62 61 59 59 60 60 60 60 60 61 61 61 60 59 59 58 57 57 56
34 30 27 26 27 22 27 30 29 30 30 28 30 31 34 34 34 37 39 40 41 41 43 54 57 59 60 61 62 62 61 61 59 58 58 58 57 57 57 58 58 58 58 56 55 55 54 54 54
31 29 22 18 20 20 29 27 29 29 28 29 29 28 28 29 30 32 38 39 40 41 41 45 52 56 58 60 60 61 61 60 60 58 56 58 56 55 54 53 52 52 51 50 49 50 51 52 52
32 28 32 24 21 17 24 26 22 24 24 24 26 28 28 30 33 33 36 38 40 40 41 44 48 51 54 56 58 56 57 56 56 55 54 54 53 52 51 50 49 48 46 46 45 46 46 47 48
34 34 29 32 23 19 19 18 19 18 20 24 27 28 29 30 35 39 38 37 40 41 43 46 48 50 50 50 51 51 51 51 51 51 51 51 49 49 48 48 47 43 42 42 42 42 43 44 46
35 35 32 31 27 19 16 15 20 22 22 22 26 29 29 30 33 38 40 40 41 43 44 45 47 47 46 46 47 47 48 48 48 48 48 48 47 46 46 44 41 40 40 40 40 40 41 43 44
36 35 34 27 24 21 17 19 22 25 29 27 26 31 32 33 32 35 39 41 42 43 43 44 45 46 46 46 45 44 44 44 43 42 41 41 40 40 40 40 39 39 40 40 39 39 40 40 40

GFSSGP_sfc_dewp_105.txt.gz
Dewpoint
58 59 63 58 48 46 39 40 40 41 43 47 46 48 47 48 46 42 66 66 69 70 70 70 72 72 70 70 71 72 73 72 73 73 73 73 72 70 69 68 68 69 68 68 67 68 69 69 69
58 58 60 54 43 38 38 40 39 42 43 50 53 54 52 49 62 64 66 68 69 70 70 69 72 71 69 70 71 72 73 73 72 73 73 73 71 69 68 67 67 68 68 68 68 68 69 69 68
56 57 53 48 42 37 35 36 37 41 47 49 51 56 55 55 63 64 67 68 69 70 69 70 72 71 68 71 71 73 73 73 73 72 72 72 70 69 67 67 68 69 70 69 68 69 69 70 70
54 55 54 45 40 39 37 32 34 45 50 54 57 54 62 64 64 66 68 69 69 69 69 71 71 71 70 71 72 72 72 72 72 72 72 71 69 68 67 67 69 69 70 70 69 69 70 70 70
54 52 42 39 40 39 39 30 39 44 48 51 54 53 59 64 68 68 67 68 68 69 70 69 72 71 70 71 71 71 71 72 71 72 71 69 68 67 68 67 67 69 69 70 68 68 69 69 68
47 49 39 36 39 40 37 35 36 45 49 51 51 53 58 66 68 68 68 67 68 69 70 68 71 71 70 70 70 71 71 71 71 71 70 68 67 67 67 67 68 69 69 69 68 67 67 68 67
45 43 37 36 39 39 38 34 37 43 47 48 52 51 59 66 68 68 67 67 68 69 69 70 69 70 70 69 69 70 70 69 70 70 69 69 68 68 67 67 68 68 69 69 68 67 66 66 66
47 45 39 36 38 37 36 33 40 42 42 51 52 51 54 64 68 67 67 68 68 69 69 70 70 69 69 69 69 68 68 69 69 67 68 67 67 67 68 67 66 67 69 69 68 66 65 64 64
48 40 35 37 39 38 35 35 47 50 50 53 51 54 58 66 68 67 67 66 66 68 68 69 68 68 69 69 68 68 68 68 68 67 66 66 65 66 66 66 66 69 69 68 67 66 64 64 64
43 39 37 42 41 42 45 39 48 50 54 51 52 57 62 64 66 65 65 65 66 67 68 68 68 68 68 69 69 68 66 65 65 65 65 65 66 65 65 66 67 68 68 67 66 65 64 60 58
42 38 41 42 44 46 46 43 46 49 51 51 50 56 62 63 65 64 64 64 64 67 68 67 67 67 67 67 69 69 68 66 65 65 65 65 65 65 66 67 66 66 64 64 64 64 60 58 58
38 40 41 43 44 47 45 44 45 48 50 54 55 59 60 59 60 59 63 64 66 66 67 66 66 67 66 66 67 69 68 67 64 64 64 64 64 64 64 64 64 64 63 62 62 60 59 58 58
39 40 41 42 45 50 47 43 45 47 48 57 59 61 62 59 58 60 60 64 65 65 66 66 66 66 66 65 66 67 68 67 65 65 64 63 63 62 62 62 62 62 62 60 59 59 58 58 59
39 40 40 41 43 44 46 44 45 48 47 57 56 60 62 59 58 58 59 63 65 65 66 67 66 66 65 64 65 66 66 67 67 66 65 64 63 63 63 62 62 61 61 60 59 59 59 59 58
40 37 39 41 42 43 45 43 43 45 49 55 55 59 60 59 58 59 62 63 65 66 67 67 67 66 65 64 64 64 66 67 66 66 66 65 64 64 64 64 63 62 61 60 60 60 60 60 57
38 37 34 38 40 39 45 39 43 45 45 48 53 54 56 60 59 59 62 62 63 66 66 67 67 67 65 64 64 64 64 66 66 66 66 66 65 64 64 64 63 63 62 61 61 60 59 58 58
36 32 34 35 40 41 43 41 41 43 44 44 46 49 54 56 59 60 60 59 60 64 64 64 66 67 66 65 64 63 63 63 64 65 66 66 66 65 65 64 64 63 62 61 60 58 59 59 59
34 34 34 34 37 40 39 37 38 41 42 43 42 45 50 58 57 59 60 61 62 62 60 58 62 66 67 66 65 65 63 62 63 64 64 65 65 65 65 64 63 62 61 60 59 58 59 59 59
35 34 33 36 38 39 38 37 36 39 40 40 42 42 44 49 54 60 62 62 61 61 61 61 62 66 66 65 64 64 64 64 63 63 64 64 64 63 64 63 62 61 59 59 58 59 59 60 62
35 35 35 38 40 38 37 35 35 40 39 40 40 41 43 41 46 52 60 62 62 62 63 65 63 66 66 66 66 66 65 65 65 65 64 65 64 64 63 62 62 62 61 60 60 61 61 62 63
32 32 34 33 39 40 37 34 35 38 41 40 40 42 42 42 40 42 50 59 62 62 63 64 64 65 64 65 64 64 65 65 65 65 64 64 64 64 64 63 63 63 63 62 63 63 63 62 62
29 32 32 38 36 31 37 26 32 35 36 37 36 40 41 42 41 41 46 47 54 61 63 63 63 64 65 65 64 61 61 62 64 64 65 65 65 64 64 64 64 64 64 63 64 63 63 62 59
30 35 36 37 33 33 34 30 32 34 34 35 36 39 41 42 41 41 41 43 47 52 60 63 63 63 64 65 64 64 62 62 63 63 64 63 64 64 64 64 64 64 64 63 63 62 61 62 61
36 35 35 35 33 28 29 30 27 32 34 34 35 38 39 40 41 41 42 42 43 48 51 58 62 63 64 64 64 63 63 63 62 62 62 63 62 62 63 63 63 63 62 62 62 61 60 59 59
35 31 26 27 27 23 27 30 28 30 31 30 32 34 37 39 39 40 40 41 42 45 47 55 59 61 62 63 63 63 63 62 62 61 61 61 60 59 60 61 61 61 61 61 61 59 57 56 56
33 31 24 18 21 23 30 28 29 32 32 32 31 31 30 34 35 36 38 41 41 44 44 50 57 59 61 62 62 63 63 63 62 61 60 60 59 59 58 59 58 56 56 55 55 54 54 54 55
32 32 32 24 22 21 24 26 23 24 26 26 26 28 30 32 35 33 34 37 40 42 43 43 49 54 58 60 61 61 61 61 60 60 59 59 58 56 55 54 52 50 49 48 48 48 48 49 51
35 36 31 32 21 19 20 20 20 20 21 23 26 29 30 32 37 40 37 37 39 41 42 44 47 51 55 58 59 58 57 57 57 57 57 56 54 53 51 49 47 46 44 44 44 45 45 45 48
35 34 33 32 28 21 16 16 20 22 23 25 23 30 31 32 35 40 41 40 41 43 44 45 47 49 51 52 52 52 52 52 52 53 53 52 51 50 49 46 43 42 41 41 41 42 43 43 44
35 34 34 29 26 21 19 18 22 24 29 31 27 31 33 33 34 37 41 42 42 43 44 46 47 48 48 48 47 48 49 49 49 49 48 48 46 44 43 41 40 40 40 40 40 40 41 41 41

GFSSGP_sfc_dewp_108.txt.gz
Dewpoint
54 55 62 59 50 46 37 38 40 41 44 47 45 46 46 47 48 47 63 64 64 65 69 69 72 72 71 72 73 72 73 73 74 74 73 72 72 70 70 71 71 70 68 68 70 70 69 69 68
52 52 59 54 45 40 35 36 38 41 44 46 47 50 47 46 55 62 64 65 65 67 69 68 72 72 71 72 72 73 73 73 73 73 73 72 71 69 69 70 71 69 68 68 69 69 69 68 68
53 52 52 48 43 37 34 35 37 40 42 45 46 50 49 49 60 62 64 66 66 67 67 68 72 71 71 72 73 73 73 73 73 73 72 72 70 69 68 70 70 70 68 69 69 69 69 69 68
51 52 51 43 40 40 34 34 38 39 42 45 46 49 59 62 62 63 65 66 65 66 67 71 71 71 72 73 73 73 73 73 73 72 72 72 70 68 69 70 70 70 70 69 69 70 70 69 68
52 49 39 40 36 41 36 35 38 38 43 43 46 52 54 62 66 65 66 66 65 66 67 68 71 71 72 72 73 73 73 73 72 72 72 70 68 68 68 69 70 70 70 69 70 70 69 68 66
45 45 36 35 39 36 41 38 35 35 39 46 49 52 55 64 65 66 67 66 66 65 67 67 70 71 72 72 72 72 72 72 72 72 71 70 68 68 67 68 70 70 69 68 69 69 68 67 65
42 40 36 33 38 37 41 40 32 34 37 42 48 49 57 63 67 67 67 66 65 65 66 67 65 67 70 71 71 71 72 71 71 71 70 68 68 68 67 69 69 70 70 68 68 68 68 67 66
43 41 35 37 38 38 42 42 39 36 37 44 50 48 52 60 67 68 67 66 65 66 66 65 63 60 66 67 70 70 70 70 70 69 67 67 67 68 68 68 67 70 70 68 68 67 66 66 66
44 37 34 37 38 37 38 41 43 38 45 47 49 47 52 63 67 66 66 67 66 66 66 65 62 61 59 62 67 68 68 69 68 67 66 65 62 64 64 65 67 69 70 68 67 66 65 65 65
41 36 36 41 43 40 43 43 42 37 42 47 49 55 60 65 66 65 64 64 65 66 66 64 62 62 63 61 62 63 65 65 64 63 63 59 60 62 62 65 67 69 69 68 66 65 63 61 57
38 35 39 42 44 46 43 41 44 40 39 45 48 52 57 57 58 64 64 64 64 65 66 64 63 63 67 65 60 58 59 60 61 61 60 59 60 63 63 65 65 65 64 62 62 61 57 55 55
35 40 42 43 46 43 44 41 43 44 42 46 48 52 57 57 57 57 59 63 64 65 65 65 64 63 65 67 64 61 57 58 60 61 60 60 60 61 60 60 61 61 60 59 58 56 55 55 56
38 40 41 43 44 42 43 44 44 43 47 51 49 54 56 57 56 58 59 59 62 64 65 65 65 64 63 67 66 67 62 58 57 60 60 59 59 59 59 59 59 58 57 55 54 52 51 52 55
41 40 40 41 41 42 43 44 45 42 46 48 52 53 54 56 57 58 58 58 57 65 65 65 65 62 61 63 66 66 65 63 61 59 58 57 56 56 57 56 56 56 56 54 54 55 55 56 56
40 38 38 40 40 39 42 41 44 43 45 47 53 53 57 56 57 57 58 59 60 65 65 66 65 62 59 59 64 66 67 65 64 62 61 60 59 59 59 58 58 57 57 56 57 58 58 57 56
35 37 36 38 39 40 41 37 42 43 45 48 49 52 58 57 56 58 59 60 63 65 66 66 65 64 62 60 59 63 66 66 66 65 63 63 62 61 63 63 61 60 60 59 58 58 58 58 58
34 30 36 31 41 41 39 39 41 42 45 48 49 52 55 57 57 58 60 60 62 66 66 66 66 65 64 64 62 60 61 64 66 67 67 64 64 62 63 63 62 62 61 60 59 58 58 58 59
29 29 28 30 36 38 38 38 40 40 43 45 48 52 54 55 56 58 60 62 62 65 66 67 67 66 66 66 65 64 61 60 61 63 64 65 64 64 65 64 63 62 62 61 60 58 59 59 59
33 30 23 34 36 37 37 37 38 38 43 43 46 49 53 54 58 60 61 62 62 63 62 63 65 66 66 67 66 65 63 62 61 61 61 62 63 64 65 64 63 63 61 61 60 58 59 59 61
34 31 32 35 37 38 36 35 37 36 40 41 42 44 49 51 56 60 61 61 61 61 61 60 62 65 66 66 66 66 66 66 65 64 63 64 63 64 65 65 63 63 62 61 61 60 60 61 64
34 31 32 31 36 38 36 34 34 37 39 40 40 43 43 48 53 57 58 60 61 61 61 61 62 65 65 66 65 64 64 64 65 66 66 66 65 66 66 65 64 64 64 62 62 62 62 62 63
28 32 33 35 34 31 34 25 34 33 37 38 40 41 43 43 44 50 55 59 59 61 62 62 62 64 65 65 63 61 60 60 63 64 66 65 65 65 65 64 65 65 64 64 64 64 64 62 60
30 35 32 35 32 30 32 28 29 32 32 35 39 40 42 43 44 44 45 51 60 60 61 62 62 63 64 63 63 63 61 61 62 63 62 61 62 65 65 65 65 64 65 65 64 64 63 62 60
37 35 35 35 32 27 24 28 18 29 32 33 36 38 41 42 43 43 46 47 49 58 61 63 62 61 63 62 63 63 62 61 61 62 62 62 62 64 65 65 65 65 65 64 64 64 62 62 61
35 32 29 26 29 22 27 30 22 27 31 31 32 34 36 40 41 41 42 42 43 48 52 59 62 62 62 63 63 63 63 62 62 61 62 62 62 62 63 64 64 64 64 63 63 62 62 60 59
31 32 26 16 18 21 29 26 22 31 31 32 32 32 33 33 39 39 40 43 43 46 47 50 54 59 62 63 63 64 63 63 63 63 63 63 62 62 62 62 63 62 61 61 60 59 58 58 57
36 33 32 27 23 24 23 25 25 22 25 28 28 27 30 31 36 37 37 40 42 43 45 46 50 53 59 62 62 63 64 63 63 63 63 62 62 61 61 60 59 57 56 56 57 56 55 54 54
34 36 32 34 25 17 18 20 18 21 22 23 26 28 30 34 37 38 39 35 36 38 43 45 46 51 56 60 61 61 61 62 62 61 61 60 60 58 58 56 53 51 51 50 49 48 47 47 49
30 31 33 33 31 20 13 15 19 23 27 28 26 29 31 35 39 40 40 40 38 40 42 43 45 49 54 59 59 59 59 59 58 59 57 56 55 54 52 50 47 45 44 44 44 43 44 44 45
31 32 34 29 26 28 22 17 23 28 31 29 27 31 32 35 38 40 42 42 41 42 43 45 46 48 51 55 57 57 55 55 55 55 54 53 52 51 49 46 44 43 42 41 41 41 42 42 43

GFSSGP_sfc_dewp_111.txt.gz
Dewpoint
54 52 61 57 48 48 39 37 35 35 35 42 43 44 44 44 42 47 62 61 60 66 68 70 72 72 72 73 73 74 74 74 73 73 73 72 71 70 71 71 70 69 70 70 69 68 69 68 68
51 52 58 53 44 38 38 37 35 35 35 40 44 46 45 44 52 60 60 61 62 67 68 69 72 72 73 73 73 74 74 74 73 73 73 72 71 71 72 71 71 70 71 71 70 69 67 68 68
48 49 50 45 41 38 35 33 35 35 36 38 44 46 47 46 52 60 62 62 63 68 68 69 72 72 73 73 73 73 73 73 73 73 72 72 71 70 70 71 70 70 70 70 69 69 69 68 68
45 47 48 42 35 38 38 35 34 34 35 41 46 45 51 60 57 60 63 62 66 67 67 70 72 72 71 73 73 73 73 73 73 72 72 72 71 70 70 71 70 69 70 70 70 69 69 68 66
44 46 36 34 38 36 37 38 35 33 35 39 47 46 49 60 62 63 63 64 66 67 67 68 71 72 73 73 73 73 72 72 72 72 72 71 70 70 70 70 69 70 70 70 70 70 69 66 65
41 39 33 31 29 38 36 38 39 34 37 37 46 47 53 61 63 64 64 65 66 66 67 67 70 72 73 73 73 73 73 72 72 72 71 70 70 70 69 69 70 70 69 70 69 69 67 65 64
40 34 31 28 26 27 38 41 41 42 39 37 41 45 56 62 64 65 65 65 66 66 65 65 64 70 71 72 72 72 72 71 71 71 70 67 69 69 69 66 70 69 69 70 70 68 67 66 65
40 39 29 29 28 26 36 41 43 41 43 42 44 42 54 62 65 67 66 65 66 66 65 64 61 68 69 70 71 71 70 70 70 69 68 68 68 67 68 67 69 70 69 69 69 68 67 67 66
41 36 32 27 28 31 38 44 43 45 46 41 40 47 52 63 67 67 66 67 66 66 65 63 57 63 68 68 69 69 69 69 68 67 66 65 63 64 67 66 69 70 69 68 67 66 66 66 66
40 35 31 29 38 42 40 43 44 44 44 40 45 47 60 66 66 66 65 65 65 65 65 62 55 56 64 67 67 67 67 66 65 64 63 59 61 62 63 65 67 69 69 68 67 65 65 64 59
36 36 31 37 42 44 41 42 44 47 45 41 44 56 57 64 65 65 65 65 64 65 65 62 57 53 59 66 67 67 67 65 64 62 59 56 59 62 63 65 66 67 66 64 63 61 57 56 54
35 35 37 41 43 43 42 45 44 46 43 45 52 56 58 62 64 62 58 59 60 65 65 62 56 59 56 58 62 64 64 63 60 60 55 56 59 60 60 63 63 62 63 60 59 57 55 55 54
37 37 40 42 43 43 43 41 41 43 43 45 51 55 57 60 60 59 59 59 59 58 65 63 58 65 61 56 56 57 57 57 58 59 57 58 59 59 59 59 59 59 58 57 56 54 52 51 52
37 39 39 40 41 42 41 39 41 45 44 46 48 51 55 55 57 58 57 56 57 59 60 65 59 64 65 59 59 56 55 56 58 59 59 58 59 59 59 59 58 57 55 53 51 50 50 50 53
38 37 40 39 38 39 40 37 40 44 45 44 45 51 55 55 56 56 56 56 57 59 60 65 62 58 64 64 60 58 57 55 56 57 57 56 56 57 57 55 56 55 54 52 53 53 55 55 54
36 38 36 37 38 40 38 35 40 43 44 43 44 50 54 55 55 56 57 58 58 58 60 65 64 60 59 64 63 63 60 59 58 57 57 55 55 57 59 58 57 55 56 56 56 57 57 57 56
32 29 36 32 39 39 36 34 39 43 43 42 44 47 53 55 55 55 57 58 58 60 61 66 65 61 56 57 62 64 64 64 63 61 61 60 59 59 61 61 60 59 59 59 58 57 57 57 58
29 27 27 30 36 35 34 36 40 41 42 42 46 44 51 55 55 56 58 60 61 62 64 65 65 64 61 60 59 60 63 64 65 66 65 62 62 60 62 63 61 60 60 60 59 58 58 58 58
31 29 25 24 35 34 34 36 38 39 43 43 46 52 52 53 57 58 60 61 61 62 64 66 65 64 65 65 64 62 59 60 61 63 65 64 63 62 63 64 63 62 60 60 60 60 58 59 60
32 28 26 32 34 35 34 34 39 38 40 43 45 51 52 55 56 58 60 61 61 61 62 62 64 64 65 66 66 65 64 64 63 63 62 62 63 64 63 63 64 63 62 61 61 61 60 61 65
30 29 28 29 34 35 36 34 37 37 40 41 44 49 52 54 56 57 59 61 61 61 61 61 62 63 65 66 65 65 66 66 65 66 65 65 63 65 67 65 66 65 66 65 63 63 63 63 64
27 31 31 31 31 26 31 30 36 36 39 40 41 45 48 52 55 57 58 60 60 59 60 62 61 62 65 65 64 63 62 61 64 65 66 66 65 65 66 66 65 65 65 65 64 64 64 63 61
30 34 31 31 29 27 26 26 32 36 36 38 40 42 45 50 54 55 57 59 59 58 59 62 61 62 62 63 62 63 62 62 64 64 63 63 63 65 65 65 65 65 65 65 64 64 63 63 62
34 33 30 30 30 27 23 24 27 32 35 37 39 41 43 45 47 50 55 59 58 60 62 61 61 61 62 62 62 62 62 61 62 62 62 62 62 63 64 65 65 65 64 64 64 64 64 63 62
32 31 29 26 29 22 26 25 22 26 30 36 38 39 41 44 45 46 47 49 55 59 60 59 61 60 61 61 60 61 62 61 61 60 60 60 61 61 62 64 65 64 64 64 64 64 64 63 61
31 30 28 22 19 18 27 22 26 27 30 31 32 34 36 39 42 44 45 46 49 54 57 58 59 59 60 60 60 62 62 62 60 61 60 60 61 61 63 63 64 64 64 63 63 63 62 60 59
33 32 32 29 22 19 19 22 21 24 26 29 29 30 33 31 34 42 43 44 44 47 51 55 58 59 58 60 60 61 62 61 61 61 61 61 62 62 62 62 62 61 61 61 60 59 57 58 58
31 34 29 32 22 15 15 16 19 23 25 25 26 28 30 33 36 39 38 38 42 44 47 48 50 53 58 61 62 62 62 61 62 63 62 62 62 61 61 60 58 58 56 56 55 55 53 54 53
27 29 30 32 31 26 17 18 24 27 29 28 26 30 32 37 39 40 41 39 37 40 44 45 47 50 53 59 61 61 62 62 63 62 61 61 59 58 57 54 52 51 51 50 50 49 48 48 49
28 27 30 26 28 27 26 24 27 29 28 27 30 32 33 36 38 41 42 40 40 40 41 43 45 47 52 57 59 59 60 60 59 59 58 57 56 55 54 51 48 46 46 45 44 43 44 44 45

GFSSGP_sfc_dewp_114.txt.gz
Dewpoint
50 52 60 57 49 48 41 39 38 36 35 39 41 41 41 43 43 45 62 62 68 69 70 71 73 73 73 73 75 74 74 74 73 73 73 72 71 72 72 70 69 70 70 68 70 70 70 69 68
50 49 56 51 43 38 34 37 36 37 36 35 40 40 41 42 57 59 60 61 68 68 69 69 73 73 73 73 74 74 74 74 73 73 73 73 72 72 71 71 70 72 71 70 69 68 68 68 67
48 49 49 45 39 34 31 33 36 37 35 35 34 41 42 48 58 59 60 62 67 68 68 69 72 73 73 73 74 74 74 74 73 73 72 72 72 72 71 71 71 71 72 71 69 68 68 68 65
46 46 48 40 35 35 35 36 37 35 35 35 35 37 47 59 58 60 61 65 67 67 68 71 72 73 73 73 73 74 74 74 73 73 72 72 72 72 72 71 71 71 71 71 69 69 68 66 64
44 44 36 36 35 35 34 34 35 36 38 37 36 40 49 60 62 62 61 67 67 67 69 70 72 73 73 73 73 73 73 73 73 72 72 72 72 71 72 70 70 71 71 71 70 69 66 65 64
40 39 31 29 28 30 35 35 34 34 40 39 38 46 49 61 63 62 63 66 67 67 68 69 71 72 73 73 73 73 72 73 72 72 72 71 72 71 71 70 70 70 70 70 69 67 65 65 64
38 36 31 29 26 26 27 32 38 39 40 43 43 43 57 62 63 63 65 66 67 68 68 68 69 71 72 72 72 72 72 72 71 71 71 70 70 70 69 68 70 69 71 70 69 67 66 65 65
40 39 33 32 26 25 27 26 34 37 38 44 45 47 52 62 65 65 67 66 67 67 66 66 67 70 71 71 71 71 71 70 70 70 68 68 68 68 65 68 69 70 70 70 70 68 66 66 65
44 37 32 30 30 28 25 38 36 40 43 46 47 49 51 60 66 65 65 67 67 65 64 62 66 68 69 69 70 70 70 69 69 67 66 66 65 63 63 66 68 69 69 69 68 67 67 67 66
41 35 32 32 30 29 36 40 41 39 40 43 47 49 50 58 64 64 64 65 65 65 63 60 64 68 68 69 69 69 68 67 66 65 64 63 62 62 63 66 67 69 68 68 67 67 66 64 61
37 34 34 34 35 40 42 41 43 43 40 43 45 48 53 57 62 65 65 65 65 65 63 58 60 67 67 67 68 68 67 66 64 63 63 60 63 64 65 66 68 67 65 65 65 64 61 59 59
34 35 35 36 41 42 40 42 39 40 40 43 45 48 52 56 57 64 64 59 59 59 63 58 55 64 66 67 67 67 66 65 63 62 61 59 61 62 63 63 65 65 65 63 62 59 57 56 54
37 35 37 39 41 42 41 39 40 39 39 44 47 47 51 53 53 64 60 59 59 59 60 60 53 55 65 66 67 66 66 65 62 61 58 59 61 61 63 63 63 63 63 61 60 58 55 53 52
40 39 37 40 41 41 39 36 39 37 38 43 45 48 50 53 53 59 59 58 58 59 60 60 59 56 56 60 62 64 63 59 59 58 58 59 60 60 60 60 60 59 59 57 56 52 51 50 52
38 38 39 40 40 39 40 35 32 34 41 46 47 50 52 53 53 58 58 57 59 60 60 60 60 60 57 56 56 55 57 58 59 59 58 58 59 59 59 58 57 56 54 52 51 51 52 53 54
35 36 35 36 40 39 40 29 31 44 41 46 49 50 51 54 58 58 57 57 58 59 59 60 61 63 63 59 57 56 54 56 57 58 58 56 57 57 56 56 55 55 54 54 55 57 57 57 55
34 31 34 35 39 40 39 34 37 44 45 45 48 47 52 56 58 57 57 57 58 58 59 60 61 63 63 63 58 58 56 56 56 56 56 55 56 57 59 59 58 56 57 58 57 57 57 57 57
35 36 31 32 37 38 36 36 34 40 45 46 46 45 52 56 56 55 56 57 58 58 60 60 61 63 62 64 63 64 62 61 62 60 57 59 58 60 60 62 60 60 60 59 59 58 58 58 58
33 30 29 27 36 35 34 32 36 40 39 41 41 44 53 55 56 56 58 58 59 60 60 60 61 63 60 62 62 63 63 64 64 65 64 62 61 60 61 63 62 61 61 60 59 59 57 58 60
31 30 30 32 35 35 33 33 36 39 39 42 43 47 52 55 56 57 58 59 60 61 60 63 63 62 61 61 61 61 61 63 65 65 65 65 63 63 63 64 63 63 62 61 61 60 59 59 62
30 32 30 29 33 35 34 33 34 39 39 41 44 47 51 54 56 57 58 59 60 60 60 62 62 63 63 64 64 64 64 64 63 62 62 63 63 64 64 64 65 64 64 63 63 62 61 61 62
29 34 31 28 29 31 33 25 34 37 37 42 42 49 53 55 56 57 57 59 60 60 60 61 61 62 63 64 63 63 62 62 63 64 64 64 64 64 65 64 65 64 64 63 62 63 62 62 60
30 33 31 30 28 28 27 25 37 37 36 39 42 46 51 54 56 55 56 59 59 60 59 60 61 61 62 62 62 61 61 61 64 64 63 62 62 64 64 64 64 64 64 64 62 62 62 61 61
32 31 31 30 30 24 24 24 33 33 37 40 41 44 48 52 55 55 55 59 58 58 57 60 59 59 62 62 62 61 60 61 61 61 61 61 61 62 64 64 64 64 63 63 62 63 62 62 62
32 30 24 21 20 20 25 23 26 28 31 40 42 44 45 50 50 52 55 59 58 56 57 59 59 59 61 61 61 61 60 61 60 60 60 60 60 60 61 63 63 63 63 63 63 63 63 62 62
30 32 28 23 24 27 25 27 22 27 30 38 42 39 42 46 47 49 50 54 57 57 58 60 59 57 58 60 61 61 61 61 60 60 60 59 59 59 60 61 62 62 63 63 63 63 63 63 62
30 28 32 31 25 22 21 21 23 26 27 28 33 34 32 33 42 45 47 48 51 55 58 59 58 58 59 60 61 60 60 61 60 60 60 60 60 60 61 61 62 62 62 62 62 61 60 60 59
32 33 28 30 17 16 18 20 23 27 27 28 29 31 33 37 38 39 41 42 45 47 52 58 58 59 59 60 60 60 60 61 61 61 59 60 60 60 60 60 61 60 60 60 60 58 59 58 57
30 28 29 31 28 25 24 27 27 27 27 28 31 33 36 38 40 41 41 38 37 39 47 51 55 56 57 59 60 60 60 60 61 61 59 60 61 60 60 60 59 58 57 57 57 55 55 53 51
27 26 30 24 21 27 29 28 28 29 31 31 31 33 34 36 40 41 41 40 39 39 42 44 45 49 53 60 60 60 60 60 60 60 60 60 59 58 56 55 54 54 53 51 49 47 48 49 49

GFSSGP_sfc_dewp_117.txt.gz
Dewpoint
50 52 57 54 46 46 39 37 40 37 37 40 41 41 43 43 44 44 62 65 69 69 71 72 73 73 74 75 75 74 74 74 73 73 73 72 72 72 70 70 71 70 69 71 70 69 69 69 70
50 50 54 49 41 35 24 35 35 38 38 37 37 40 39 38 56 60 61 68 69 69 70 71 73 73 73 75 75 74 74 73 73 73 73 73 72 72 71 71 72 71 71 70 69 69 68 68 68
49 49 46 42 38 33 28 33 33 37 38 37 35 36 41 43 58 60 64 68 69 69 69 71 73 73 73 75 75 74 74 73 73 73 73 73 73 72 71 72 71 71 71 70 68 68 67 65 64
45 45 46 39 35 35 34 34 34 34 35 39 40 39 41 59 59 60 68 68 68 69 69 72 73 73 73 74 74 74 74 73 73 73 72 73 72 73 72 72 72 71 71 70 68 68 66 64 66
44 42 36 35 33 35 35 35 35 34 33 34 42 41 42 54 61 63 67 68 68 68 70 71 73 73 73 74 74 74 74 73 73 73 72 73 72 72 71 72 72 71 71 70 68 66 65 64 65
38 38 34 29 29 31 31 33 35 35 34 37 40 44 44 58 62 66 67 67 68 69 70 70 71 73 73 73 74 74 73 73 73 72 72 72 72 72 71 71 71 71 71 69 67 65 65 64 64
38 37 29 31 30 30 30 29 29 32 34 36 42 42 45 49 61 66 67 67 68 69 69 69 70 71 72 71 73 73 73 72 72 71 71 71 71 70 70 70 70 71 71 69 67 65 65 65 64
41 40 33 33 30 29 30 28 27 29 34 40 44 43 47 56 58 59 67 67 68 68 68 69 69 70 71 71 71 71 71 71 71 70 70 69 69 68 68 69 70 71 71 70 69 67 66 65 65
45 38 32 31 32 32 32 31 33 39 39 38 42 45 48 52 55 57 59 67 67 67 67 68 68 69 71 70 70 70 70 70 69 68 67 66 65 62 63 67 69 70 70 70 69 67 67 66 65
41 37 33 34 34 32 32 35 39 41 39 40 40 42 47 51 56 56 56 65 66 65 65 66 68 69 70 70 70 69 69 68 66 64 64 65 62 61 63 66 67 69 69 68 68 68 67 65 62
39 34 35 34 35 36 38 38 42 42 41 41 40 40 45 51 54 57 58 65 64 64 63 66 68 69 69 69 69 68 68 66 65 63 63 63 62 63 65 66 67 66 65 66 66 65 62 61 59
35 37 36 35 36 36 37 40 41 41 40 40 43 44 46 50 51 54 56 63 65 63 62 65 68 68 68 68 68 67 66 65 64 63 62 62 63 63 65 66 66 65 64 63 62 60 59 58 58
39 39 37 37 38 38 42 41 40 37 38 40 41 43 48 50 50 53 56 58 64 60 60 59 64 67 67 67 67 66 65 64 63 62 62 62 63 63 63 62 64 64 64 62 61 59 57 56 53
41 41 41 39 38 41 40 41 40 39 39 39 40 42 49 50 52 53 56 56 61 61 61 61 60 62 67 67 67 66 65 63 63 61 61 62 63 63 62 62 63 63 63 62 60 59 56 53 52
40 38 38 39 39 40 41 39 39 38 36 37 37 44 49 51 55 54 57 59 61 61 62 61 61 61 63 66 66 66 66 63 61 60 59 61 61 62 62 62 62 61 60 58 55 53 51 50 52
37 36 34 36 40 41 39 33 35 39 44 42 46 48 50 52 54 54 59 59 61 61 61 62 63 61 61 62 66 64 64 61 59 58 60 60 60 60 60 60 58 56 54 52 53 55 56 55 55
36 30 32 34 36 40 38 35 37 38 43 43 46 48 50 53 57 54 56 58 59 61 61 61 61 61 61 61 59 60 59 59 58 58 58 58 58 57 57 56 55 54 54 55 56 57 57 57 57
34 34 35 35 36 39 38 38 38 38 41 45 46 47 49 55 57 57 57 59 59 60 60 61 61 61 62 60 60 58 58 57 57 57 56 56 56 57 58 57 56 56 57 58 58 57 57 57 57
36 32 33 35 38 38 37 36 36 35 40 40 43 45 49 54 58 58 58 58 59 59 59 59 61 62 64 61 60 58 57 58 57 56 57 57 57 58 60 60 59 59 59 58 58 58 57 57 60
31 30 35 39 37 36 34 34 34 36 39 40 41 43 52 55 56 57 58 59 59 58 59 60 61 63 63 63 62 59 59 60 60 59 60 59 60 60 61 62 61 60 60 60 60 60 58 58 61
29 31 33 31 31 35 35 31 34 36 39 40 40 49 52 53 55 57 58 58 59 60 60 61 60 63 63 64 63 63 63 64 63 63 62 62 61 62 62 64 64 63 63 62 62 61 59 60 61
29 33 31 31 30 27 34 26 33 38 38 39 42 51 52 53 55 57 58 59 59 60 61 60 62 62 63 63 63 61 60 60 62 62 64 64 63 64 64 64 64 64 64 63 62 63 62 61 59
31 33 30 32 30 28 27 29 35 40 39 41 44 50 52 54 56 56 58 59 59 59 59 60 61 62 62 61 62 61 60 61 62 63 63 63 64 64 64 64 64 64 63 63 62 62 62 62 61
33 31 31 30 30 21 27 29 29 28 38 42 42 45 52 54 55 55 57 58 59 59 59 59 59 60 61 61 60 58 59 62 61 61 60 61 61 63 63 63 63 63 63 63 62 62 62 61 61
31 29 18 19 16 19 26 25 24 27 40 42 42 42 49 53 55 55 57 57 56 57 58 59 58 59 61 61 60 60 60 60 60 61 61 60 59 60 61 62 62 62 62 62 62 62 62 61 61
30 31 27 21 23 24 28 21 25 27 31 44 45 43 43 48 52 54 55 57 57 56 57 58 57 58 60 61 60 60 60 60 60 59 60 59 59 60 60 62 62 61 62 61 61 62 62 62 62
28 27 32 30 31 26 24 26 26 28 28 33 41 43 41 40 42 48 52 55 57 57 57 59 58 57 59 59 60 60 60 60 60 60 59 59 59 59 59 60 60 60 61 60 61 61 61 62 62
31 32 23 25 18 22 25 25 27 28 29 31 34 37 38 42 41 41 41 44 51 55 57 59 59 58 57 59 59 60 60 61 61 60 59 59 59 59 59 59 60 61 61 60 61 60 60 60 59
28 26 28 24 27 25 21 27 30 28 30 31 32 33 36 39 41 41 40 39 38 42 52 57 59 58 58 59 60 60 60 60 61 60 59 59 60 60 60 60 60 59 59 59 59 59 59 58 56
27 25 26 19 19 29 24 29 35 35 30 31 31 32 33 35 40 41 42 43 42 40 44 49 54 58 59 59 59 59 60 60 60 61 61 60 59 60 59 59 59 58 58 58 58 57 57 55 54